[[{"header":{"parameterUnit":"m.s-1","parameterCategory":1,"la1":30.6,"la2":28.766,"lo1":-90.7593,"lo2":-88.6598,"dy":0.0162,"dx":0.0183,"nx":116,"ny":114,"refTime":"2023-11-10T06:00:00:Z","depth":0,"parameterNumber":2,"parameterNumberName":"U-component_of_WINDS"},"data":[0.0,0.0,0.0,0.0,0.0,0.0,0.0,0.0,0.0,0.0,0.0,0.0,0.0,0.0,0.0,0.0,0.0,0.0,0.0,0.0,0.0,0.0,0.0,0.0,0.0,0.0,0.0,0.0,0.0,0.0,0.0,0.0,0.0,0.0,0.0,0.0,0.0,0.0,0.0,0.0,0.0,0.0,0.0,0.0,0.0,0.0,0.0,0.0,0.0,0.0,0.0,0.0,0.0,0.0,0.0,0.0,0.0,0.0,0.0,0.0,0.0,0.0,0.0,0.0,0.0,0.0,0.0,0.0,0.0,0.0,0.0,0.0,0.0,0.0,0.0,0.0,0.0,0.0,0.0,0.0,0.0,0.0,0.0,0.0,0.0,0.0,0.0,0.0,0.0,0.0,0.0,0.0,0.0,0.0,0.0,0.0,0.0,0.0,0.0,0.0,0.0,0.0,0.0,0.0,0.0,0.0,0.0,0.0,0.0,0.0,0.0,0.0,0.0,0.0,0.0,0.0,0.0,0.0,0.0,0.0,0.0,0.0,0.0,0.0,0.0,0.0,0.0,0.0,0.0,0.0,0.0,0.0,0.0,0.0,0.0,0.0,0.0,0.0,0.0,0.0,0.0,0.0,0.0,0.0,0.0,0.0,0.0,0.0,0.0,0.0,0.0,0.0,0.0,0.0,0.0,0.0,0.0,0.0,0.0,0.0,0.0,0.0,0.0,0.0,0.0,0.0,0.0,0.0,0.0,0.0,0.0,0.0,0.0,0.0,0.0,0.0,0.0,0.0,0.0,0.0,0.0,0.0,0.0,0.0,0.0,0.0,0.0,0.0,0.0,0.0,0.0,0.0,0.0,0.0,0.0,0.0,0.0,0.0,0.0,0.0,0.0,0.0,0.0,0.0,0.0,0.0,0.0,0.0,0.0,0.0,0.0,0.0,0.0,0.0,0.0,0.0,0.0,0.0,0.0,0.0,0.0,0.0,0.0,0.0,0.0,0.0,0.0,0.0,0.0,0.0,0.0,0.0,0.0,0.0,0.0,0.0,0.0,0.0,0.0,0.0,0.0,0.0,0.0,0.0,0.0,0.0,0.0,0.0,0.0,0.0,0.0,0.0,0.0,0.0,0.0,0.0,0.0,0.0,0.0,0.0,0.0,0.0,0.0,0.0,0.0,0.0,0.0,0.0,0.0,0.0,0.0,0.0,0.0,0.0,0.0,0.0,0.0,0.0,0.0,0.0,0.0,0.0,0.0,0.0,0.0,0.0,0.0,0.0,0.0,0.0,0.0,0.0,0.0,0.0,0.0,0.0,0.0,0.0,0.0,0.0,0.0,0.0,0.0,0.0,0.0,0.0,0.0,0.0,0.0,0.0,0.0,0.0,0.0,0.0,0.0,0.0,0.0,0.0,0.0,0.0,0.0,0.0,0.0,0.0,0.0,0.0,0.0,0.0,0.0,0.0,0.0,0.0,0.0,0.0,0.0,0.0,0.0,0.0,0.0,0.0,0.0,0.0,0.0,0.0,0.0,0.0,0.0,0.0,0.0,0.0,0.0,0.0,0.0,0.0,0.0,0.0,0.0,0.0,0.0,0.0,0.0,0.0,0.0,0.0,0.0,0.0,0.0,0.0,0.0,0.0,0.0,0.0,0.0,0.0,0.0,0.0,0.0,0.0,0.0,0.0,0.0,0.0,0.0,0.0,0.0,0.0,0.0,0.0,0.0,0.0,0.0,0.0,0.0,0.0,0.0,0.0,0.0,0.0,0.0,0.0,0.0,0.0,0.0,0.0,0.0,0.0,0.0,0.0,0.0,0.0,0.0,0.0,0.0,0.0,0.0,0.0,0.0,0.0,0.0,0.0,0.0,0.0,0.0,0.0,0.0,0.0,0.0,0.0,0.0,0.0,0.0,0.0,0.0,0.0,0.0,0.0,0.0,0.0,0.0,0.0,0.0,0.0,0.0,0.0,0.0,0.0,0.0,0.0,0.0,0.0,0.0,0.0,0.0,0.0,0.0,0.0,0.0,0.0,0.0,0.0,0.0,0.0,0.0,0.0,0.0,0.0,0.0,0.0,0.0,0.0,0.0,0.0,0.0,0.0,0.0,0.0,0.0,0.0,0.0,0.0,0.0,0.0,0.0,0.0,0.0,0.0,0.0,0.0,0.0,0.0,0.0,0.0,0.0,0.0,0.0,0.0,0.0,0.0,0.0,0.0,0.0,0.0,0.0,0.0,0.0,0.0,0.0,0.0,0.0,0.0,0.0,0.0,0.0,0.0,0.0,0.0,0.0,0.0,0.0,0.0,0.0,0.0,0.0,0.0,0.0,0.0,0.0,0.0,0.0,0.0,0.0,0.0,0.0,0.0,0.0,0.0,0.0,0.0,0.0,0.0,0.0,0.0,0.0,0.0,0.0,0.0,0.0,0.0,0.0,0.0,0.0,0.0,0.0,0.0,0.0,0.0,0.0,0.0,0.0,0.0,0.0,0.0,0.0,0.0,0.0,0.0,0.0,0.0,0.0,0.0,0.0,0.0,0.0,0.0,0.0,0.0,0.0,0.0,0.0,0.0,0.0,0.0,0.0,0.0,0.0,0.0,0.0,0.0,0.0,0.0,0.0,0.0,0.0,0.0,0.0,0.0,0.0,0.0,0.0,0.0,0.0,0.0,0.0,0.0,0.0,0.0,0.0,0.0,0.0,0.0,0.0,0.0,0.0,0.0,0.0,0.0,0.0,0.0,0.0,0.0,0.0,0.0,0.0,0.0,0.0,0.0,0.0,0.0,0.0,0.0,0.0,0.0,0.0,0.0,0.0,0.0,0.0,0.0,0.0,0.0,0.0,0.0,0.0,0.0,0.0,0.0,0.0,0.0,0.0,0.0,0.0,0.0,0.0,0.0,0.0,0.0,0.0,0.0,0.0,0.0,0.0,0.0,0.0,0.0,0.0,0.0,0.0,0.0,0.0,0.0,0.0,0.0,0.0,0.0,0.0,0.0,0.0,0.0,0.0,0.0,0.0,0.0,0.0,0.0,0.0,0.0,0.0,0.0,0.0,0.0,0.0,0.0,0.0,0.0,0.0,0.0,0.0,0.0,0.0,0.0,0.0,0.0,0.0,0.0,0.0,0.0,0.0,0.0,0.0,0.0,0.0,0.0,0.0,0.0,0.0,0.0,0.0,0.0,0.0,0.0,0.0,0.0,0.0,0.0,0.0,0.0,0.0,0.0,0.0,0.0,0.0,0.0,0.0,0.0,0.0,0.0,0.0,0.0,0.0,0.0,0.0,0.0,0.0,0.0,0.0,0.0,0.0,0.0,0.0,0.0,0.0,0.0,0.0,0.0,0.0,0.0,0.0,0.0,0.0,0.0,0.0,0.0,0.0,0.0,0.0,0.0,0.0,0.0,0.0,0.0,0.0,0.0,0.0,0.0,0.0,0.0,0.0,0.0,0.0,0.0,0.0,0.0,0.0,0.0,0.0,0.0,0.0,0.0,0.0,0.0,0.0,0.0,0.0,0.0,0.0,0.0,0.0,0.0,0.0,0.0,0.0,0.0,0.0,0.0,0.0,0.0,0.0,0.0,0.0,0.0,0.0,0.0,0.0,0.0,0.0,0.0,0.0,0.0,0.0,0.0,0.0,0.0,0.0,0.0,0.0,0.0,0.0,0.0,0.0,0.0,0.0,0.0,0.0,0.0,0.0,0.0,0.0,0.0,0.0,0.0,0.0,0.0,0.0,0.0,0.0,0.0,0.0,0.0,0.0,0.0,0.0,0.0,0.0,0.0,0.0,0.0,0.0,0.0,0.0,0.0,0.0,0.0,0.0,0.0,0.0,0.0,0.0,0.0,0.0,0.0,0.0,0.0,0.0,0.0,0.0,0.0,0.0,0.0,0.0,0.0,0.0,0.0,0.0,0.0,0.0,0.0,0.0,0.0,0.0,0.0,0.0,0.0,0.0,0.0,0.0,0.0,0.0,0.0,0.0,0.0,0.0,0.0,0.0,0.0,0.0,0.0,0.0,0.0,0.0,0.0,0.0,0.0,0.0,0.0,0.0,0.0,0.0,0.0,0.0,0.0,0.0,0.0,0.0,0.0,0.0,0.0,0.0,0.0,0.0,0.0,0.0,0.0,0.0,0.0,0.0,0.0,0.0,0.0,0.0,0.0,0.0,0.0,0.0,0.0,0.0,0.0,0.0,0.0,0.0,0.0,0.0,0.0,0.0,0.0,0.0,0.0,0.0,0.0,0.0,0.0,0.0,0.0,0.0,0.0,0.0,0.0,0.0,0.0,0.0,0.0,0.0,0.0,0.0,0.0,0.0,0.0,0.0,0.0,0.0,0.0,0.0,0.0,0.0,0.0,0.0,0.0,0.0,0.0,0.0,0.0,0.0,0.0,0.0,0.0,0.0,0.0,0.0,0.0,0.0,0.0,0.0,0.0,0.0,0.0,0.0,0.0,0.0,0.0,0.0,0.0,0.0,0.0,0.0,0.0,0.0,0.0,0.0,0.0,0.0,0.0,0.0,0.0,0.0,0.0,0.0,0.0,0.0,0.0,0.0,0.0,0.0,0.0,0.0,0.0,0.0,0.0,0.0,0.0,0.0,0.0,0.0,0.0,0.0,0.0,0.0,0.0,0.0,0.0,0.0,0.0,0.0,0.0,0.0,0.0,0.0,0.0,0.0,0.0,0.0,0.0,0.0,0.0,0.0,0.0,0.0,0.0,0.0,0.0,0.0,0.0,0.0,0.0,0.0,0.0,0.0,0.0,0.0,0.0,0.0,0.0,0.0,0.0,0.0,0.0,0.0,0.0,0.0,0.0,0.0,0.0,0.0,0.0,0.0,0.0,0.0,0.0,0.0,0.0,0.0,0.0,0.0,0.0,0.0,0.0,0.0,0.0,0.0,0.0,0.0,0.0,0.0,0.0,0.0,0.0,0.0,0.0,0.0,0.0,0.0,0.0,0.0,0.0,0.0,0.0,0.0,0.0,0.0,0.0,0.0,0.0,0.0,0.0,0.0,0.0,0.0,0.0,0.0,0.0,0.0,0.0,0.0,0.0,0.0,0.0,0.0,0.0,0.0,0.0,0.0,0.0,0.0,0.0,0.0,0.0,0.0,0.0,0.0,0.0,0.0,0.0,0.0,0.0,0.0,0.0,0.0,0.0,0.0,0.0,0.0,0.0,0.0,0.0,0.0,0.0,0.0,0.0,0.0,0.0,0.0,0.0,0.0,0.0,0.0,0.0,0.0,0.0,0.0,0.0,0.0,0.0,0.0,0.0,0.0,0.0,0.0,0.0,0.0,0.0,0.0,0.0,0.0,0.0,0.0,0.0,0.0,0.0,0.0,0.0,0.0,0.0,0.0,0.0,0.0,0.0,0.0,0.0,0.0,0.0,0.0,0.0,0.0,0.0,0.0,0.0,0.0,0.0,0.0,0.0,0.0,0.0,0.0,0.0,0.0,0.0,0.0,0.0,0.0,0.0,0.0,0.0,0.0,0.0,0.0,0.0,0.0,0.0,0.0,0.0,0.0,0.0,0.0,0.0,0.0,0.0,0.0,0.0,0.0,0.0,0.0,0.0,0.0,0.0,0.0,0.0,0.0,0.0,0.0,0.0,0.0,0.0,0.0,0.0,0.0,0.0,0.0,0.0,0.0,0.0,0.0,0.0,0.0,0.0,0.0,0.0,0.0,0.0,0.0,0.0,0.0,0.0,0.0,0.0,0.0,0.0,0.0,0.0,0.0,0.0,0.0,0.0,0.0,0.0,0.0,0.0,0.0,0.0,0.0,0.0,0.0,0.0,0.0,0.0,0.0,0.0,0.0,0.0,0.0,0.0,0.0,0.0,0.0,0.0,0.0,0.0,0.0,0.0,0.0,0.0,0.0,0.0,0.0,0.0,0.0,0.0,0.0,0.0,0.0,0.0,0.0,0.0,0.0,0.0,0.0,0.0,0.0,0.0,0.0,0.0,0.0,0.0,0.0,0.0,0.0,0.0,0.0,0.0,0.0,0.0,0.0,0.0,0.0,0.0,0.0,0.0,0.0,0.0,0.0,0.0,0.0,0.0,0.0,0.0,0.0,0.0,0.0,0.0,0.0,0.0,0.0,0.0,-0.3657,0.0,0.0,0.0,0.0,0.0,0.0,0.0,0.0,0.0,0.0,0.0,0.0,0.0,0.0,0.0,0.0,0.0,0.0,0.0,0.0,0.0,0.0,0.0,0.0,0.0,0.0,0.0,0.0,0.0,0.0,0.0,0.0,0.0,0.0,0.0,0.0,0.0,0.0,0.0,-1.0503,-1.0684,-1.0412,-1.0293,-1.0127,-0.9956,0.0,0.0,0.0,0.0,0.0,0.0,0.0,0.0,0.0,0.0,0.0,0.0,0.0,0.0,0.0,0.0,0.0,0.0,0.0,0.0,0.0,0.0,0.0,0.0,0.0,0.0,0.0,0.0,0.0,0.0,0.0,0.0,0.0,0.0,0.0,0.0,0.0,0.0,0.0,0.0,0.0,0.0,0.0,0.0,0.0,0.0,0.0,0.0,0.0,0.0,0.0,0.0,0.0,0.0,0.0,0.0,0.0,0.0,0.0,0.0,0.0,0.0,0.0,0.0,0.0,0.0,0.0,0.0,0.0,0.0,0.0,-0.3729,0.0,0.0,0.0,0.0,0.0,0.0,0.0,0.0,0.0,0.0,0.0,0.0,0.0,0.0,0.0,0.0,0.0,0.0,0.0,0.0,0.0,0.0,0.0,0.0,0.0,0.0,0.0,0.0,0.0,0.0,0.0,0.0,0.0,0.0,0.0,0.0,0.0,0.0,-1.0453,-1.0432,-0.9944,-0.9804,-0.9333,-0.8618,-0.858,0.0,0.0,0.0,0.0,0.0,0.0,0.0,0.0,0.0,0.0,0.0,0.0,0.0,0.0,0.0,0.0,0.0,0.0,0.0,0.0,0.0,0.0,0.0,0.0,0.0,0.0,0.0,0.0,0.0,0.0,0.0,0.0,0.0,0.0,0.0,0.0,0.0,0.0,0.0,0.0,0.0,0.0,0.0,0.0,0.0,0.0,0.0,0.0,0.0,0.0,0.0,0.0,0.0,0.0,0.0,0.0,0.0,0.0,0.0,0.0,0.0,0.0,0.0,-0.3791,-0.3864,-0.3881,-0.4015,-0.4095,-0.4107,-0.4018,-0.3847,-0.365,0.0,0.0,0.0,0.0,0.0,0.0,0.0,0.0,0.0,0.0,0.0,0.0,0.0,0.0,0.0,0.0,0.0,0.0,0.0,0.0,0.0,0.0,0.0,-0.2825,-0.377,-0.426,0.0,0.0,0.0,0.0,0.0,0.0,0.0,0.0,-0.9257,-0.977,-1.0432,-1.0554,-1.0322,-0.9742,-0.9548,-0.8597,-0.7108,-0.7744,-0.7816,-0.7401,0.0,0.0,0.0,0.0,0.0,0.0,0.0,0.0,0.0,0.0,0.0,0.0,0.0,0.0,0.0,0.0,0.0,0.0,0.0,0.0,0.0,0.0,0.0,0.0,0.0,0.0,0.0,0.0,0.0,0.0,0.0,0.0,0.0,0.0,0.0,0.0,0.0,0.0,0.0,0.0,0.0,0.1348,0.0813,0.0,0.0,0.0,0.0,0.0,0.0,0.0,0.0,0.0,0.0,0.0,0.0,0.0,-0.2355,-0.2927,-0.2986,-0.3241,-0.3695,-0.3709,-0.3724,-0.3745,-0.392,-0.4033,-0.4117,-0.4262,0.0,-0.4517,-0.4272,0.0,0.0,0.0,0.0,0.0,0.0,0.0,0.0,0.0,0.0,0.0,0.0,0.0,0.0,0.0,0.0,0.0,0.0,0.0,0.0,0.0,0.0,-0.459,-0.5567,-0.6034,-0.6418,0.0,0.0,0.0,0.0,0.0,0.0,-0.8958,-0.9377,-0.9863,-1.0332,-1.0377,-0.999,-0.9244,-0.9047,-0.8331,-0.7187,-0.7085,-0.6796,-0.6269,-0.5413,0.0,0.0,0.0,0.0,0.0,0.0,0.0,0.0,0.0,0.0,0.0,0.0,0.0,0.0,0.0,0.0,0.0,0.0,0.0,0.0,0.0,0.0,0.0,0.0,0.0,0.0,0.0,0.0,0.0,0.0,0.0,0.0,0.0,0.0,0.0,0.0,0.0,0.0,0.0,0.2038,0.1512,0.0412,0.0889,0.0767,0.0,0.0,0.0,0.0,0.0,0.0,0.0,0.0,0.0,-0.1599,-0.1795,-0.2151,-0.2675,-0.2859,-0.3134,-0.3537,-0.3697,-0.374,-0.3722,-0.394,-0.4116,-0.4214,-0.4423,-0.4697,-0.4964,-0.4698,-0.4723,-0.4868,0.0,0.0,0.0,0.0,-0.3771,-0.4213,0.0,0.0,0.0,0.0,0.0,0.0,0.0,0.0,0.0,0.0,0.0,0.0,-0.5033,-0.5542,-0.6139,-0.7001,-0.739,-0.7614,-0.7737,0.0,0.0,0.0,0.0,-0.9031,-0.9149,-0.9512,-0.9758,-0.9899,-0.9849,-0.9439,-0.8675,-0.8518,-0.8026,-0.729,-0.6741,-0.6138,-0.5492,-0.4791,-0.426,-0.3781,0.0,0.0,0.0,0.0,0.0,0.0,0.0,0.0,0.0,0.0,0.0,0.0,0.0,0.0,0.0,0.0,0.0,0.0,0.0,0.0,0.0,0.0,0.0,0.0,0.0,0.0,0.0,0.0,0.0,0.0,0.0,0.0,0.0,0.0,0.0,0.0,0.0,0.2187,0.1513,0.0255,0.0784,0.0686,0.0,0.0,0.0,0.0,0.0,0.0,-0.1097,-0.1279,-0.1339,-0.1256,-0.1581,-0.1969,-0.2448,-0.2713,-0.3037,-0.3399,-0.3679,-0.3792,-0.382,-0.4055,-0.4282,-0.4455,-0.4704,-0.4997,-0.5272,-0.5004,-0.4954,-0.499,-0.4499,-0.4426,-0.4566,-0.4336,-0.4682,-0.5358,0.0,0.0,0.0,0.0,0.0,0.0,0.0,0.0,0.0,0.0,0.0,-0.5424,-0.6056,-0.67,-0.7301,-0.7789,-0.7819,-0.7892,0.0,-0.8388,-0.854,-0.8572,-0.8785,-0.9121,-0.9549,-0.9644,-0.9476,-0.9071,-0.8937,-0.8592,-0.8032,-0.8032,-0.7558,-0.6751,-0.6766,-0.6348,-0.5514,-0.44,-0.3571,-0.2895,-0.2078,0.0,0.0,0.0,0.0,0.0,0.0,0.0,0.0,0.0,0.0,0.0,0.0,0.0,0.0,0.0,0.0,0.0,0.0,0.0,0.0,0.0,0.0,0.0,0.0,0.0,0.0,0.0,0.0,0.0,0.0,0.0,0.0,0.0,0.0,0.0,0.0,0.0,0.0,0.0987,0.0441,0.0,0.0,0.0,0.0,-0.0208,-0.0313,-0.0658,-0.1334,-0.1336,-0.1336,-0.1383,-0.1539,-0.1848,-0.2302,-0.2567,-0.293,-0.3412,-0.368,-0.3903,-0.4101,-0.4291,-0.4562,-0.4882,-0.5225,-0.5444,-0.5558,-0.5088,-0.5085,-0.5345,-0.499,-0.5055,-0.5347,-0.5249,-0.5417,-0.5857,0.0,0.0,0.0,0.0,0.0,0.0,0.0,0.0,0.0,-0.5178,-0.6045,-0.6854,-0.7409,-0.7884,-0.8279,-0.8575,-0.8789,-0.8861,-0.8789,0.0,-0.9228,-0.9315,-0.9267,-0.9265,-0.9357,-0.9339,-0.9076,-0.8557,-0.8505,-0.8218,-0.7694,-0.7563,-0.733,-0.6998,-0.6702,-0.6092,-0.5281,-0.4414,-0.346,-0.2514,-0.1743,-0.1157,0.0,0.0,0.0,0.0,0.0,0.0,0.0,0.0,0.0,0.0,0.0,0.0,0.0,0.0,0.0,0.0,0.0,0.0,0.0,0.0,0.0,0.0,0.0,0.0,0.0,0.0,0.0,0.0,0.0,0.0,0.0,0.0,0.0,0.0,0.0,0.0,0.0,0.1449,0.144,0.0,0.0196,0.0497,0.0602,0.0219,0.0,-0.0264,-0.0605,-0.0851,-0.1025,-0.1142,-0.1907,-0.2287,-0.2225,-0.3242,-0.3621,-0.3416,-0.3926,-0.4187,-0.4172,-0.4511,-0.4808,-0.5112,-0.553,-0.5814,-0.5989,-0.5932,-0.5929,-0.5918,-0.5923,-0.5925,-0.592,-0.5984,-0.6091,-0.6366,0.0,0.0,0.0,0.0,0.0,0.0,0.0,0.0,0.0,-0.6255,-0.7073,-0.776,-0.8145,-0.8585,-0.8894,-0.8935,-0.9308,-0.9388,-0.9095,0.0,-0.9768,-0.9599,-0.9452,-0.9296,-0.9071,-0.9015,-0.8745,-0.8187,-0.8072,-0.7765,-0.7228,-0.704,-0.6876,-0.6736,-0.6318,-0.5677,-0.4933,-0.426,-0.3355,-0.2259,-0.1556,-0.0808,-0.0065,0.0,0.0,0.0,0.0,0.0,0.0,0.0,0.0,0.0,0.0,0.0,0.0,0.0,0.0,0.0,0.0,0.0,0.0,0.0,0.0,0.0,0.0,0.0,0.0,0.0,0.0,0.0,0.0,0.0,0.0,0.0,0.0,0.0,0.0,0.0,0.238,0.1888,0.1962,0.1721,0.0827,0.1053,0.112,0.076,0.0476,0.0183,-0.0115,-0.0594,-0.0923,-0.1068,-0.1935,-0.2382,-0.234,-0.3419,-0.3844,-0.3624,-0.4181,-0.4425,-0.4455,-0.4807,-0.5115,-0.5438,-0.5939,-0.6268,-0.6445,-0.6722,-0.6787,-0.6679,-0.6362,-0.6132,-0.5957,-0.5869,-0.583,-0.602,0.0,0.0,0.0,0.0,0.0,0.0,0.0,0.0,0.0,-0.684,-0.7584,-0.8142,-0.8128,-0.8753,-0.9077,-0.8819,-0.9284,-0.9417,-0.9034,-0.9799,-0.9996,-0.9408,-0.9395,-0.9216,-0.8786,-0.8799,-0.8513,-0.7981,-0.765,-0.7203,-0.6671,-0.6482,-0.6185,-0.5881,-0.5653,-0.5147,-0.4394,-0.3929,-0.3117,-0.2041,-0.1431,-0.0382,0.0854,0.0,0.0,0.0,0.0,0.0,0.0,0.0,0.0,0.0,0.0,0.0,0.0,0.0,0.0,0.0,0.0,0.0,0.0,0.0,0.0,0.0,0.0,0.0,0.0,0.0,0.0,0.0,0.0,0.0,0.0,0.0,0.0,0.0,0.4041,0.3138,0.2472,0.2335,0.1917,0.1584,0.1456,0.1772,0.1817,0.1414,0.107,0.0619,0.0,-0.0644,-0.1061,-0.1187,-0.1619,-0.2085,-0.2583,-0.3086,-0.357,-0.3993,-0.4325,-0.4629,-0.4897,-0.5171,-0.5481,-0.5854,-0.6463,-0.6788,-0.6933,-0.7327,-0.7568,-0.7571,-0.628,-0.5696,-0.5513,-0.5011,-0.4748,-0.4948,0.0,0.0,0.0,0.0,0.0,0.0,0.0,0.0,-0.7438,-0.725,-0.8157,-0.8729,-0.8429,-0.8826,-0.8998,-0.8675,-0.8865,-0.907,-0.9215,0.0,-0.9254,-0.8915,-0.9064,-0.8953,-0.8511,-0.8374,-0.81,-0.7724,-0.7199,-0.6688,-0.6243,-0.5947,-0.5723,-0.5524,-0.5186,-0.4246,-0.2958,-0.2564,-0.1533,-0.0119,-0.0384,0.0207,0.1282,0.0,0.0,0.0,0.0,0.0,0.0,0.0,0.0,0.0,0.0,0.0,0.0,0.0,0.0,0.0,0.0,0.0,0.0,0.0,0.0,0.0,0.0,0.0,0.0,0.0,0.0,0.0,0.0,0.0,0.0,0.0,0.0,0.5255,0.3961,0.3296,0.2906,0.2821,0.2655,0.2544,0.2566,0.2125,0.1634,0.1072,0.0684,0.0144,-0.062,-0.1003,-0.1181,-0.1128,-0.2279,-0.2703,-0.232,-0.3638,-0.4149,-0.3855,-0.4049,-0.4408,-0.4897,-0.5081,-0.55,-0.6119,-0.6734,-0.7004,-0.7058,-0.7381,-0.7622,-0.7839,-0.7706,-0.7511,-0.7327,-0.7367,-0.7619,-0.8018,0.0,0.0,0.0,0.0,0.0,0.0,0.0,0.0,-0.7543,-0.7364,-0.8197,-0.8683,-0.8376,-0.8668,-0.8751,-0.8456,-0.8678,-0.8896,-0.9,0.0,-0.8716,-0.8749,-0.8635,-0.8508,-0.8415,-0.8106,-0.7833,-0.7573,-0.696,-0.6391,-0.5877,-0.5514,-0.5078,-0.4589,-0.4256,-0.3255,-0.1736,-0.1424,-0.0308,0.1229,0.1035,0.1291,0.1809,0.2476,0.2899,0.3224,0.3651,0.3773,0.3739,0.3797,0.0,0.0,0.0,0.0,0.0,0.0,0.0,0.0,0.0,0.0,0.0,0.0,0.0,0.0,0.0,0.0,0.0,0.0,0.0,0.0,0.0,0.0,0.0,0.0,0.6438,0.6146,0.5027,0.44,0.3989,0.3781,0.3589,0.3379,0.31,0.2426,0.1737,0.1044,0.037,-0.0277,-0.0902,-0.1495,-0.1768,-0.1687,-0.2626,-0.2961,-0.2575,-0.3688,-0.4138,-0.3965,-0.4132,-0.4491,-0.4987,-0.5281,-0.5637,0.0,-0.6744,-0.7004,-0.7031,-0.7311,-0.758,0.0,0.0,0.0,0.0,0.0,-0.7841,-0.8772,0.0,0.0,0.0,0.0,0.0,0.0,0.0,0.0,-0.7401,-0.7256,-0.7907,-0.8293,-0.8077,-0.8342,-0.8462,-0.8166,-0.8589,-0.8777,-0.857,-0.8307,-0.828,-0.8625,-0.8054,-0.7897,-0.8244,-0.7857,-0.7572,-0.7331,-0.6737,-0.6093,-0.5431,-0.5039,-0.4319,-0.3384,-0.3184,-0.218,-0.0644,-0.0353,0.0746,0.2255,0.2647,0.2635,0.2456,0.314,0.3453,0.3617,0.4268,0.3981,0.3375,0.3707,0.0,0.0,0.0,0.0,0.0,0.0,0.0,0.0,0.0,0.0,0.0,0.0,0.0,0.0,0.0,0.0,0.0,0.0,0.0,0.0,0.0,0.0,0.0,0.0,0.7061,0.696,0.6634,0.6046,0.5453,0.4907,0.4504,0.4009,0.3293,0.2563,0.184,0.1039,0.0078,-0.0638,-0.1099,0.0,0.0,0.0,0.0,-0.2955,-0.3053,-0.348,-0.3873,-0.421,-0.4414,-0.474,-0.5183,-0.5544,-0.5755,-0.5873,-0.6527,-0.6825,-0.6852,-0.7095,-0.7381,-0.7655,-0.7287,-0.7085,-0.6881,-0.6157,-0.6912,-0.83,0.0,0.0,0.0,0.0,0.0,0.0,0.0,0.0,-0.7143,-0.6999,-0.7658,-0.8034,-0.7655,-0.8048,-0.8216,-0.7834,-0.8263,-0.8517,-0.8355,-0.8399,-0.8138,-0.7545,-0.7548,-0.7425,-0.7194,-0.6949,-0.6656,-0.6291,-0.5636,-0.5037,-0.4463,-0.3992,-0.3473,-0.2854,-0.2522,-0.1237,0.0729,0.0843,0.1975,0.3726,0.3958,0.3813,0.3527,0.3886,0.4161,0.438,0.4536,0.459,0.4638,0.459,0.4344,0.4046,0.3939,0.3767,0.0,0.0,0.0,0.0,0.0,0.0,0.0,0.0,0.0,0.0,0.0,0.0,0.0,0.0,0.0,0.0,0.0,0.0,0.0,0.7716,0.767,0.752,0.7195,0.7111,0.6597,0.5278,0.4578,0.3984,0.3332,0.2112,0.1021,0.0262,-0.0423,-0.1104,-0.1771,-0.198,-0.2069,-0.2009,-0.2706,-0.3006,-0.2869,-0.377,-0.4285,-0.4375,0.0,0.0,-0.5498,-0.5326,-0.5563,-0.6119,-0.6273,-0.6408,-0.649,-0.6436,-0.6858,-0.7584,-0.7992,-0.8307,-0.8527,-0.8395,-0.8804,-0.9478,0.0,0.0,0.0,0.0,0.0,0.0,0.0,0.0,-0.6694,-0.6791,-0.7309,-0.7572,-0.7317,-0.7609,-0.7704,-0.7508,-0.7974,-0.807,-0.7694,-0.7782,-0.7533,-0.6787,-0.6845,-0.6806,-0.6648,-0.6373,-0.5952,-0.5512,-0.4902,-0.4277,-0.37,-0.3136,-0.2551,-0.1882,-0.1445,-0.0269,0.1374,0.1884,0.2767,0.3887,0.4492,0.4357,0.384,0.4349,0.4448,0.4332,0.4649,0.4673,0.4552,0.4552,0.4343,0.4082,0.3932,0.3958,0.4001,0.0,0.0,0.0,0.0,0.0,0.0,0.0,0.0,0.0,0.0,0.0,0.0,0.0,0.0,0.797,0.0,0.0,0.8322,0.8261,0.8276,0.8152,0.766,0.737,0.6775,0.564,0.4938,0.4069,0.2856,0.1803,0.0963,0.0381,-0.0545,-0.1211,-0.1425,-0.2044,-0.2456,-0.2583,-0.3015,-0.3213,-0.311,-0.372,-0.4142,-0.4291,-0.4445,-0.4784,-0.5345,-0.5174,-0.5413,-0.6015,-0.5999,-0.6137,-0.6341,-0.642,-0.6777,-0.7365,-0.8033,-0.8549,-0.8883,-0.8817,-0.9133,-0.9632,0.0,0.0,0.0,0.0,0.0,0.0,0.0,0.0,0.0,-0.6521,-0.6867,-0.7042,-0.6947,-0.7142,-0.728,0.0,-0.7659,-0.7583,-0.692,-0.7035,-0.6846,-0.615,-0.6156,-0.6114,-0.6068,-0.5717,-0.5217,-0.4644,-0.4152,-0.3549,-0.29,-0.2296,-0.1611,-0.0908,-0.037,0.0537,0.1714,0.2506,0.3099,0.36,0.4425,0.4345,0.3757,0.4364,0.4328,0.3981,0.447,0.4393,0.4058,0.4199,0.4092,0.3874,0.3849,0.412,0.4429,0.4329,0.4622,0.0,0.0,0.0,0.0,0.0,0.0,0.0,0.0,0.0,0.8238,0.8187,0.8317,0.8377,0.8147,0.8508,0.8789,0.8636,0.8736,0.8632,0.7996,0.7414,0.673,0.5853,0.5105,0.4009,0.2286,0.1546,0.1017,0.0592,-0.0569,-0.12,-0.0969,-0.2044,-0.2824,-0.3143,-0.3315,-0.3396,-0.3415,-0.3757,-0.401,-0.4225,-0.4522,-0.4833,-0.5152,-0.5161,-0.5374,-0.5773,-0.58,-0.5927,-0.6182,-0.6603,-0.6949,-0.7235,-0.7993,-0.8558,-0.8951,-0.8857,-0.9138,-0.9655,0.0,0.0,0.0,0.0,0.0,0.0,0.0,0.0,0.0,-0.6054,-0.6379,-0.6521,-0.6416,0.0,-0.7258,-0.7544,-0.7445,-0.7131,-0.6517,-0.6761,-0.6485,-0.5446,-0.5577,-0.5434,-0.4908,-0.4661,-0.4157,-0.3313,-0.3018,-0.2515,-0.1855,-0.1264,-0.0775,-0.037,0.0168,0.094,0.1874,0.2093,0.2592,0.3263,0.3425,0.3456,0.3362,0.351,0.3589,0.3666,0.3732,0.3782,0.3853,0.3997,0.3924,0.3859,0.4221,0.4431,0.4552,0.435,0.488,0.549,0.5394,0.619,0.7101,0.7277,0.7864,0.8378,0.0,0.0,0.8749,0.8495,0.869,0.8842,0.8593,0.8777,0.8883,0.8633,0.8802,0.8715,0.8018,0.7748,0.7077,0.5698,0.458,0.3367,0.1986,0.1179,0.0585,0.0117,-0.0722,-0.1193,-0.1161,-0.1867,-0.2392,-0.2681,-0.3138,-0.3443,-0.3496,-0.4279,-0.4531,-0.4306,-0.4976,-0.5293,-0.5269,-0.5327,-0.5457,-0.5631,-0.5749,-0.5741,-0.5757,-0.6666,-0.7209,-0.7523,-0.8259,-0.8986,-0.9579,-0.9579,-0.9883,-1.0342,0.0,0.0,0.0,0.0,0.0,0.0,0.0,0.0,0.0,0.0,0.0,-0.5918,-0.5733,-0.6171,-0.6585,-0.6863,-0.6892,-0.655,-0.5694,-0.578,-0.5392,-0.4399,-0.4323,-0.4114,-0.3718,-0.3294,-0.2745,-0.2039,-0.1554,-0.1037,-0.0513,0.0034,0.0471,0.084,0.1277,0.1747,0.2217,0.2589,0.2792,0.295,0.3401,0.3296,0.2915,0.328,0.3338,0.3261,0.3217,0.3222,0.0,0.0,0.3649,0.3835,0.4308,0.4558,0.4655,0.4562,0.4961,0.5527,0.5977,0.6497,0.6989,0.7405,0.797,0.8485,0.8728,0.8848,0.8941,0.9101,0.9113,0.9133,0.9171,0.9211,0.9133,0.0,0.8936,0.8754,0.7711,0.74,0.6852,0.5702,0.5097,0.4006,0.2009,0.1973,0.1716,0.0755,-0.0123,-0.0586,-0.0493,-0.1348,-0.2067,-0.2581,-0.2981,-0.3123,-0.3025,-0.3699,-0.3964,-0.3828,-0.4382,-0.4803,-0.5071,-0.4886,-0.4941,-0.5222,-0.5655,-0.5763,-0.5661,-0.6593,-0.722,-0.7647,-0.8567,-0.9258,-0.9715,-0.9802,-1.0165,-1.0686,0.0,0.0,0.0,0.0,0.0,0.0,0.0,0.0,0.0,0.0,0.0,0.0,0.0,0.0,-0.5925,-0.6034,-0.6156,-0.5831,-0.4884,-0.4776,-0.4349,-0.3533,-0.3212,-0.2935,-0.2635,-0.2094,-0.1542,-0.0956,-0.0345,0.017,0.0538,0.1076,0.1479,0.1783,0.2085,0.229,0.2421,0.2769,0.2736,0.2515,0.3107,0.2974,0.2496,0.2962,0.3002,0.2797,0.2722,0.2794,0.0,0.2958,0.3167,0.3519,0.3983,0.4297,0.4493,0.4587,0.4994,0.5594,0.6427,0.68,0.7084,0.7653,0.8193,0.8693,0.9019,0.9102,0.9184,0.9492,0.9406,0.9382,0.9573,0.9463,0.9253,0.8964,0.9012,0.8717,0.757,0.7429,0.7099,0.6104,0.6227,0.5344,0.2666,0.2834,0.2513,0.106,0.022,-0.019,-0.0126,-0.0998,-0.1794,-0.2383,-0.2696,-0.282,-0.2787,-0.3324,-0.3549,-0.3512,-0.3945,-0.4368,-0.4713,-0.464,-0.4753,-0.5078,-0.5665,-0.5864,-0.5902,-0.6819,-0.7502,-0.803,-0.9039,-0.9627,-0.9986,-1.0164,-1.0507,-1.0944,0.0,0.0,0.0,0.0,0.0,0.0,0.0,0.0,0.0,0.0,0.0,0.0,0.0,0.0,-0.5414,-0.5162,-0.5273,-0.4989,-0.4169,-0.396,-0.358,-0.2953,-0.2495,-0.2056,-0.1634,-0.1242,-0.0745,-0.0142,0.0389,0.08,0.1076,0.1615,0.1985,0.2186,0.2186,0.229,0.2385,0.2223,0.2065,0.1936,0.2084,0.2112,0.2044,0.239,0.2434,0.2303,0.2237,0.0,0.2829,0.2315,0.241,0.2787,0.3138,0.3563,0.3979,0.4307,0.502,0.5853,0.6592,0.7278,0.7898,0.8425,0.8959,0.9366,0.9392,0.9496,0.9547,0.9432,0.951,0.9611,0.9685,0.9448,0.922,0.9195,0.9036,0.8631,0.7813,0.8244,0.8235,0.7101,0.7937,0.7361,0.0,0.3439,0.2337,0.0451,-0.0066,-0.0336,-0.0471,-0.1007,-0.151,-0.1915,-0.2251,-0.2619,-0.2991,-0.3522,-0.3689,-0.3493,-0.4051,-0.4317,-0.4328,-0.4848,-0.5173,-0.5411,-0.5749,-0.6079,-0.6465,-0.7544,-0.8291,-0.8839,-0.9652,-1.0225,-1.0591,-1.0937,-1.1081,-1.1196,0.0,0.0,0.0,0.0,0.0,0.0,0.0,0.0,0.0,0.0,0.0,0.0,0.0,0.0,0.0,0.0,-0.4539,-0.4423,-0.3629,-0.3246,-0.2865,-0.2397,-0.1653,-0.1239,-0.1134,-0.0381,0.0103,0.0308,0.1336,0.1874,0.1985,0.2522,0.279,0.2857,0.2757,0.2757,0.2757,0.233,0.2104,0.2006,0.1902,0.1784,0.1681,0.1937,0.2079,0.2119,0.0,0.0,0.1821,0.1683,0.1902,0.2335,0.2952,0.3432,0.3911,0.4654,0.5247,0.5898,0.6879,0.7674,0.8423,0.9058,0.963,1.0106,1.0175,1.007,0.9994,1.0269,0.9948,0.9664,0.9903,0.9394,0.8805,0.8419,0.8384,0.8148,0.7341,0.771,0.7747,0.6957,0.6932,0.0,0.0,0.0,0.0,0.1886,0.1367,0.0972,0.0571,-0.0537,-0.1424,-0.1936,-0.2036,-0.2206,-0.2454,-0.2883,-0.3088,-0.3192,-0.3794,-0.4061,-0.3995,-0.4528,-0.4728,-0.47,-0.5392,-0.5881,-0.6276,-0.7489,-0.8312,-0.8861,-0.9696,-1.0238,-1.0649,-1.109,-1.1171,-1.1107,0.0,0.0,0.0,0.0,0.0,0.0,0.0,0.0,0.0,0.0,0.0,0.0,0.0,0.0,0.0,0.0,0.0,-0.3496,-0.2848,-0.2419,-0.203,-0.1686,-0.087,-0.0447,-0.0433,0.0257,0.0668,0.0743,0.1605,0.1984,0.1961,0.2532,0.2781,0.2787,0.2828,0.2795,0.2683,0.2228,0.1727,0.1268,0.1505,0.1319,0.0967,0.1505,0.1774,0.0,0.0,0.1309,0.1345,0.1359,0.1657,0.2138,0.2949,0.3768,0.455,0.5105,0.5755,0.6432,0.7227,0.811,0.8951,0.9644,1.0164,1.0537,1.0737,1.0415,1.0183,1.0515,0.994,0.9453,0.9658,0.9126,0.8523,0.8137,0.8138,0.7962,0.7239,0.7573,0.7587,0.6809,0.6434,0.5539,0.0,0.0,0.0,0.1846,0.1741,0.1378,0.0442,-0.0545,-0.1347,-0.1882,-0.1853,-0.1993,-0.2346,-0.2526,-0.2747,-0.2991,-0.3426,-0.3694,-0.3823,-0.4161,-0.4361,-0.4434,-0.512,-0.5749,-0.6408,-0.7456,-0.8333,-0.9055,-0.9728,-1.0206,-1.0541,-1.0964,-1.1056,-1.1092,0.0,0.0,0.0,0.0,0.0,0.0,0.0,0.0,0.0,0.0,0.0,0.0,0.0,0.0,0.0,0.0,0.0,0.0,-0.1877,-0.1473,-0.114,-0.0865,-0.0144,0.0293,0.041,0.0767,0.1,0.1163,0.1268,0.1242,0.1091,0.1747,0.2012,0.1993,0.2368,0.241,0.2159,0.1914,0.1017,-0.0125,0.0957,0.0762,-0.0029,0.1103,0.0,0.0,0.0,0.1286,0.1343,0.1311,0.166,0.224,0.3187,0.4562,0.5768,0.5664,0.6434,0.7369,0.7664,0.8505,0.9494,1.0221,1.0485,1.068,1.095,1.0498,1.0057,1.0099,0.9462,0.8911,0.0,0.0,0.8361,0.8353,0.8237,0.7971,0.7458,0.7803,0.7725,0.0,0.0,0.0,0.0,0.0,0.0,0.0439,0.0,0.0916,-0.0664,-0.0982,-0.1279,-0.1679,-0.1679,-0.1968,-0.2554,-0.2524,-0.2664,-0.2961,-0.2991,-0.3259,-0.3761,-0.3761,-0.4056,-0.4595,-0.4921,-0.5683,-0.6736,-0.7414,-0.8323,-0.9344,-0.9824,-1.0142,-1.0401,-1.0695,-1.0899,-1.1123,0.0,0.0,0.0,0.0,0.0,0.0,0.0,0.0,0.0,0.0,0.0,0.0,0.0,0.0,0.0,0.0,0.0,0.0,-0.1328,-0.0881,-0.0543,-0.0389,0.034,0.0719,0.0711,0.1167,0.1211,0.0741,0.1369,0.1388,0.0896,0.1149,0.1339,0.1474,0.1584,0.1642,0.1682,0.1721,0.147,0.1053,0.0,0.0975,0.0547,0.0,0.0,0.0,0.0512,0.0546,0.0601,0.1187,0.2189,0.3362,0.431,0.5156,0.5829,0.6,0.6786,0.7691,0.8103,0.8978,0.9824,1.0097,1.0485,1.0637,1.0164,0.949,0.8968,0.8944,0.83,0.7776,0.0,0.0,0.0,0.7558,0.7474,0.0,0.7281,0.7237,0.0,0.5748,0.0,0.3903,0.2646,0.2473,0.0,0.0,0.0794,0.1349,0.1324,-0.0249,-0.1278,-0.1537,-0.1399,-0.1546,-0.1989,-0.219,-0.2409,-0.263,-0.2713,-0.2921,-0.3222,-0.3293,-0.3594,-0.4023,-0.4628,-0.5484,-0.6531,-0.7349,-0.8323,-0.9344,-0.9824,-1.0364,-1.0892,-1.1059,-1.121,-1.1443,0.0,0.0,0.0,0.0,0.0,0.0,0.0,0.0,0.0,0.0,0.0,0.0,0.0,0.0,0.0,0.0,0.0,0.0,0.0,0.0192,0.0416,0.0589,0.103,0.1264,0.1242,0.1597,0.145,0.0818,0.1088,0.0835,0.0102,0.0513,0.0769,0.0923,0.1315,0.1518,0.1597,0.1673,0.0,0.0,0.0,0.0,0.0,0.0,0.0,0.0108,0.0283,0.0448,0.0758,0.1768,0.2937,0.4161,0.5306,0.6074,0.6592,0.6802,0.748,0.8235,0.8421,0.922,1.0029,1.0179,1.0485,1.0637,1.0379,0.9434,0.858,0.8555,0.7589,0.6744,0.6766,0.6998,0.7088,0.0,0.0,0.0,0.7194,0.6969,0.6375,0.0,0.4278,0.0,0.2015,0.1947,0.1518,0.0,0.0843,0.1021,0.0686,-0.0514,-0.1314,-0.1539,-0.1368,-0.1353,-0.164,-0.1955,-0.2186,-0.2373,-0.244,-0.2656,-0.2991,-0.2991,-0.3288,-0.3823,0.0,-0.5312,-0.6597,-0.7284,-0.8291,-0.9428,-0.9951,-1.046,-1.1003,-1.1152,-1.1362,-1.1595,0.0,0.0,0.0,0.0,0.0,0.0,0.0,0.0,0.0,0.0,0.0,0.0,0.0,0.0,0.0,0.0,0.0,0.0,0.0,0.0,0.0,0.1742,0.1906,0.1977,0.193,0.2048,0.1787,0.1118,0.0718,0.0093,-0.0717,-0.012,0.024,0.0453,0.1227,0.0,0.0,0.0,0.0,0.0,0.0,0.0,0.0,0.0,0.0,0.0,0.0337,0.0657,0.1242,0.2403,0.3481,0.4591,0.5977,0.6886,0.7515,0.7702,0.826,0.8831,0.8725,0.9394,1.0124,1.027,1.0396,1.0519,1.0744,0.9479,0.8288,0.826,0.6908,0.571,0.5664,0.6053,0.6366,0.6378,0.0,0.7151,0.7135,0.6876,0.6178,0.4882,0.4112,0.3115,0.1676,0.1785,0.163,0.0877,0.0858,0.0324,-0.0944,-0.1139,-0.1306,-0.1571,-0.137,-0.1302,-0.1357,-0.1748,-0.1986,-0.2132,-0.2158,-0.2455,-0.2958,-0.2787,-0.3088,-0.3823,-0.4189,0.0,-0.6416,-0.7177,-0.8173,-0.9305,-1.0053,-1.0618,-1.1006,-1.1207,-1.1475,-1.1819,0.0,0.0,0.0,0.0,0.0,0.0,0.0,0.0,0.0,0.0,0.1031,0.0,0.0,0.0,0.0,0.0,0.0,0.0,0.0,0.0,0.0,0.0,0.2808,0.2853,0.2623,0.2697,0.2237,0.1183,0.0787,0.027,-0.0313,-0.0568,-0.0277,0.0494,0.0814,0.1111,0.0,0.0,0.0,0.0,0.0,0.0,0.0,0.0,0.0,0.0,0.0259,0.0513,0.0938,0.1543,0.2794,0.4285,0.5525,0.6568,0.7446,0.7955,0.856,0.9071,0.9214,0.9662,1.0038,0.9787,0.9772,0.9669,0.9271,0.7869,0.0,0.6465,0.5317,0.4463,0.4822,0.5368,0.5836,0.6122,0.6328,0.6538,0.6759,0.6581,0.5947,0.0,0.388,0.2909,0.1327,0.1156,0.0,0.0,0.0,0.0075,-0.0113,-0.0848,-0.1291,-0.1335,-0.1271,-0.1215,-0.1241,-0.1407,-0.1616,-0.1775,-0.1905,-0.222,-0.2753,-0.272,-0.3088,-0.3823,-0.445,0.0,-0.4734,-0.7104,-0.7941,-0.7975,-0.9951,-1.1185,-1.1858,-1.1741,-1.2019,-1.2494,0.0,0.0,0.0,0.0,0.0,0.0,0.0,0.0,0.0,0.0,0.2543,0.2158,0.0,0.0,0.0,0.0,0.0,0.0,0.0,0.0,0.0,0.0,0.0,0.0,0.0,0.3192,0.2566,0.1244,0.0,0.0716,-0.0359,-0.0089,0.0271,0.0714,0.1061,0.1382,0.1667,0.1838,0.1739,0.1484,0.1146,0.1045,0.0,0.0,0.0,0.0,0.0,0.0555,0.0657,0.1051,0.198,0.3261,0.4985,0.5919,0.6534,0.7381,0.7973,0.8425,0.8646,0.9216,0.9698,0.9527,0.9484,0.9235,0.8212,0.6938,0.0,0.5191,0.4231,0.3591,0.395,0.4615,0.5228,0.5712,0.6045,0.6366,0.6735,0.6317,0.5778,0.5217,0.4308,0.3271,0.0,0.2148,0.1555,0.0,0.0,0.0308,-0.0386,-0.0976,-0.1139,-0.0786,-0.1035,-0.1091,-0.0854,-0.1215,-0.1496,-0.1646,-0.193,-0.2287,-0.272,-0.2887,-0.3288,-0.3928,-0.4522,0.0,-0.5843,-0.7432,-0.8462,-0.9138,-1.0506,-1.1474,-1.2112,-1.223,-1.2489,-1.2884,0.0,0.0,0.0,0.0,0.0,0.0,0.0,0.3064,0.3251,0.3931,0.3871,0.3488,0.2822,0.2711,0.2943,0.0,0.0,0.0,0.0,0.0,0.0,0.0,0.0,0.0,0.0,0.0,0.0,0.1472,0.1666,0.0,0.0,0.0,0.0,0.0,0.1545,0.1839,0.204,0.2018,0.1884,0.0,0.0,0.1366,0.0,0.0,0.0,0.0,0.0,0.0623,0.043,0.0694,0.1233,0.2125,0.4002,0.4894,0.5483,0.6578,0.7295,0.7749,0.8037,0.8791,0.9465,0.9356,0.929,0.8895,0.7538,0.6488,0.5486,0.4463,0.3595,0.3134,0.3436,0.4017,0.4676,0.0,0.584,0.6196,0.6515,0.6043,0.5575,0.0,0.4485,0.0,0.2625,0.2941,0.0,0.0,0.0,0.0,-0.0746,-0.1094,-0.0975,-0.0429,-0.0908,-0.0996,-0.0614,-0.1091,-0.1409,-0.1615,-0.1951,-0.2354,-0.2787,-0.3125,-0.3594,-0.4161,-0.4761,0.0,0.0,-0.7872,-0.9018,-1.0202,-1.1133,-1.1828,-1.2356,-1.2692,-1.2955,-1.3272,0.0,0.0,0.0,0.0,0.0,0.0,0.0,0.4494,0.4566,0.4459,0.4692,0.4683,0.4256,0.4037,0.4081,0.0,0.0,0.0,0.0,0.0,0.0,0.0,0.0,0.0,0.0,0.0,0.0,0.2025,0.1584,0.0,0.0,0.0,0.0,0.0,0.0,0.2148,0.2178,0.204,0.0,0.0,0.0,0.0,0.0,0.0,0.0,0.0,0.0,0.0616,0.0408,0.0435,0.0779,0.1311,0.206,0.3307,0.4745,0.5946,0.6973,0.7771,0.802,0.8965,0.9724,0.9176,0.8936,0.858,0.7534,0.647,0.5466,0.4567,0.3746,0.3311,0.3699,0.3875,0.4295,0.0,0.0,0.5678,0.5468,0.573,0.5308,0.3487,0.0,0.0,0.1282,0.2004,0.0,0.0,0.0,0.0,-0.0549,-0.0808,-0.0912,-0.0836,-0.1015,-0.1092,-0.1054,-0.1095,-0.128,-0.1615,-0.1817,-0.2287,-0.2991,-0.3322,-0.3856,-0.4595,-0.5444,0.0,0.0,-0.8249,-0.9174,-0.9084,-1.1197,-1.2409,-1.3004,-1.3135,-1.3388,-1.3826,0.0,0.0,0.0,0.0,0.0,0.0,0.0,0.4755,0.4727,0.5224,0.512,0.4974,0.4893,0.4849,0.4884,0.0,0.0,0.0,0.0,0.0,0.0,0.0,0.0,0.0,0.0,0.0,0.3096,0.1851,0.1808,0.0,0.0,0.0,0.0,0.0,0.0,0.2241,0.2201,0.2134,0.0,0.0,0.0,0.0,0.0,0.0,0.0,0.0,0.0,0.0,0.0491,0.0277,0.0551,0.1033,0.1275,0.2035,0.3123,0.458,0.58,0.6768,0.7101,0.8125,0.9058,0.8818,0.8659,0.809,0.6369,0.5608,0.4867,0.3375,0.293,0.2892,0.3266,0.3493,0.3905,0.0,0.0,0.0,0.5894,0.5726,0.5358,0.4821,0.4211,0.0,0.0,0.0,0.0,0.0,0.0,0.0,-0.0039,-0.0575,-0.0795,-0.053,-0.09,-0.1086,-0.1086,-0.1193,-0.1479,-0.1951,-0.2253,-0.272,-0.3322,-0.3761,-0.4395,-0.5126,-0.5749,0.0,0.0,-0.8631,-0.9451,-0.9355,-1.1839,-1.2946,-1.3211,-1.3729,-1.4018,-1.4251,0.0,0.0,0.0,0.0,0.0,0.0,0.571,0.5545,0.5513,0.6001,0.5766,0.5499,0.536,0.5415,0.5469,0.5501,0.0,0.0,0.0,0.0,0.0,0.0,0.0,0.0,0.0,0.0,0.2937,0.1791,0.1861,0.1612,0.0,0.0,0.1947,0.221,0.0,0.0,0.0,0.0,0.0,0.0,0.0,0.0,0.0,0.0,0.0,0.0,0.0,0.0,0.0,0.0,0.0,0.0974,0.0812,0.1266,0.2128,0.3489,0.4608,0.5502,0.5954,0.6839,0.7622,0.762,0.7477,0.6833,0.4966,0.4575,0.4148,0.2552,0.2455,0.2752,0.3036,0.3343,0.3756,0.0,0.0,0.5013,0.5959,0.5379,0.5039,0.5473,0.0,0.3275,0.0,0.0,0.0,0.0,0.0,0.0,0.0784,-0.0266,-0.0712,-0.0375,-0.0854,-0.1108,-0.1143,-0.1324,-0.1714,-0.2354,-0.2686,-0.3222,-0.3918,-0.4489,-0.4935,-0.5291,-0.6351,0.0,0.0,-0.9009,-0.9922,-0.9821,-1.2389,-1.3515,-1.3717,-1.431,-1.4665,-1.4898,0.0,0.0,0.0,0.0,0.0,0.0,0.0,0.7352,0.7354,0.6766,0.6809,0.6569,0.5793,0.5749,0.5835,0.5976,0.0,0.0,0.0,0.0,0.0,0.0,0.0,0.0,0.0,0.0,0.2687,0.1988,0.1612,0.1411,0.1411,0.1682,0.2059,0.2482,0.0,0.0,0.0,0.0,0.0,0.0,0.0,0.0,0.0,0.0,0.0,0.0,0.0,0.0,0.0,0.0,0.0,0.0,0.0,0.1147,0.2153,0.2877,0.3533,0.4132,0.4676,0.507,0.5322,0.5322,0.5042,0.4478,0.3455,0.3423,0.3369,0.2484,0.2656,0.3042,0.3257,0.346,0.3871,0.4753,0.4789,0.0,0.5265,0.4518,0.4077,0.0,0.0,0.3052,0.3912,0.0,0.0,0.0,0.0,0.0,0.1871,0.0187,-0.0692,-0.051,-0.0899,-0.1176,-0.1311,-0.1512,-0.1949,-0.2686,-0.3025,-0.3756,-0.4815,-0.5543,-0.5491,0.0,0.0,0.0,0.0,-0.9364,-1.0609,-1.0151,-1.2714,-1.4094,-1.4695,-1.4846,-1.5313,-1.5868,0.0,0.0,0.0,0.0,0.0,0.0,0.0,0.6929,0.6714,0.6873,0.6698,0.6386,0.5944,0.5846,0.5771,0.5739,0.0,0.0,0.0,0.0,0.0,0.0,0.0,0.0,0.0,0.0,0.262,0.1995,0.1545,0.1456,0.1682,0.1772,0.1992,0.237,0.2326,0.2286,0.0,0.0,0.0,0.0,0.0,0.0,0.0,0.0,0.0,0.0,0.0,0.0,0.0,0.0,0.0,0.0,0.0,0.0,0.0,0.2045,0.2929,0.3981,0.4588,0.5012,0.5314,0.5353,0.5216,0.4731,0.3485,0.3397,0.3342,0.2427,0.2638,0.3003,0.3095,0.3495,0.3912,0.4284,0.4526,0.0,0.0,0.0,0.0,0.4515,0.3124,0.2051,0.0,0.0,0.0,0.0,0.0,0.0,0.0587,-0.0299,-0.0838,-0.0911,-0.1245,-0.1581,-0.1918,-0.1985,-0.2488,-0.3456,-0.3885,-0.4649,-0.5708,-0.6556,-0.7075,0.0,0.0,0.0,0.0,-1.0239,-1.0735,-0.9526,-1.3259,-1.4865,-1.511,-1.5659,-1.6346,-1.6979,0.0,0.0,0.0,0.0,0.0,0.0,0.0,0.7089,0.6898,0.7057,0.6903,0.6642,0.6297,0.6103,0.5932,0.5797,0.0,0.0,0.0,0.0,0.0,0.0,0.0,0.0,0.0,0.3074,0.2553,0.1772,0.159,0.1567,0.1727,0.1727,0.1947,0.237,0.2304,0.2263,0.0,0.0,0.0,0.0,0.0,0.0,0.1884,0.0,0.0,0.0,0.0,0.0,0.0,0.0,0.0,0.0,0.0,0.0,0.0,0.0,0.2014,0.2961,0.3508,0.3739,0.3852,0.3978,0.389,0.3547,0.2736,0.2741,0.2783,0.2481,0.2805,0.3179,0.3348,0.358,0.3881,0.4316,0.4397,0.463,0.0,0.0,0.0,0.3087,0.0,0.0,0.0,0.0,0.0,0.0,0.0,0.0,-0.0471,-0.0825,-0.1167,-0.1531,-0.1731,-0.2018,-0.2388,-0.2656,-0.3255,-0.4189,-0.4743,-0.5602,-0.6671,-0.7502,-0.8003,0.0,0.0,0.0,0.0,-1.1061,-1.1435,-0.9946,-1.3899,-1.559,-1.5867,-1.6589,-1.7354,-1.8043,0.0,0.0,0.0,0.0,0.0,0.0,0.0,0.0,0.0,0.0,0.7305,0.7222,0.6769,0.6474,0.6242,0.0,0.0,0.0,0.0,0.0,0.0,0.0,0.0,0.0,0.0,0.2939,0.2446,0.1428,0.1679,0.1749,0.1634,0.1634,0.1925,0.2482,0.2286,0.2223,0.0,0.0,0.0,0.0,0.0,0.0,0.0,0.0,0.0,0.0,0.0,0.0,0.0,0.0,0.0,0.0,0.0,0.0,0.0,0.0,0.0,0.0,0.0,0.1614,0.148,0.1677,0.1594,0.1455,0.1498,0.1628,0.0,0.2609,0.3058,0.3459,0.3954,0.3729,0.3845,0.4817,0.4518,0.4534,0.0,0.4323,0.0,0.0,0.3221,0.0,0.0,0.0,0.0,0.0,0.0,0.0,-0.1254,-0.1311,-0.1639,-0.2291,-0.2319,-0.2455,-0.2753,-0.3489,-0.4118,-0.4731,-0.5569,-0.649,-0.746,-0.8409,-0.8503,0.0,0.0,0.0,0.0,-1.1813,-1.2528,-1.1332,-1.4679,-1.6282,-1.6865,-1.7533,-1.8333,-1.9105,0.0,0.0,0.0,0.0,0.0,0.0,0.0,0.0,0.0,0.0,0.7291,0.7171,0.6967,0.6505,0.6212,0.0,0.0,0.0,0.0,0.0,0.0,0.0,0.0,0.0,0.0,0.2597,0.2211,0.1706,0.1764,0.1839,0.1906,0.1906,0.2062,0.233,0.2192,0.217,0.2215,0.0,0.0,0.0,0.0,0.0,0.0,0.0,0.0,0.0,0.1257,0.1169,0.0,0.0,0.0,0.0,0.0,0.0,0.0,0.0,0.0645,0.0814,0.0764,0.0,0.1655,0.2059,0.2039,0.1886,0.0,0.1749,0.2017,0.2288,0.29,0.3607,0.4316,0.3939,0.4025,0.5636,0.5048,0.4476,0.4638,0.0,0.0,0.3045,0.0,0.0,0.0,0.0,0.0,0.0,0.0,-0.0935,-0.1224,-0.1595,-0.1986,-0.2367,-0.3044,-0.3389,-0.3318,-0.3889,-0.4071,-0.3816,-0.5896,-0.6804,-0.6741,-0.9202,-1.0349,0.0,0.0,0.0,-1.0856,-1.2046,-1.2752,-1.3328,-1.5664,-1.7055,-1.776,-1.8335,-1.9258,-2.0237,0.0,0.0,0.0,0.0,0.0,0.0,0.0,0.0,0.0,0.0,0.0,0.0,0.0,0.0,0.0,0.0,0.0,0.0,0.0,0.0,0.0,0.0,0.0,0.0,0.2759,0.2539,0.2265,0.1884,0.1925,0.1947,0.1995,0.1995,0.2089,0.2245,0.2174,0.2125,0.2103,0.2174,0.1973,0.0,0.1523,0.0,0.0,0.0,0.0,0.0,0.1229,0.1149,0.0,0.0342,0.027,0.0384,0.0,0.0,0.0,0.0,0.028,0.0421,0.0252,0.0896,0.1663,0.1951,0.2209,0.2283,0.1962,0.215,0.2463,0.267,0.3386,0.4199,0.4857,0.4479,0.4403,0.5329,0.4717,0.0,0.0,0.0,0.2648,0.2611,0.0,0.0,0.0,0.0,0.0,0.0,0.0,-0.1243,-0.159,-0.1996,-0.2413,-0.2802,-0.3712,-0.4156,-0.4084,-0.4782,-0.514,-0.5216,-0.696,-0.7854,-0.8038,-1.0077,-1.1344,0.0,0.0,0.0,-1.3186,-1.3133,-1.376,-1.4893,-1.6557,-1.7617,-1.8281,-1.9057,-1.9988,-2.0892,0.0,0.0,0.0,0.0,0.0,0.0,0.0,0.0,0.0,0.0,0.0,0.0,0.0,0.0,0.0,0.0,0.0,0.0,0.0,0.0,0.0,0.0,0.0,0.3049,0.2685,0.2635,0.2416,0.2021,0.2117,0.2125,0.204,0.2018,0.2062,0.2178,0.2223,0.2152,0.2018,0.2134,0.1884,0.1411,0.1523,0.0,0.0,0.0,0.0,0.0,0.0,0.0,0.0,0.031,0.0027,-0.0054,-0.0472,0.0,0.0,0.0,0.0,0.0,0.0168,0.09,0.1671,0.1624,0.2117,0.2538,0.2322,0.2569,0.296,0.3343,0.4094,0.4845,0.5419,0.5002,0.0,0.0,0.0,0.0,0.2634,0.154,0.1049,0.1756,0.0,0.0,0.0,0.0,0.0,0.0,0.0,-0.1591,-0.2108,-0.2431,-0.2838,-0.3379,-0.4243,-0.4821,-0.5113,-0.584,-0.6457,-0.7019,-0.8118,-0.8954,-0.9599,-1.0913,-1.192,-1.2591,0.0,0.0,-1.4888,-1.4439,-1.4955,-1.6144,-1.7315,-1.8057,-1.8608,-1.9712,-2.0597,-2.1361,0.0,0.0,0.0,0.0,0.0,0.0,0.0,0.0,0.0,0.0,0.0,0.0,0.0,0.0,0.0,0.0,0.0,0.0,0.0,0.0,0.0,0.0,0.3526,0.3101,0.2549,0.2631,0.2508,0.2169,0.2352,0.2375,0.2245,0.2085,0.2018,0.204,0.233,0.2286,0.2018,0.2134,0.1884,0.1389,0.1366,0.0,0.0,0.0,0.0,0.0,0.0,0.0,0.0,0.043,-0.0182,-0.067,-0.0361,0.0,0.0,0.0,0.0,0.0,0.0701,0.1372,0.1887,0.1331,0.1656,0.2184,0.2531,0.2583,0.2824,0.3782,0.4274,0.4857,0.5887,0.4627,0.4137,0.0,0.0,0.3722,0.0,0.0,0.0,0.0,0.0,0.0,0.0,0.0,0.0,0.0,0.0,-0.1773,-0.2244,-0.2739,-0.3276,-0.3857,-0.4634,-0.551,-0.6564,-0.6605,-0.6448,-0.6108,-0.8302,-0.8998,-0.8457,-1.1284,-1.2737,-1.2997,0.0,-1.426,-1.5969,-1.4908,-1.5498,-1.713,-1.7778,-1.8324,-1.8909,-2.0189,-2.1091,-2.1817,0.0,0.0,0.0,0.0,0.0,0.0,0.0,0.0,0.0,0.0,0.0,0.0,0.0,0.0,0.0,0.0,0.0,0.0,0.0,0.0,0.0,0.3867,0.3284,0.2867,0.2671,0.2321,0.2177,0.2203,0.2248,0.2224,0.2134,0.2111,0.2129,0.217,0.2277,0.2221,0.2014,0.2062,0.1772,0.1254,0.0,0.0,0.0,0.0,0.0,0.0,0.0,0.0,0.0,0.0,0.0102,-0.0444,-0.0248,0.0,0.0,0.0,0.0,0.0,0.0924,0.1696,0.2345,0.1948,0.23,0.2771,0.2859,0.2771,0.2824,0.3432,0.0,0.0,0.0,0.0,0.3911,0.4248,0.0,0.1209,0.1539,0.0,0.0,0.0,0.0,0.0,0.0,0.0,0.0,0.0,0.0,0.0,-0.2885,-0.3609,-0.4242,-0.4694,-0.5594,-0.6531,-0.7479,-0.7782,-0.7906,-0.788,-0.9522,-1.0323,-1.0437,-1.251,-1.3779,-1.4331,0.0,-1.5158,-1.6856,-1.5753,-1.6304,-1.7874,-1.8401,-1.8937,-1.9611,-2.0888,-2.1742,-2.2328,0.0,0.0,0.0,0.0,0.0,0.0,0.0,0.0,0.0,0.0,0.0,0.0,0.0,0.0,0.0,0.0,0.0,0.0,0.0,0.0,0.4261,0.3894,0.2983,0.2545,0.2707,0.2159,0.2007,0.2275,0.2277,0.2218,0.2111,0.2241,0.2308,0.2277,0.2314,0.2173,0.1966,0.2036,0.1746,0.1254,0.0,0.0,0.0,0.0,0.0,0.0,0.0,0.0,0.0,0.0,0.0,0.0,0.0,0.0,0.0,-0.0028,0.0449,0.0897,0.1229,0.2035,0.2809,0.2777,0.315,0.3509,0.3284,0.3105,0.31,0.3389,0.0,0.0,0.0,0.4,0.0,0.1624,0.0404,-0.0492,0.0,0.0,0.0,0.0,0.0,0.0,0.0,0.0,0.0,0.0,0.0,0.0,-0.3644,-0.4447,-0.5092,-0.555,-0.6563,-0.7474,-0.8226,-0.8914,-0.9392,-0.9743,-1.0707,-1.1628,-1.2462,-1.3677,-1.469,-1.5521,-1.5339,-1.6196,-1.76,-1.6825,-1.723,-1.8384,-1.8927,-1.9682,-2.0547,-2.1578,-2.2395,-2.3068,0.0,0.0,0.0,0.0,0.0,0.0,0.0,0.0,0.0,0.0,0.0,0.0,0.0,0.0,0.0,0.0,0.0,0.0,0.0,0.0,0.4282,0.3839,0.2731,0.2228,0.242,0.2438,0.2442,0.2487,0.2732,0.2706,0.2474,0.2598,0.2509,0.2223,0.2521,0.2344,0.1839,0.2148,0.2014,0.159,0.1861,0.0,0.0,0.0,0.0,0.0,0.0,0.0,0.0,0.0,0.0,0.0,0.0,0.0,-0.0533,0.0168,0.0784,0.1343,0.1818,0.2543,0.3225,0.3468,0.3795,0.4036,0.3939,0.3783,0.3809,0.4374,0.0,0.0,0.0,0.4235,0.3283,-0.0447,0.0338,0.0,0.0,0.0,0.0,0.0,0.0,0.0,0.0,0.0,0.0,0.0,0.0,0.0,-0.4478,-0.4933,-0.5515,-0.6301,-0.7162,-0.8052,-0.8914,-0.9576,-1.0082,-1.0339,-1.1292,-1.2111,-1.2789,-1.4189,-1.5213,-1.5909,-1.6691,-1.7413,-1.8066,-1.8124,-1.8245,-1.8456,-1.9251,-2.0421,-2.1722,-2.217,-2.3057,-2.4065,0.0,0.0,0.0,0.0,0.0,0.0,0.0,0.0,0.0,0.0,0.0,0.0,0.0,0.0,0.0,0.0,0.0,0.0,0.0,0.0,0.4246,0.3823,0.2587,0.2042,0.2334,0.2188,0.2179,0.2315,0.2534,0.2547,0.2375,0.2437,0.237,0.2192,0.2241,0.2174,0.204,0.2085,0.2018,0.1865,0.219,0.2187,0.0,0.0,0.0,0.0,0.0,0.0,0.0,0.0,0.0764,0.0482,0.0527,0.0505,0.0477,0.0757,0.1317,0.1958,0.232,0.3122,0.3894,0.4202,0.4433,0.4467,0.4033,0.3542,0.3286,0.3558,0.3037,0.0,0.0,0.0,0.0371,-0.0692,-0.0926,0.0,0.0,0.0,0.0,0.0,0.0,0.0,0.0,0.0,0.0,0.0,0.0,0.0,-0.5109,-0.593,-0.67,-0.7368,-0.8329,-0.9192,-0.9919,-1.0478,-1.1105,-1.1835,-1.2406,-1.313,-1.4021,-1.5119,-1.603,-1.6752,-1.728,-1.7657,-1.7917,-1.8567,-1.8844,-1.8909,-2.0214,-2.1455,-2.2595,-2.2951,-2.3826,-2.4852,0.0,0.0,0.0,0.0,0.0,0.0,0.0,0.0,0.0,0.0,0.0,0.0,0.0,0.0,0.0,0.0,0.0,0.0,0.0,0.4808,0.425,0.3912,0.2682,0.2184,0.2547,0.2283,0.2225,0.2348,0.253,0.256,0.2437,0.2437,0.2348,0.2205,0.2151,0.2151,0.2174,0.2128,0.2109,0.2093,0.2378,0.2399,0.0,0.0,0.0,0.0,0.0,0.0,0.0,0.0,0.1208,0.1196,0.0918,0.0953,0.1095,0.1095,0.1468,0.1985,0.2603,0.3338,0.3998,0.4422,0.4706,0.4714,0.408,0.3301,0.2813,0.3021,0.2062,0.1135,0.0854,0.0,0.0,0.0,0.0,0.0,0.0,0.0,0.0,0.0,0.0,0.0,0.0,0.0,0.0,0.0,0.0,0.0,0.0,-0.694,-0.7681,-0.8127,-0.9138,-0.9883,-1.0345,-1.1007,-1.1855,-1.2876,-1.3084,-1.3667,-1.4554,-1.5479,-1.621,-1.6852,-1.7382,-1.7637,-1.7811,-1.892,-1.9509,-1.9879,-2.1293,-2.2422,-2.3275,-2.3808,-2.4708,-2.5693,0.0,0.0,0.0,0.0,0.0,0.0,0.0,0.0,0.0,0.0,0.0,0.0,0.0,0.0,0.0,0.0,0.0,0.0,0.5571,0.4808,0.4301,0.4102,0.3075,0.269,0.3099,0.285,0.2713,0.2713,0.2832,0.2822,0.2687,0.2687,0.2516,0.221,0.2347,0.2287,0.2124,0.2306,0.2326,0.2223,0.242,0.2502,0.2496,0.0,0.0,0.0,0.0,0.0,0.0,0.0,0.1334,0.1483,0.0897,0.0897,0.1123,0.1123,0.1118,0.1369,0.2567,0.3088,0.3447,0.3964,0.4428,0.4647,0.411,0.3185,0.2546,0.3058,0.2025,0.0603,-0.0671,-0.0692,0.0,-0.2992,0.0,0.0,0.0,0.0,0.0,0.0,0.0,0.0,0.0,0.0,0.0,0.0,0.0,0.0,0.0,-0.7791,-0.8301,-0.8517,-0.9472,-1.0001,-1.0023,-1.1076,-1.2149,-1.3206,-1.3206,-1.3578,-1.4233,-1.5036,-1.5642,-1.6066,-1.6996,-1.7541,-1.792,-1.9258,-2.0421,-2.1515,-2.2462,-2.3174,-2.3836,-2.4761,-2.5745,-2.6675,0.0,0.0,0.0,0.0,0.0,0.0,0.0,0.0,0.0,0.0,0.0,0.0,0.0,0.0,0.0,0.0,0.0,0.0,0.5571,0.4852,0.4328,0.3978,0.3248,0.2958,0.3179,0.3095,0.3003,0.2903,0.2864,0.2723,0.2497,0.2381,0.2215,0.1992,0.1989,0.2031,0.21,0.2211,0.2337,0.2511,0.2747,0.2796,0.2715,0.0,0.0,0.0,0.0,0.0,0.0,0.0,0.0,0.0,0.1401,0.1569,0.1849,0.1765,0.2113,0.2561,0.2768,0.3331,0.3845,0.3711,0.3893,0.4046,0.385,0.3301,0.2562,0.0,0.1002,0.0297,-0.0828,-0.0976,0.0,0.0,0.0,0.0,0.0,0.0,0.0,0.0,0.0,0.0,0.0,0.0,0.0,0.0,0.0,0.0,0.0,-0.817,-0.871,-0.9396,-0.9919,-1.0546,-1.126,-1.1843,-1.2741,-1.3921,-1.4097,-1.4723,-1.5688,-1.5374,-1.6084,-1.7501,-1.7815,-1.8235,-1.8707,-1.9768,-2.1202,-2.27,-2.3138,-2.4172,-2.5521,-2.5972,-2.6819,-2.782,0.0,0.0,0.0,0.0,0.0,0.0,0.0,0.0,0.0,0.0,0.8659,0.8618,0.0,0.0,0.0,0.0,0.0,0.0,0.0,0.0,0.4577,0.4236,0.3624,0.3255,0.3208,0.3089,0.2991,0.2931,0.2761,0.2613,0.2472,0.2259,0.1985,0.1699,0.166,0.1757,0.1945,0.2091,0.2368,0.2684,0.2849,0.2852,0.277,0.0,0.0,0.0,0.0,0.0,0.0,0.0,0.0,0.0,0.1737,0.1877,0.2128,0.2184,0.2053,0.2009,0.243,0.2932,0.3267,0.304,0.3103,0.2969,0.2104,0.0,0.0,0.0,-0.0148,-0.0605,-0.1836,-0.1937,0.0,0.0,0.0,0.0,0.0,0.0,0.0,0.0,0.0,0.0,0.0,0.0,0.0,0.0,0.0,0.0,0.0,-0.8765,-0.9268,-0.9779,-1.0396,-1.102,-1.1661,-1.2212,-1.298,-1.3992,-1.4033,-1.4765,-1.6069,-1.5558,-1.5902,-1.6949,-1.7727,-1.8778,-1.9976,-2.0435,-2.1694,-2.344,-2.3889,-2.5,-2.6431,-2.6975,-2.7631,-2.84,0.0,0.0,0.0,0.0,0.0,0.0,0.0,0.0,0.0,0.0,0.89,0.8778,0.0,0.0,0.0,0.0,0.0,0.0,0.0,0.0,0.4934,0.4679,0.4041,0.3531,0.3214,0.2945,0.2793,0.2793,0.2584,0.2511,0.257,0.2183,0.1774,0.1339,0.1313,0.1444,0.1679,0.1969,0.2373,0.2812,0.2812,0.2766,0.2662,0.2591,0.0,0.0,0.0,0.0,0.0,0.0,0.0,0.0,0.193,0.1902,0.2073,0.2352,0.1432,0.0608,0.1808,0.2099,0.2056,0.2082,0.2091,0.1658,-0.0109,0.0474,0.0918,-0.09,0.0,-0.1792,-0.3161,-0.312,-0.3008,0.0,0.0,0.0,0.0,0.0,0.0,0.0,0.0,0.0,0.0,0.0,0.0,0.0,0.0,0.0,0.0,-0.942,-0.9804,-0.9932,-1.078,-1.1339,-1.1539,-1.2243,-1.2961,-1.3692,-1.347,-1.422,-1.5771,-1.5531,-1.5421,-1.5542,-1.7409,-1.9436,-2.1431,-2.1167,-2.2179,-2.3941,-2.4665,-2.5732,-2.6939,-2.7819,-2.8339,-2.8786,0.0,0.0,0.0,0.0,0.0,0.0,0.0,0.0,0.0,0.0,0.0,0.0,0.0,0.0,0.0,0.0,0.0,0.0,0.0,0.0,0.4684,0.4475,0.3921,0.349,0.3214,0.2982,0.2835,0.2723,0.2461,0.236,0.2336,0.1641,0.1141,0.0832,0.0693,0.0941,0.149,0.1907,0.2434,0.2952,0.2952,0.2803,0.2534,0.2356,0.2282,0.0,0.0,0.0,0.0,0.0,0.0,0.0,0.1818,0.1958,0.2128,0.1986,0.2038,0.2081,0.1749,0.1729,0.1701,0.1363,0.0964,0.0815,0.1493,0.0455,-0.0881,-0.1589,-0.134,-0.1399,-0.2702,-0.2157,0.0,0.0,0.0,0.0,0.0,0.0,0.0,0.0,0.0,0.0,0.0,0.0,0.0,0.0,0.0,0.0,-0.9332,-0.9396,-0.9856,-1.0776,-1.0729,-1.1015,-1.1732,-1.2354,-1.2975,0.0,-1.4314,-1.4957,-1.5448,-1.5071,-1.6033,-1.8106,-1.9772,-2.1009,-2.1888,-2.2122,-2.3322,-2.4987,-2.5254,-2.6711,-2.8692,-2.8995,-2.9664,-3.0573,0.0,0.0,0.0,0.0,0.0,0.0,0.0,0.0,0.0,0.0,0.0,0.0,0.0,0.0,0.0,0.0,0.0,0.0,0.0,0.0,0.0,0.4291,0.3862,0.3478,0.3103,0.2881,0.268,0.2562,0.2347,0.2163,0.1992,0.138,0.0901,0.0546,0.0287,0.0541,0.1175,0.1566,0.2016,0.2536,0.2757,0.2617,0.2267,0.2223,0.2128,0.1992,0.1933,0.0,0.0,0.0,0.0,0.0,0.0,0.0,0.2041,0.2268,0.2151,0.1911,0.1822,0.1618,0.1201,0.0214,0.0037,0.0151,0.0497,-0.0542,-0.1635,-0.1733,-0.1785,-0.2037,-0.2787,0.0,0.0,0.0,0.0,0.0,0.0,0.0,0.0,0.0,0.0,0.0,0.0,0.0,0.0,0.0,0.0,-0.928,-0.9632,-0.9875,-1.0349,-1.102,-1.1211,-1.1565,-1.213,-1.2883,-1.3418,-1.3756,-1.4737,-1.5561,-1.6244,-1.6145,-1.7314,-1.9529,-2.061,-2.1564,-2.2385,-2.2976,-2.409,-2.5533,-2.6542,-2.7966,-2.9546,-3.0129,-3.0795,-3.15,0.0,0.0,0.0,0.0,0.0,0.0,0.0,0.0,0.0,0.0,0.0,0.0,0.0,0.0,0.0,0.0,0.0,0.0,0.0,0.0,0.0,0.0,0.3758,0.3405,0.2932,0.2656,0.2455,0.2367,0.2253,0.1947,0.1406,0.1023,0.0599,0.0089,-0.0298,-0.0029,0.0707,0.0993,0.1442,0.1958,0.2408,0.2324,0.1933,0.2045,0.1936,0.1712,0.174,0.174,0.174,0.1821,0.0,0.0,0.0,0.0,0.1902,0.2491,0.1996,0.1379,0.1918,0.1487,0.0623,-0.0743,-0.0832,0.0,-0.0936,-0.1566,-0.1994,-0.168,-0.2309,-0.2982,-0.3139,0.0,0.0,0.0,0.0,0.0,0.0,0.0,0.0,0.0,0.0,0.0,0.0,0.0,0.0,0.0,0.0,-0.962,-0.99,-1.0438,-1.0908,-1.1241,-1.1862,-1.2352,-1.2689,-1.3595,-1.4037,-1.4088,-1.5099,-1.6291,-1.7647,-1.7965,-1.8914,-2.0351,-2.0969,-2.1863,-2.297,-2.3728,-2.4752,-2.6025,-2.768,-2.9027,-3.0176,-3.1109,-3.1783,-3.2289,0.0,0.0,0.0,0.0,0.0,0.0,0.0,0.0,0.0,0.0,0.8846,0.8541,0.0,0.0,0.0,0.0,0.0,0.0,0.0,0.0,0.0,0.3788,0.3433,0.3084,0.2666,0.2342,0.2198,0.2216,0.2262,0.1608,0.0318,0.0028,-0.0462,-0.1103,-0.1668,-0.1264,-0.0117,0.021,0.0854,0.1679,0.1986,0.1905,0.1656,0.1684,0.1543,0.1403,0.1572,0.1515,0.1347,0.1261,0.1515,0.0,0.0,0.0,0.1796,0.179,0.1824,0.1885,0.1849,0.1066,0.0036,-0.0751,-0.1806,-0.2148,0.0,0.0,-0.2666,0.0,-0.2582,-0.3409,0.0,0.0,0.0,0.0,0.0,0.0,0.0,0.0,0.0,0.0,0.0,0.0,0.0,0.0,0.0,0.0,-0.9408,-0.9779,-1.0364,-1.0486,-1.1086,-1.2258,-1.2187,-1.2569,-1.3528,-1.4189,-1.448,-1.4457,-1.6033,-1.7665,-1.9287,-1.99,-2.0401,-2.0799,-2.1787,-2.2798,-2.3769,-2.4371,-2.5461,-2.689,-2.755,-2.9116,-3.1058,-3.1574,-3.2619,-3.3834,0.0,0.0,0.0,0.0,0.0,0.0,0.0,0.0,0.0,0.0,0.0,0.8398,0.0,0.0,0.0,0.0,0.0,0.0,0.0,0.0,0.0,0.4168,0.3788,0.3345,0.2844,0.2688,0.2484,0.2258,0.2098,0.1388,0.0181,-0.0634,-0.124,-0.1621,-0.2203,-0.175,-0.0545,-0.1045,-0.0398,0.09,0.0593,0.0772,0.1186,0.1089,0.1067,0.095,0.003,0.0296,0.0953,0.0146,0.0691,0.1684,0.1681,0.0,0.0,0.0,0.2156,0.2053,0.1821,0.1473,0.0964,0.0037,-0.0678,-0.0844,0.0268,-0.0814,-0.1998,-0.1681,-0.2309,0.0,0.0,0.0,0.0,0.0,0.0,0.0,0.0,0.0,0.0,0.0,0.0,0.0,0.0,0.0,0.0,0.0,-0.9939,-1.0193,-1.073,-1.1025,-1.1523,-1.2256,-1.2608,-1.3059,-1.3643,-1.4578,-1.5455,-1.6233,-1.7358,-1.865,-2.0093,-2.063,-2.1121,-2.1644,-2.2844,-2.3693,-2.4345,-2.5498,-2.6558,-2.7543,-2.9061,-3.0529,-3.1918,-3.3014,-3.394,-3.4733,0.0,0.0,0.0,0.0,0.0,0.0,0.0,0.0,0.0,0.0,0.0,0.0,0.0,0.0,0.0,0.0,0.0,0.0,0.0,0.0,0.0,0.4563,0.4093,0.3574,0.3029,0.2888,0.257,0.2128,0.1837,0.1115,0.0,-0.0971,-0.1655,-0.2122,-0.2875,-0.2514,-0.1405,-0.2264,-0.1601,-0.0116,-0.1085,-0.0606,0.0516,-0.0574,-0.0287,0.0345,-0.1947,0.0,0.0,0.0,-0.0515,0.0759,0.1543,0.1789,0.0,0.0,0.0,0.2303,0.187,0.1898,0.1788,0.0859,0.0513,0.0411,0.0,0.0,-0.1361,0.0,-0.2037,0.0,0.0,0.0,0.0,0.0,0.0,0.0,0.0,0.0,0.0,0.0,0.0,0.0,0.0,0.0,0.0,0.0,-1.046,-1.0672,-1.1212,-1.1706,-1.2133,-1.2524,-1.3205,-1.3765,-1.4198,-1.5305,-1.664,-1.8167,-1.8668,-1.9538,-2.0731,-2.1412,-2.2066,-2.2774,-2.3774,-2.4578,-2.5242,-2.6839,-2.7767,-2.8497,-3.0585,-3.1862,-3.2658,-3.3975,-3.475,-3.5205,0.0,0.0,0.0,0.0,0.0,0.0,0.0,0.0,0.0,0.0,0.0,0.0,0.0,0.0,0.7489,0.7419,0.0,0.0,0.0,0.0,0.0,0.4718,0.3993,0.0,0.3093,0.2539,0.2038,0.1646,0.149,0.069,-0.0736,-0.0882,-0.1654,-0.2965,-0.4039,-0.4015,-0.3155,-0.3151,-0.2415,-0.1361,-0.2926,-0.2128,-0.0422,0.0,0.0,0.0,0.0,0.0,0.0,0.0,0.0,0.0,0.0,0.1409,0.166,0.0,0.0,0.0,0.209,0.2003,0.1958,0.1401,0.0785,0.044,0.0,0.0,0.0,0.0,0.0,0.0,0.0,0.0,0.0,0.0,0.0,0.0,0.0,0.0,0.0,0.0,0.0,0.0,0.0,0.0,0.0,0.0,-1.0681,-1.1105,-1.1807,-1.2351,-1.3003,-1.376,-1.4072,-1.476,-1.5864,-1.6681,-1.7992,-1.9685,-1.9726,-2.0383,-2.1575,-2.2736,-2.3592,-2.4197,-2.4393,-2.5385,-2.6974,-2.8194,-2.9163,-3.0021,-3.1405,-3.2518,-3.3388,-3.3697,-3.4379,-3.5205,0.0,0.0,0.0,0.0,0.0,0.0,0.0,0.0,0.0,0.0,0.0,0.0,0.0,0.8064,0.7981,0.8044,0.753,0.0,0.0,0.0,0.0,0.4791,0.401,0.3441,0.3093,0.256,0.1985,0.1397,0.1055,0.0386,-0.0558,-0.1456,-0.2296,-0.3111,-0.3949,-0.3968,-0.3381,-0.4619,-0.3759,0.0,0.0,0.0,0.0,0.0,0.0,0.0,0.0,0.0,0.0,0.0,0.0,0.0,0.0,0.0,0.0,0.0,0.0,0.2741,0.0,0.0,0.0,0.2761,0.2154,0.1597,0.1721,0.0516,-0.0681,-0.0916,0.0,0.0,0.0,0.0,0.0,0.0,0.0,0.0,0.0,0.0,0.0,0.0,0.0,0.0,0.0,0.0,0.0,0.0,0.0,-1.1829,-1.2011,-1.2813,-1.355,-1.4148,-1.4919,-1.5951,-1.7257,-1.8249,-1.9133,-1.9926,-2.062,-2.1578,-2.274,-2.3587,-2.4681,-2.5925,-2.6421,-2.7172,-2.8083,-2.8732,-2.9887,-3.1325,-3.1725,-3.2597,-3.373,-3.4296,-3.5077,-3.5904,0.0,0.0,0.0,0.0,0.0,0.0,0.0,0.0,0.0,0.0,0.0,0.0,0.0,0.0,0.8106,0.8002,0.753,0.6943,0.6255,0.5771,0.5243,0.4654,0.3887,0.3285,0.2911,0.2383,0.1604,0.0643,0.024,-0.0406,-0.1328,-0.2274,-0.2941,-0.341,-0.4053,-0.4062,-0.3643,0.0,0.0,-0.2345,0.0,0.0,-0.3952,0.0,0.0,0.0,0.0,0.0,0.0,0.0,0.0,0.0,0.0,0.0,0.0,0.0,0.0,0.0,0.253,0.0,0.0,0.0,0.2998,0.2554,0.2133,0.0,0.0332,-0.0446,0.0,0.0,0.0,0.0,0.0,0.0,0.0,0.0,0.0,0.0,0.0,0.0,0.0,0.0,0.0,0.0,0.0,0.0,0.0,0.0,-1.2743,-1.3589,-1.4336,-1.5024,-1.5933,-1.7047,-1.8308,-1.9131,-1.9835,-2.0481,-2.1509,-2.2512,-2.3464,-2.4511,-2.5734,-2.7028,-2.7837,-2.8419,-2.8834,-2.946,-3.0642,-3.2089,-3.2317,-3.3144,-3.4323,-3.5006,-3.5699,-3.641,0.0,0.0,0.0,0.0,0.0,0.0,0.0,0.0,0.0,0.0,0.0,0.0,0.0,0.0,0.0,0.723,0.6893,0.6435,0.5814,0.533,0.4834,0.4307,0.0,0.0,0.0,0.1954,0.0888,-0.0727,-0.0912,-0.1748,-0.3128,-0.3267,-0.3552,-0.3972,-0.4504,-0.4505,-0.4149,0.0,-0.3889,-0.324,0.0,-0.7145,-0.5511,0.0,0.0,0.0,-1.1926,-1.2008,0.0,-1.0295,0.0,0.0,0.0,0.0,0.0,0.0,0.0,0.0,0.0,0.0,0.0,0.0,0.3183,0.3111,0.2164,0.0,0.1653,0.0144,0.0,0.0,0.0,0.0,0.0,0.0,0.0,0.0,0.0,0.0,0.0,0.0,0.0,0.0,0.0,0.0,0.0,0.0,-1.284,-1.3369,-1.4043,-1.4647,-1.5444,-1.6531,-1.7198,-1.8001,-1.8933,-1.9279,-2.0124,-2.1464,-2.2383,-2.3154,-2.3812,-2.5589,-2.679,-2.7496,-2.8498,-2.9021,-2.9247,-3.0431,-3.144,-3.235,-3.3271,-3.423,-3.5181,-3.5792,-3.618,-3.6654,0.0,0.0,0.0,0.0,0.0,0.0,0.0,0.0,0.0,0.0,0.0,0.0,0.8894,0.8438,0.786,0.7104,0.6759,0.619,0.535,0.4864,0.4349,0.3825,0.0,0.0,0.0,0.0,0.0,0.0,0.0,0.0,0.0,0.0,0.0,-0.5085,-0.5632,-0.5428,-0.4699,-0.5212,0.0,-0.5695,-0.7182,-0.8472,0.0,0.0,0.0,0.0,0.0,-1.0434,-1.0792,0.0,-1.0429,-1.1851,0.0,0.0,0.0,0.0,0.0,0.0,0.1146,0.0,0.0,0.0,0.0,0.0,0.2652,0.2363,0.1712,0.0351,0.0,0.0,0.0,0.0,0.0,0.0,0.0,0.0,0.0,0.0,0.0,0.0,0.0,0.0,0.0,0.0,0.0,0.0,-1.3429,-1.408,-1.4025,-1.5347,-1.661,-1.7616,-1.8127,-1.8839,-1.9838,-2.0313,-2.1247,-2.2557,-2.3066,-2.3969,-2.5255,-2.6441,-2.7367,-2.8121,-2.9533,-3.0215,-3.0422,-3.0865,-3.2164,-3.3874,-3.3782,-3.4584,-3.5784,-3.6056,-3.6895,-3.7978,0.0,0.0,0.0,0.0,0.0,0.0,0.0,0.0,0.0,0.0,0.0,0.0,0.8761,0.8257,0.7666,0.6978,0.644,0.5773,0.4902,0.4252,0.3645,0.3075,0.0,0.0,0.0,0.0,0.0,0.0,0.0,0.0,0.0,0.0,0.0,0.0,0.0,0.0,0.0,0.0,0.0,0.0,-0.8057,0.0,0.0,-1.1432,-1.1694,0.0,0.0,0.0,-1.2736,-1.1625,-1.2047,0.0,0.0,0.0,0.0,0.0,0.0,0.0,0.0,0.0,0.0,0.0,0.0,0.0,0.229,0.2212,0.1799,0.0,0.0,0.0,0.0,0.0,0.0,0.0,0.0,0.0,0.0,0.0,0.0,0.0,0.0,0.0,0.0,-1.218,-1.2761,-1.3198,-1.4205,-1.4887,-1.5067,-1.6385,-1.7484,-1.8255,-1.8792,-1.9527,-2.0447,-2.097,-2.1882,-2.3126,-2.3793,-2.4747,-2.6009,-2.7158,-2.8128,-2.9,-3.0156,-3.1112,-3.1862,-3.207,-3.2961,-3.4206,-3.4239,-3.5053,-3.6246,-3.6895,-3.7937,-3.9142,0.0,0.0,0.0,0.0,0.0,0.0,0.0,0.0,0.0,0.0,0.9655,0.9128,0.8282,0.7806,0.0,0.0,0.5942,0.5157,0.4415,0.3533,0.0,0.0,0.0,0.0,0.0,0.0,0.0,0.0,0.0,0.0,0.0,0.0,0.0,0.0,0.0,0.0,0.0,0.0,0.0,-0.7421,-0.9452,-1.0605,0.0,0.0,-1.452,-1.3228,-1.4944,-1.5358,-1.5233,-1.5705,-1.4182,0.0,0.0,0.0,0.0,0.0,-0.2144,0.0,0.0,0.0,0.0,0.0,0.0999,0.0,0.1399,0.1656,0.1731,0.105,0.0375,0.0,0.0,0.0,0.0,0.0,0.0,0.0,0.0,0.0,0.0,0.0,0.0,0.0,-1.2074,-1.256,-1.3316,-1.4521,-1.5089,-1.5787,-1.6666,-1.7484,-1.8143,-1.8578,-1.9267,-2.0042,-2.0845,-2.144,-2.2328,-2.3501,-2.452,-2.5536,-2.6544,-2.7875,-2.9007,-2.9984,-3.0671,-3.181,-3.3249,-3.3674,-3.3905,-3.4087,-3.4774,-3.5704,-3.6798,-3.8104,-3.9175,-4.012,0.0,0.0,0.0,0.0,0.0,0.0,0.0,0.0,0.0,0.0,0.9602,0.8907,0.8207,0.751,0.0,0.0,0.5224,0.4442,0.3593,0.2617,0.0,0.0,0.0,0.0,0.0,0.0,0.0,0.0,0.0,0.0,0.0,0.0,0.0,0.0,0.0,0.0,0.0,0.0,0.0,-0.9516,-1.0873,0.0,-1.4239,-1.5785,-1.6299,-1.615,-1.5845,-1.5987,-1.6285,-1.6335,-1.465,-1.216,0.0,0.0,0.0,-0.4269,0.0,0.0,0.0,0.0,0.0,0.0,0.0,0.0,0.0649,0.0742,0.0599,0.0,-0.0545,0.0,0.0,0.0,0.0,0.0,0.0,0.0,0.0,0.0,0.0,0.0,0.0,0.0,-1.305,-1.3491,-1.4087,-1.5138,-1.6017,-1.6779,-1.7451,-1.7843,-1.8441,-1.9186,-1.976,-2.0472,-2.1288,-2.2245,-2.3336,-2.4597,-2.5507,-2.6767,-2.8338,-2.9138,-3.0016,-3.1002,-3.2144,-3.2925,-3.349,-3.484,-3.5407,-3.5456,-3.5928,-3.6868,-3.8145,-3.9193,-4.0127,-4.0987,0.0,0.0,0.0,0.0,0.0,0.0,0.0,0.0,0.0,1.0184,0.9228,0.8358,0.7596,0.697,0.0,0.0,0.0,0.0,0.0,0.0,0.0,0.0,0.0,0.0,0.0,0.0,0.0,0.0,0.0,0.0,0.0,0.0,0.0,0.0,0.0,0.0,0.0,0.0,-1.0297,-1.2515,-1.1042,0.0,-1.2996,-1.4096,-1.4803,-1.5114,-1.5363,-1.6168,-1.7156,-1.7234,-1.5688,0.0,0.0,-1.016,-0.8556,0.0,-0.4928,-0.5083,0.0,0.0,0.0,-0.1473,0.0,0.0,0.0,-0.0382,-0.0348,-0.0897,-0.1014,-0.1175,-0.1567,0.0,0.0,0.0,0.0,0.0,0.0,0.0,0.0,0.0,0.0,0.0,-1.3269,-1.3525,-1.4251,-1.5891,-1.6779,-1.7451,-1.787,-1.8441,-1.9081,-1.9785,-2.0396,-2.1175,-2.219,-2.2957,-2.4071,-2.5437,-2.6431,-2.7665,-2.9007,-2.9981,-3.0959,-3.1996,-3.2797,-3.3745,-3.4748,-3.558,-3.6406,-3.7228,-3.7344,-3.8121,-3.9234,-4.0135,-4.1182,-4.2314,1.488,0.0,0.0,0.0,0.0,0.0,0.0,0.0,0.0,0.9755,0.8672,0.741,0.5872,0.0,0.0,0.0,0.0,0.0,0.0,0.0,0.0,0.0,0.0,-0.3382,0.0,0.0,0.0,0.0,0.0,0.0,0.0,0.0,0.0,0.0,0.0,0.0,0.0,0.0,0.0,-1.533,0.0,-1.1055,-1.2609,-1.3652,-1.4303,-1.4703,-1.5565,-1.6775,-1.7992,-1.8283,-1.6891,-1.4721,-1.2741,-1.1202,0.0,0.0,0.0,0.0,0.0,0.0,0.0,0.0,0.0,-0.1931,0.0,0.0,0.0,-0.1535,-0.1548,0.0,0.0,0.0,0.0,0.0,0.0,0.0,0.0,0.0,0.0,0.0,0.0,0.0,-1.2898,-1.3195,-1.4184,-1.6307,-1.7109,-1.7671,-1.8063,-1.898,-1.9759,-2.0346,-2.1149,-2.2059,-2.3199,-2.3909,-2.4907,-2.6208,-2.7355,-2.848,-2.955,-3.0742,-3.1974,-3.3198,-3.3543,-3.4636,-3.6174,-3.639,-3.737,-3.8807,-3.873,-3.9268,-4.022,-4.1148,-4.2281,-4.3409,1.4808,1.4376,0.0,0.0,0.0,0.0,0.0,0.0,0.0,0.9119,0.7987,0.5811,0.0,0.0,0.0,0.0,0.0,0.0,-0.4454,0.0,0.0,0.0,0.0,0.0,-0.6294,0.0,0.0,0.0,0.0,0.0,0.0,0.0,0.0,0.0,-1.0547,0.0,0.0,0.0,-1.3519,0.0,-1.4365,-1.5486,0.0,-1.9447,-1.9845,-1.9823,-1.8906,-1.8673,-1.8942,0.0,-1.8021,-1.5703,0.0,-1.2792,-1.0796,-0.768,0.0,0.0,0.0,0.0,0.0,0.0,-0.5206,0.0,0.0,0.0,-0.2636,-0.257,0.0,0.0,0.0,0.0,0.0,0.0,0.0,0.0,0.0,0.0,0.0,0.0,0.0,0.0,0.0,-1.2909,-1.4237,-1.5953,-1.6531,-1.7145,-1.7974,-1.9125,-2.0093,-2.0894,-2.212,-2.3182,-2.3979,-2.5497,-2.6465,-2.6916,-2.8337,-2.9587,-3.0666,-3.1817,-3.3271,-3.4943,-3.5349,-3.6009,-3.6884,-3.7768,-3.8679,-3.9569,-3.9706,-4.0195,-4.1055,-4.2578,-4.324,-4.3477,1.4959,1.4477,0.0,0.0,0.0,0.0,0.0,0.0,0.0,0.8235,0.7291,0.0,0.0,0.0,0.0,0.0,0.0,-1.0454,0.0,0.0,0.0,0.0,0.0,0.0,0.0,0.0,0.0,0.0,-1.0249,0.0,0.0,0.0,0.0,0.0,-1.1631,0.0,-1.5759,0.0,-1.7305,0.0,0.0,0.0,0.0,-1.9083,-1.8095,-1.8841,-1.991,-2.0166,-2.0152,0.0,-1.9485,0.0,0.0,0.0,0.0,0.0,0.0,0.0,0.0,0.0,0.0,0.0,0.0,0.0,-0.6092,0.0,-0.3795,0.0,0.0,0.0,0.0,0.0,0.0,0.0,-0.4713,0.0,0.0,0.0,0.0,0.0,0.0,0.0,0.0,0.0,0.0,0.0,-1.6546,-1.7243,-1.8385,-1.9431,-2.0355,-2.1188,-2.2664,-2.3841,-2.4793,-2.6236,-2.74,-2.829,-2.9545,-3.0627,-3.1626,-3.3143,-3.4388,-3.5356,-3.6113,-3.6967,-3.7816,-3.8753,-3.967,-4.0538,-4.1546,-4.2139,-4.2476,-4.3172,-4.3707,-4.4147,1.4728,1.4287,1.3716,0.0,0.0,0.0,0.0,0.0,0.0,0.0,0.0,0.0,-0.3761,-0.5219,0.0,0.0,-1.355,-1.5078,0.0,0.0,-1.4229,0.0,0.0,0.0,0.0,0.0,0.0,0.0,0.0,0.0,0.0,0.0,0.0,0.0,0.0,-1.4543,-1.7203,0.0,-2.0117,-2.4641,-2.4058,-2.443,-2.4804,-1.9698,-1.8067,-1.8814,-2.0964,-2.1494,-2.1334,-2.2263,-2.1024,0.0,-1.9618,0.0,0.0,0.0,0.0,0.0,-1.431,0.0,0.0,0.0,0.0,0.0,0.0,0.0,0.0,0.0,0.0,0.0,0.0,0.0,0.0,0.0,0.0,-0.5674,0.0,0.0,0.0,0.0,0.0,0.0,0.0,0.0,0.0,-1.5984,-1.6353,-1.7146,-1.8552,-1.9851,-2.0948,-2.1742,-2.3746,-2.5171,-2.5918,-2.7493,-2.8711,-2.9546,-3.0853,-3.1866,-3.2582,-3.4345,-3.5485,-3.6104,-3.6913,-3.793,-3.9061,-3.9752,-4.062,-4.1728,-4.2942,-4.3646,-4.4012,-4.3836,-4.4107,-4.4615,1.3908,1.3586,1.3222,1.2606,0.0,0.0,0.0,0.0,0.0,0.0,0.0,0.0,0.0,0.0,0.0,0.0,0.0,-2.1249,-1.871,0.0,-1.7606,0.0,0.0,-1.5346,0.0,0.0,0.0,0.0,0.0,0.0,0.0,0.0,0.0,0.0,-1.2801,-1.4608,-1.7223,-1.7744,-2.0577,-2.4669,-2.4574,-2.4087,-2.3402,0.0,-2.3001,-2.195,-2.2832,0.0,0.0,-2.3615,-2.2536,0.0,0.0,0.0,0.0,0.0,0.0,0.0,0.0,0.0,0.0,-1.5545,0.0,0.0,0.0,0.0,-0.7119,0.0,0.0,0.0,0.0,0.0,0.0,0.0,0.0,0.0,0.0,0.0,0.0,0.0,0.0,0.0,0.0,0.0,-1.2846,-1.517,-1.5641,-1.6534,-1.8122,-2.0452,-2.2067,-2.2717,-2.5901,-2.7558,-2.7534,-2.9886,-3.0822,-3.037,-3.2285,-3.3371,-3.3688,-3.523,-3.6589,-3.7734,-3.8031,-3.907,-4.0554,-4.0695,-4.1695,-4.3143,-4.3348,-4.4288,-4.5563,-4.4958,-4.4692,-4.4643,1.2853,1.2701,1.2599,1.2131,1.1842,0.0,0.0,0.5997,0.0,0.0,-0.1395,0.0,0.0,-1.5682,-1.6905,0.0,0.0,-2.0868,-1.9476,-1.8038,0.0,0.0,0.0,-1.8656,0.0,0.0,0.0,0.0,0.0,0.0,0.0,0.0,0.0,0.0,0.0,-1.5897,0.0,0.0,0.0,0.0,0.0,-2.6754,-2.5742,0.0,-2.3359,-2.2284,-2.3515,-2.4184,0.0,-2.5275,-2.4904,-2.4204,-2.4409,-2.3929,-2.3227,-2.3014,-2.2868,0.0,0.0,0.0,-2.1886,-1.988,0.0,0.0,0.0,0.0,0.0,0.0,0.0,0.0,0.0,0.0,0.0,0.0,0.0,0.0,0.0,0.0,0.0,0.0,0.0,0.0,0.0,0.0,0.0,-1.5663,-1.6067,-1.7126,-1.9271,-2.0597,-2.1966,-2.3484,-2.5944,-2.7575,-2.8241,-3.0297,-3.1713,-3.2437,-3.3323,-3.4122,-3.5021,-3.6276,-3.7183,-3.7826,-3.8586,-3.9481,-4.0431,-4.1094,-4.1888,-4.2827,-4.3665,-4.4282,-4.4817,-4.5258,-4.5693,-4.6167,1.202,1.1898,0.0,0.0,0.0,0.0,0.0,0.0,0.0,0.0,-0.6381,0.0,-1.68,0.0,-1.9924,0.0,-2.2051,-2.2507,-2.214,-2.0457,0.0,-2.6463,-2.2776,0.0,0.0,0.0,0.0,0.0,0.0,-1.6691,0.0,0.0,0.0,0.0,0.0,-1.6573,-1.8053,-2.1683,-2.4127,0.0,0.0,-2.8789,0.0,0.0,-2.4783,-2.3402,0.0,-2.5959,-2.629,-2.6798,-2.6949,-2.6889,-2.6745,-2.6774,-2.6813,-2.664,-2.6517,-2.6371,-2.6194,-2.6161,0.0,-2.2849,-2.1843,0.0,-1.8369,0.0,0.0,0.0,0.0,0.0,0.0,0.0,0.0,0.0,0.0,0.0,0.0,-0.8848,0.0,0.0,0.0,0.0,0.0,0.0,-1.4157,-1.6178,-1.672,-1.789,0.0,0.0,-2.3015,-2.4334,-2.7038,-2.8714,-2.9249,-3.162,-3.3155,-3.3803,-3.4671,-3.5535,-3.6295,-3.7256,-3.7856,-3.822,-3.916,-3.9996,-4.0746,-4.1559,-4.2484,-4.3448,-4.4206,-4.4888,-4.5446,-4.5732,-4.6345,-4.7214,1.1497,1.1227,0.0,0.0,0.7038,0.0,0.0,0.0,-0.7112,0.0,-1.4194,-1.6707,-2.1763,-2.3392,-2.4388,-2.5197,-2.5544,-2.5914,-2.6454,-2.4033,0.0,0.0,-2.5914,-2.6262,-2.934,0.0,0.0,0.0,0.0,0.0,0.0,0.0,0.0,0.0,-1.5994,0.0,-1.7995,-2.1795,-2.4074,-2.5444,-2.9112,-3.0056,-2.9268,-2.9134,-2.7468,-2.5456,-2.755,-2.7826,-2.7274,-2.8161,-2.8656,-2.8744,-2.7989,-2.7924,-2.8133,-2.8133,-2.7911,-2.7679,-2.7962,-2.7783,-2.6961,-2.4632,0.0,0.0,0.0,0.0,-1.7798,0.0,0.0,0.0,0.0,0.0,0.0,0.0,0.0,0.0,0.0,0.0,0.0,0.0,0.0,0.0,0.0,-1.3656,-1.4772,-1.6603,-1.7555,-1.8757,0.0,0.0,-2.4985,-2.5268,-2.9053,-3.087,-3.0441,-3.3687,-3.5042,-3.4365,-3.6356,-3.7421,-3.7557,-3.82,-3.8609,-3.8914,-3.9808,-4.0673,-4.148,-4.2208,-4.3451,-4.4867,-4.49,-4.5954,-4.7306,-4.652,-4.6766,-4.7689,1.1731,1.1104,1.0382,0.0,0.5704,0.2462,0.0,0.0,0.0,0.0,-1.2018,-1.3643,-2.2982,-2.3017,-2.3335,-2.5784,-2.4335,0.0,0.0,0.0,0.0,-2.7217,-2.5779,-2.6808,-3.0912,-2.7023,0.0,-2.9812,0.0,0.0,-2.2113,0.0,0.0,0.0,0.0,-1.7635,-1.8725,-2.1812,-2.5229,-2.8794,-3.0855,-3.1047,-3.0117,0.0,-3.051,-2.8924,-2.8571,-2.8746,-2.9193,-2.9373,-2.9635,-2.9826,-2.9791,-2.9786,-2.9869,-3.0011,-2.9853,-2.96,-2.9665,-2.9382,-2.8842,-2.764,-2.741,-2.7099,0.0,0.0,0.0,0.0,0.0,0.0,0.0,0.0,0.0,0.0,0.0,0.0,0.0,0.0,0.0,-1.1948,0.0,0.0,-1.3863,-1.4823,-1.5912,-1.7182,-1.8093,-1.9534,-2.1709,0.0,0.0,-2.6481,-2.8205,-2.9653,-3.0748,-3.3291,-3.4806,-3.5266,-3.677,-3.7731,-3.8311,-3.906,-3.9523,-3.9803,-4.0673,-4.1484,-4.2208,-4.2406,-4.3337,-4.4596,-4.4806,-4.6012,-4.7597,-4.7796,-4.8179,-4.8659,1.1338,1.0819,0.0,0.838,0.0,0.0,-0.1961,-0.5444,0.0,-1.7046,-1.494,0.0,-2.3864,-2.4514,-2.4766,-2.5894,-2.5808,0.0,-2.6451,0.0,0.0,-2.9669,-2.7584,-2.8263,-3.2414,-2.8955,0.0,-3.106,0.0,0.0,-2.2855,0.0,0.0,0.0,0.0,-1.8782,-1.9938,-2.3531,-2.7016,-3.0405,-3.2071,-3.2453,0.0,-3.2866,-3.257,-3.157,-3.0848,-3.0719,-3.0811,-3.0545,-3.0667,-3.0965,-3.0846,-3.0929,-3.1097,-3.1264,-3.1141,-3.0959,-3.0919,-3.0651,-3.0188,-2.9555,-2.9365,-2.9071,-2.8134,-2.7596,-2.6883,0.0,0.0,0.0,0.0,0.0,0.0,0.0,0.0,0.0,0.0,0.0,0.0,0.0,-1.3796,0.0,-1.4724,-1.5649,-1.6652,-1.7673,-1.8818,-2.0352,0.0,0.0,0.0,-2.7095,-2.8791,-3.0399,-3.1918,-3.4341,-3.5858,-3.6587,-3.7889,-3.8721,-3.9093,-3.9838,-4.0275,-4.0536,-4.1403,-4.2022,-4.2451,-4.3112,-4.4007,-4.5065,-4.6005,-4.6924,-4.782,-4.8221,-4.8642,-4.9018,1.0047,0.973,0.0,0.0,0.0,0.0,0.0,-1.0385,0.0,-2.1135,0.0,-1.9916,-2.4748,-2.6448,-2.6954,-2.625,0.0,-2.9609,-2.9357,-2.9277,-3.029,-3.2759,-2.9919,-2.9968,-3.3716,-3.1962,-3.1165,0.0,0.0,0.0,0.0,0.0,0.0,0.0,0.0,0.0,0.0,-2.5927,-2.8973,-3.1083,-3.3007,-3.3941,-3.4211,-3.4261,-3.3977,-3.3551,-3.3528,-3.2936,-3.2098,-3.1645,-3.1789,-3.2133,-3.1712,-3.1938,-3.2287,-3.2254,-3.2189,-3.2102,-3.1985,-3.1621,-3.1203,-3.0752,-3.0211,-2.9645,-2.9042,-2.8099,-2.7361,-2.7275,-2.6661,-2.6012,0.0,0.0,0.0,0.0,0.0,0.0,0.0,0.0,0.0,0.0,0.0,0.0,0.0,-1.6501,-1.7317,-1.8068,-1.9504,0.0,0.0,0.0,0.0,-2.7559,-2.9957,-3.1876,-3.3345,0.0,-3.7305,-3.7695,-3.9111,-3.9748,-3.9768,-4.0486,-4.0932,-4.1238,-4.2074,-4.2528,-4.2697,-4.3979,-4.5032,-4.5955,-4.7534,-4.8098,-4.8001,-4.813,-4.855,-4.9027,0.6668,0.0,0.0,0.0,0.0,-0.923,-0.8276,-1.0069,-1.4408,-2.2468,-1.9421,-1.9239,-2.6484,-2.5864,-2.6092,-2.9046,-2.9077,0.0,0.0,0.0,0.0,-3.0943,-2.9715,-3.0663,-3.4178,-3.164,-3.1276,0.0,0.0,0.0,0.0,0.0,0.0,0.0,0.0,0.0,-2.485,-2.7261,0.0,-3.2182,-3.415,-3.4823,-3.475,-3.5187,-3.5114,-3.4824,-3.4626,-3.3635,-3.2442,-3.2482,-3.2861,-3.3325,-3.3646,-3.4098,-3.449,-3.4226,-3.3947,-3.3633,-3.3357,-3.2607,-3.1925,-3.1897,-3.1563,-3.1019,-3.0293,-2.968,-2.9186,-2.8735,-2.814,-2.7535,-2.6998,0.0,0.0,0.0,0.0,0.0,0.0,0.0,0.0,0.0,0.0,-1.7482,0.0,0.0,0.0,-1.8377,0.0,0.0,0.0,0.0,0.0,0.0,-2.9962,0.0,0.0,0.0,-3.7092,-3.707,-3.8351,-3.9313,-3.9907,-4.0627,-4.1369,-4.2137,-4.298,-4.3701,-4.4293,-4.4558,-4.5452,-4.6776,-4.7702,-4.8033,-4.8001,-4.8033,-4.8562,-4.919,0.5435,0.0,0.0,0.0,0.0,0.0,0.0,-1.4956,-1.8707,-2.357,-2.1036,-2.1292,-2.7862,-2.7925,-2.8211,-2.996,-3.0733,-3.1361,-3.1914,-3.1605,-3.2209,-3.3781,-3.2206,-3.2524,-3.5169,-3.2908,-3.2398,-3.3779,0.0,0.0,0.0,0.0,0.0,0.0,0.0,-2.5411,0.0,0.0,0.0,-3.348,-3.5284,-3.5965,-3.5844,-3.579,-3.5787,-3.581,-3.5705,-3.5059,-3.4222,-3.3905,-3.4055,-3.4413,-3.4944,-3.5256,-3.548,-3.5548,-3.5227,-3.4821,-3.4451,-3.3569,-3.2667,-3.2414,-3.1984,-3.1399,-3.0741,-3.0237,-2.9789,-2.9201,-2.8711,-2.8217,-2.766,-2.5346,0.0,0.0,0.0,0.0,0.0,0.0,0.0,0.0,0.0,0.0,0.0,0.0,0.0,0.0,0.0,0.0,0.0,0.0,0.0,0.0,0.0,0.0,0.0,0.0,0.0,-3.7354,-3.8995,-3.9989,-4.041,-4.1576,-4.2383,-4.2891,-4.3373,-4.4026,-4.4754,-4.5516,-4.6477,-4.7504,-4.7966,-4.8364,-4.8729,-4.8663,-4.9194,-4.9759,0.0,0.376,0.0,0.0,-0.6068,0.0,-1.5392,-1.995,-2.3444,-2.4759,-2.3599,-2.4415,-2.9082,-3.025,-3.0739,-3.0815,-3.2542,-3.3887,-3.4473,-3.5211,-3.5832,-3.6361,-3.4792,-3.4428,-3.568,-3.4482,-3.3919,0.0,0.0,0.0,0.0,0.0,0.0,0.0,0.0,0.0,0.0,0.0,-3.4654,-3.5259,-3.6479,-3.7042,-3.7092,-3.6686,-3.6704,-3.6969,-3.6868,-3.668,-3.6381,-3.5638,-3.5384,-3.5443,-3.5908,-3.6119,-3.633,-3.6665,-3.6346,-3.5764,-3.5473,-3.4433,-3.331,-3.2921,-3.2278,-3.1646,-3.1164,-3.0742,-3.0254,-2.9693,-2.9122,-2.857,-2.8067,-2.6301,0.0,0.0,0.0,0.0,0.0,0.0,0.0,0.0,0.0,0.0,-1.9381,0.0,0.0,0.0,0.0,0.0,-2.3591,0.0,0.0,0.0,0.0,-3.2741,-3.4296,0.0,-3.7616,-3.7996,-3.9887,-4.0877,-4.1043,-4.2526,-4.3333,-4.3649,-4.3935,-4.4489,-4.5251,-4.6576,-4.757,-4.8233,-4.8364,-4.8861,-4.956,-4.9493,-4.9959,-5.0491,0.0,0.0,0.0,0.0,0.0,0.0,-1.6968,-2.1225,-2.5073,-2.6255,-2.6756,-2.7888,-3.0215,-3.1022,-3.192,-3.3162,-3.3941,-3.4849,-3.5854,-3.6151,-3.5839,-3.4873,-3.5635,-3.5675,-3.4725,-3.5437,-3.5608,0.0,0.0,-3.086,0.0,0.0,0.0,0.0,0.0,0.0,0.0,-3.444,-3.5908,-3.7961,-3.7678,-3.7828,-3.8233,-3.8203,-3.8471,-3.8881,-3.839,-3.8324,-3.8356,-3.7782,-3.6988,-3.6276,-3.6727,-3.7273,-3.7677,-3.7643,-3.7147,-3.6604,-3.627,-3.5036,-3.3804,-3.3777,-3.3033,-3.2309,-3.2227,-3.1826,-3.1294,-3.0834,-2.9821,-2.8888,-2.8281,-2.8419,-2.7806,0.0,0.0,0.0,0.0,0.0,-1.9942,-2.0561,0.0,0.0,0.0,-2.3781,0.0,0.0,-2.2009,0.0,0.0,0.0,0.0,-3.1468,0.0,-3.4001,-3.6569,-3.8084,-3.8815,-3.8887,-4.032,-4.1256,-4.1727,-4.2876,-4.3751,-4.4441,-4.5256,-4.6013,-4.6742,-4.757,-4.8332,-4.8995,-4.8995,-4.9458,-5.0121,-5.0121,-5.0586,-5.1183,0.0,0.0,0.0,0.0,0.0,0.0,0.0,-2.2069,-2.5024,-2.5205,-2.7045,-2.9277,-3.1619,-3.2173,-3.2545,-3.2909,-3.4353,-3.4854,-3.4043,-3.5859,-3.6454,-3.5377,-3.6476,-3.6894,-3.642,-3.6671,-3.6632,0.0,0.0,0.0,0.0,0.0,0.0,0.0,0.0,-3.444,-3.6629,-3.7282,-3.8171,-3.9138,-3.9105,-3.9303,-3.9579,-3.9251,-3.9459,-3.9902,-3.9691,-3.9659,-3.9679,-3.9488,-3.8543,-3.7508,-3.7825,-3.8145,-3.8323,-3.8417,-3.7782,-3.7091,-3.716,-3.5967,-3.4683,-3.4838,-3.4018,-3.3211,-3.3211,-3.2538,-3.1861,-3.1653,-3.066,-2.9664,-2.9053,-2.8771,-2.8213,0.0,0.0,0.0,0.0,0.0,0.0,0.0,0.0,-2.376,0.0,0.0,0.0,0.0,0.0,0.0,0.0,0.0,0.0,-3.0693,0.0,-3.4871,-3.6581,-3.8526,-3.9444,-3.9392,-4.114,-4.2152,-4.2509,-4.3899,-4.4807,-4.5324,-4.6114,-4.6643,-4.6974,-4.7703,-4.8431,-4.906,-4.896,-4.9756,-5.0955,-5.0745,-5.1278,-5.2051,-0.8706,0.0,-0.8832,0.0,-1.461,-1.6595,-1.8702,-2.2746,-2.563,-2.5753,-2.789,-3.0231,-3.2299,-3.2846,-3.2818,-3.22,-3.398,-3.4446,-3.2874,-3.5294,-3.6462,-3.585,-3.6977,0.0,-3.656,-3.7211,-3.7292,-3.6654,-3.7151,0.0,0.0,0.0,0.0,0.0,-3.559,-3.6922,-3.8501,-3.9337,-3.9864,-4.0065,-4.0337,-4.0612,-4.0864,-4.0574,-4.0707,-4.1126,-4.0938,-4.0931,-4.0952,-4.0576,-3.9714,-3.8842,-3.8887,-3.9068,-3.9177,-3.923,-3.8515,-3.7842,-3.8196,-3.7001,-3.5664,-3.5753,-3.4778,-3.3862,-3.3935,-3.3233,-3.2561,-3.2529,-3.1552,-3.0503,-2.9985,-2.9364,-2.8741,-2.826,0.0,0.0,0.0,0.0,0.0,0.0,-2.4972,-2.4989,-2.5521,-2.5705,0.0,0.0,0.0,0.0,0.0,0.0,0.0,0.0,0.0,0.0,-3.734,-3.9145,-4.0152,-4.0323,-4.2126,-4.3166,-4.352,-4.4885,-4.5863,-4.6413,-4.691,-4.7274,-4.7505,-4.8067,-4.8895,-4.9756,-4.9587,-5.0451,-5.1719,-5.1506,-5.1874,-5.2551,-1.0464,-1.1439,-1.3031,-1.3995,-1.5857,-1.7475,-1.826,-2.3286,-2.7515,-2.9038,-3.0051,-3.1056,-3.2001,-3.2838,-3.2775,-3.1436,-3.2727,-3.3475,-3.323,-3.4678,-3.5603,0.0,0.0,-3.6465,-3.4099,-3.6822,-3.7494,-3.5804,0.0,0.0,-3.4702,0.0,-3.5491,-3.5983,-3.7748,-3.9013,-3.9784,-3.9879,-4.0367,-4.1165,-4.1213,-4.1559,-4.211,-4.229,-4.2596,-4.2792,-4.2215,-4.214,-4.2227,-4.1086,-4.0445,-4.0142,-3.9868,-4.0142,-4.0501,-4.0074,-3.9554,-3.9127,-3.9424,-3.8086,-3.6615,-3.6429,-3.531,-3.4269,-3.4448,-3.4142,-3.3722,-3.3521,-3.2457,-3.1464,-3.112,-3.0511,-2.996,-2.962,0.0,0.0,0.0,0.0,0.0,-2.53,-2.5655,-2.6643,-2.8385,-2.7946,0.0,0.0,0.0,0.0,0.0,0.0,0.0,-3.4891,-3.5896,0.0,-3.9556,-4.03,-4.1135,-4.2005,-4.3353,-4.4236,-4.4787,-4.57,-4.6683,-4.7671,-4.7704,-4.81,-4.8791,-4.9027,-4.9955,-5.1282,-5.1282,-5.1746,-5.2409,-5.2409,-5.2373,-5.2409,-1.4503,-1.567,-1.7135,-1.8526,-1.9988,-2.0706,-2.0052,-2.44,-2.7501,-2.6731,-2.946,-3.173,-3.2426,-3.3304,-3.3309,0.0,-3.4299,-3.4768,0.0,-3.5111,-3.6638,-3.596,-3.6847,-3.7296,-3.7043,-3.7672,-3.8014,-3.7901,0.0,0.0,0.0,-3.8533,-3.88,-3.9141,-4.0133,-4.0529,-4.0514,-4.1295,-4.1741,-4.1951,-4.2268,-4.278,-4.3348,-4.3088,-4.319,-4.3348,-4.2992,-4.2664,-4.241,-4.2487,-4.1953,-4.137,-4.1764,-4.1005,-3.9963,-3.976,-3.9683,-3.9634,-3.9844,-3.9057,-3.8225,-3.8457,-3.7086,-3.5683,-3.5973,-3.5297,-3.4401,-3.395,-3.3064,-3.2238,-3.1769,-3.0911,-3.0235,-3.0266,-2.9951,0.0,0.0,0.0,0.0,0.0,-2.8038,-2.7805,-2.9324,-2.9945,0.0,0.0,0.0,0.0,0.0,0.0,0.0,0.0,-3.64,0.0,-4.1459,-4.2233,-4.278,-4.3165,-4.4561,-4.5666,-4.6448,-4.6878,-4.7241,-4.7603,-4.8331,-4.8695,-4.8824,-4.9555,-5.0419,-5.128,-5.114,-5.1638,-5.2373,-5.223,-5.2266,-5.2409,-1.6633,-1.693,-1.7451,-1.8675,-2.0056,-2.0827,-2.0322,-2.4932,-2.8134,-2.7268,-3.0003,-3.2273,-3.2874,-3.3507,0.0,-3.1841,-3.4105,-3.4593,-3.2111,-3.4889,-3.6655,-3.6677,-3.7186,-3.7631,-3.7936,-3.8356,0.0,-3.8656,-3.93,-3.9859,-4.0386,-4.0443,-4.0703,-4.113,-4.1608,-4.1796,-4.1801,-4.2685,-4.312,-4.3212,-4.3695,-4.404,-4.4228,-4.404,-4.3851,-4.3709,-4.3594,-4.3298,-4.305,-4.3436,-4.2932,-4.227,-4.2803,-4.182,-4.053,-4.059,-4.083,-4.0969,-4.0949,-4.0147,-3.9431,-3.974,-3.8347,-3.6875,-3.6896,-3.6287,-3.5544,-3.4951,-3.4137,-3.3415,-3.2936,-3.2009,-3.1295,-3.1263,-3.0906,-3.0672,-3.0733,0.0,0.0,0.0,0.0,0.0,0.0,-3.1896,-3.2606,0.0,0.0,0.0,0.0,0.0,0.0,-3.5668,-3.7947,0.0,-4.2558,-4.3136,-4.3717,-4.443,-4.5628,-4.6574,-4.7201,-4.7267,-4.7369,-4.7536,-4.8394,-4.8922,-4.9286,-5.0114,-5.0979,-5.1678,-5.1572,-5.1869,-5.2373,-5.223,-5.2266,-5.2409,-1.7125,-1.5996,-1.5256,0.0,-1.754,0.0,-1.9911,-2.5139,-2.9302,-3.0069,-3.1447,-3.264,-3.3262,-3.3501,-3.2982,-3.1389,0.0,0.0,0.0,-3.4339,-3.5985,-3.7801,-3.786,-3.7644,-3.72,-3.8868,-3.9294,-3.8403,-4.0231,-4.1099,-4.1042,-4.1156,-4.1526,-4.2194,-4.2439,-4.2897,-4.3556,-4.4043,-4.448,-4.4818,-4.5306,-4.5218,-4.4833,-4.5018,-4.4676,-4.4021,-4.4021,-4.3993,-4.3965,-4.4021,-4.3482,-4.286,-4.317,-4.2693,-4.2037,-4.221,-4.2595,-4.2873,-4.2497,-4.1376,-4.0304,-4.0471,-3.9194,-3.7783,-3.7207,-3.7071,-3.689,-3.6441,-3.5613,-3.4879,-3.4439,-3.3621,-3.2866,-3.242,-3.183,-3.1428,-3.1467,0.0,0.0,0.0,0.0,0.0,0.0,-3.3819,-3.5334,0.0,0.0,0.0,0.0,0.0,-3.6797,-3.8727,-4.0133,-4.1564,-4.2964,-4.3226,-4.4129,-4.5649,-4.6433,-4.6929,-4.7132,-4.6996,-4.7131,-4.7567,-4.8085,-4.8942,-5.0008,-5.0768,-5.1636,-5.2409,-5.2409,-5.2409,-5.2409,-5.2409,-5.2409,-5.2409,0.0,0.0,-1.9901,-2.1372,-2.2503,-2.3749,-2.5236,-2.7564,-2.9544,-3.0623,-3.1578,-3.2591,-3.3618,-3.375,-3.3768,-3.3835,-3.4616,-3.5239,-3.5583,-3.6403,-3.7451,-3.8676,-3.8427,-3.8454,-3.8816,-3.9106,-3.9306,-3.9361,-4.1357,-4.2018,-4.1481,-4.2514,-4.3332,-4.4017,-4.4514,-4.5026,-4.5448,-4.5259,-4.5625,-4.6299,-4.5566,-4.552,-4.5792,-4.5293,-4.4769,-4.4256,-4.4068,-4.3948,-4.3934,-4.3948,-4.3448,-4.2838,-4.3621,-4.3589,-4.3128,-4.2299,-4.2403,-4.2772,-4.2666,-4.2258,-4.179,-4.1625,-4.0328,-3.8872,-3.8116,-3.7634,-3.7429,-3.7561,-3.6292,-3.5125,-3.5002,-3.4026,-3.3206,-3.302,-3.2683,-3.2149,-3.1307,-3.0748,0.0,0.0,-3.1723,-3.2527,-3.4664,-3.5847,-3.6677,0.0,0.0,0.0,0.0,-3.9945,-3.9723,-3.8766,-4.0483,-4.2132,-4.3729,-4.427,-4.5107,-4.6112,-4.5968,-4.6203,-4.6722,-4.6996,-4.7389,-4.7939,-4.9008,-4.9869,-5.0591,-5.1633,-5.2172,-5.2409,-5.2409,-5.2409,-5.2409,-5.2409,-5.2409,-5.2409,-1.8691,-2.0052,-2.1696,-2.324,-2.4421,-2.5672,-2.7137,-2.8637,-2.9953,-3.106,-3.1842,-3.2698,-3.3728,-3.3888,-3.4162,-3.4735,-3.523,-3.5822,-3.655,-3.7041,-3.7775,-3.8952,-3.8706,-3.8898,-3.9661,-3.9631,-4.001,-4.086,-4.2239,-4.2821,-4.2682,-4.3429,-4.4265,-4.5191,-4.5633,-4.6322,-4.7073,-4.6959,-4.7134,-4.7349,-4.6731,-4.6387,-4.618,-4.5911,-4.5367,-4.4723,-4.4676,-4.4635,-4.4681,-4.4794,-4.4633,-4.4298,-4.4458,-4.4451,-4.4187,-4.3075,-4.3178,-4.3518,-4.322,-4.268,-4.2063,-4.1322,-4.0821,-4.0201,-3.9221,-3.876,-3.8425,-3.8091,-3.7126,-3.623,-3.5675,-3.4905,-3.4319,-3.4129,-3.3433,-3.272,-3.2137,-3.1842,0.0,-3.3274,-3.3695,-3.4659,-3.6602,-3.7557,-3.8119,-3.8315,-3.923,0.0,-4.1064,-4.1673,-4.1522,-4.0547,-4.1843,-4.3108,-4.4322,-4.5123,-4.5893,-4.667,-4.65,-4.6834,-4.7548,-4.7793,-4.8126,-4.8654,-4.9583,-5.0284,-5.0889,-5.1789,-5.223,-5.2409,-5.2409,-5.2409,-5.2409,-5.2409,-5.2572,-5.287,-1.9517,-2.086,-2.2351,-2.3578,-2.4981,-2.6332,-2.7579,-2.9041,-3.0401,-3.1429,-3.2193,-3.2958,-3.3905,-3.4162,-3.453,-3.5152,-3.5514,-3.6045,-3.6872,-3.7185,-3.7922,-3.9242,-3.9165,-3.9408,-4.0156,-4.0358,-4.1045,-4.2247,-4.2978,-4.354,-4.3968,-4.4098,-4.4861,-4.6173,-4.6333,-4.718,-4.848,-4.8512,-4.8377,-4.8091,-4.7885,-4.7233,-4.6269,-4.6447,-4.6001,-4.5247,-4.5458,-4.564,-4.5747,-4.5795,-4.5975,-4.6035,-4.5285,-4.503,-4.4888,-4.4127,-4.4206,-4.4448,-4.3904,-4.2962,-4.1943,-4.0837,-4.1111,-4.1388,-4.0393,-3.9987,-3.9486,-3.834,-3.7964,-3.7431,-3.6127,-3.5842,-3.5647,-3.5261,-3.4061,-3.323,-3.3386,0.0,-3.3486,-3.4935,-3.5846,-3.6882,-3.8226,-3.9001,-3.9474,-3.9508,-4.0396,-4.132,-4.2088,-4.2476,-4.2774,-4.2979,-4.3579,-4.4176,-4.4875,-4.5746,-4.6521,-4.7061,-4.7371,-4.7906,-4.867,-4.867,-4.8954,-4.9473,-4.9913,-5.0493,-5.1122,-5.174,-5.2148,-5.2371,-5.2506,-5.2473,-5.2407,-5.247,-5.2867,-5.3397,-2.0754,-2.2336,-2.3979,-2.5069,-2.6426,-2.7736,-2.884,-2.962,-3.0625,-3.2118,-3.2603,-3.3352,-3.4817,-3.5001,-3.5469,-3.6567,-3.6825,-3.7229,-3.803,-3.8611,-3.945,-4.0461,-4.0764,-4.0896,-4.0854,-4.1383,-4.189,-4.2379,-4.3448,-4.4133,-4.4434,-4.4966,-4.5997,-4.734,-4.7154,-4.7941,-4.9349,-4.8457,-4.8234,-4.8449,-4.7513,-4.6886,-4.6491,-4.6314,-4.6016,-4.5702,-4.5747,-4.6255,-4.6783,-4.5858,-4.5756,-4.5947,-4.5376,-4.4729,-4.4273,-4.4677,-4.4582,-4.4303,-4.4018,-4.3526,-4.2884,-4.2126,-4.1827,-4.162,-4.1052,-4.0362,-3.9608,-3.8834,-3.8258,-3.7367,-3.5802,-3.5813,-3.5856,-3.5288,-3.4513,-3.4072,-3.4291,0.0,-3.5377,-3.629,-3.7533,-3.8728,-3.9829,-4.0047,-4.0247,-4.0557,-4.1244,-4.1852,-4.2322,-4.3455,-4.4189,-4.4401,-4.4496,-4.4907,-4.5634,-4.6334,-4.6745,-4.684,-4.7628,-4.8201,-4.8519,-4.8666,-4.9171,-4.9973,-5.0249,-5.075,-5.1512,-5.2499,-5.2613,-5.2224,-5.2964,-5.2904,-5.244,-5.2854,-5.3188,-5.3463,-2.2274,-2.3798,-2.5376,-2.6422,-2.7461,-2.8521,-2.9662,-3.0555,-3.1565,-3.2873,-3.341,-3.4193,-3.5499,-3.5621,-3.6118,-3.7335,-3.7831,-3.8455,-3.9462,-3.9572,-4.0034,-4.1024,-4.1223,-4.1456,-4.1754,-4.1907,-4.2511,-4.354,-4.3936,-4.463,-4.5496,-4.6086,-4.6977,-4.8066,-4.8225,-4.8913,-4.9939,-4.9268,-4.8929,-4.8728,-4.809,-4.7522,-4.7005,-4.6975,-4.6726,-4.6417,-4.658,-4.6945,-4.7319,-4.6804,-4.6888,-4.7087,-4.6392,-4.589,-4.5532,-4.5384,-4.4855,-4.4243,-4.4021,-4.3966,-4.3751,-4.2817,-4.2325,-4.1996,-4.1565,-4.0814,-3.9964,-3.9185,-3.8797,-3.8156,-3.6589,-3.628,-3.6246,-3.6069,-3.5406,0.0,0.0,-3.6088,-3.6793,-3.7461,-3.8975,-4.0046,-4.0366,-4.0773,-4.1093,-4.1306,-4.1755,-4.2427,-4.349,-4.4193,-4.48,-4.5286,-4.5425,-4.5742,-4.6329,-4.6755,-4.7294,-4.794,-4.8333,-4.8872,-4.9483,-4.9559,-4.9909,-5.0564,-5.1027,-5.1307,-5.1564,-5.2515,-5.2836,-5.2748,-5.3228,-5.3467,-5.3529,-5.3639,-5.4001,-5.4439,-2.3929,-2.5351,-2.6738,-2.76,-2.841,-2.9329,-3.0593,-3.1572,-3.2586,-3.3757,-3.4391,-3.5152,-3.6103,-3.638,-3.6969,-3.8153,-3.8935,-3.9849,-4.0992,-4.0734,-4.0824,-4.1458,-4.1621,-4.198,-4.2649,-4.2492,-4.317,-4.4721,-4.449,-4.5094,-4.6439,-4.6805,-4.754,-4.8551,-4.8876,-4.9534,-5.0356,-5.005,-4.9573,-4.9078,-4.88,-4.8218,-4.7568,-4.7709,-4.7538,-4.7279,-4.7452,-4.7666,-4.7807,-4.7698,-4.7932,-4.809,-4.7517,-4.7034,-4.6679,-4.6268,-4.5426,-4.4511,-4.4242,-4.4353,-4.437,-4.3381,-4.2854,-4.2456,-4.2138,-4.1318,-4.0366,-3.9451,-3.9195,-3.8745,-3.7307,-3.6827,-3.6743,-3.6896,0.0,0.0,0.0,-3.7331,-3.7956,-3.8815,-4.0248,-4.1076,-4.0927,-4.1458,-4.1908,-4.2089,-4.235,-4.3122,-4.4472,-4.4732,-4.5151,-4.5792,-4.6126,-4.648,-4.6877,-4.7342,-4.8078,-4.9043,-4.9202,-4.9699,-5.0434,-5.0434,-5.0724,-5.123,-5.1778,-5.1932,-5.1945,-5.2692,-5.311,-5.3329,-5.3519,-5.3956,-5.4415,-5.4463,-5.482,-5.5314,-2.5563,-2.707,-2.8152,-2.8542,-2.9476,-3.0622,-3.196,-3.2497,-3.3305,-3.4881,-3.5399,-3.5918,-3.6721,-3.7559,-3.8465,-3.9563,-4.0574,-4.1496,-4.2393,-4.2707,-4.2615,-4.2077,-4.2524,-4.3023,-4.3509,-4.3388,-4.3926,-4.5211,-4.5049,-4.5601,-4.6858,-4.6717,-4.7384,-4.8771,-4.8615,-4.9309,-5.055,-5.0089,-4.9693,-4.925,-4.9078,-4.8676,-4.826,-4.826,-4.826,-4.8218,-4.8218,-4.8385,-4.847,-4.809,-4.7985,-4.8035,-4.8164,-4.7318,-4.6438,-4.7486,-4.6731,-4.5411,-4.496,-4.473,-4.4463,-4.3902,-4.3538,-4.331,-4.285,-4.1925,-4.0822,-3.9655,-3.9247,-3.8644,-3.7216,-3.721,-3.7422,-3.7357,0.0,0.0,-3.8336,-3.8341,-3.8845,-4.0593,-4.1245,-4.1694,-4.2102,-4.237,-4.2654,-4.298,-4.3495,-4.4045,-4.4646,-4.5169,-4.5541,-4.5787,-4.6392,-4.685,-4.7061,-4.8402,-4.9178,-4.9469,-5.0135,-5.0602,-5.0858,-5.0858,-5.1327,-5.2139,-5.2171,-5.256,-5.3175,-5.3441,-5.3557,-5.3596,-5.4015,-5.4161,-5.4293,-5.4952,-5.5249,-5.538,-2.7376,-2.8466,-2.9254,-2.9863,-3.0335,-3.1191,-3.2933,-3.3765,-3.4758,-3.6187,-3.7247,-3.8,-3.8403,-3.9074,-3.987,-4.0821,-4.1297,-4.2035,-4.3391,-4.3344,-4.3204,-4.3019,-4.3325,-4.3595,-4.3894,-4.3713,-4.4293,-4.5594,-4.5403,-4.6127,-4.7714,-4.8239,-4.8881,-4.9632,-5.0159,-5.0456,-5.0589,-5.0214,-4.986,-4.9493,-4.925,-4.9006,-4.8718,-4.8718,-4.8635,-4.848,-4.848,-4.8552,-4.8573,-4.8604,-4.8624,-4.8664,-4.8876,-4.834,-4.7613,-4.7184,-4.6531,-4.5818,-4.5098,-4.4761,-4.4586,-4.4527,-4.3901,-4.3346,-4.3322,-4.256,-4.1595,-4.0595,-4.0227,-3.9858,-3.9023,-3.8345,-3.8102,-3.8773,0.0,-3.8008,-3.8972,-3.9053,-3.9536,-4.1005,-4.1595,-4.2035,-4.2425,-4.2934,-4.3401,-4.3733,-4.3977,-4.4502,-4.5345,-4.5971,-4.6571,-4.7087,-4.7751,-4.7947,-4.7611,-4.8795,-4.9573,-4.9987,-5.0422,-5.0628,-5.0705,-5.0705,-5.1173,-5.2043,-5.2494,-5.2928,-5.3369,-5.4026,-5.4268,-5.4307,-5.4733,-5.515,-5.5611,-5.5875,-5.5973,-5.5967,-2.8713,-2.9431,-2.9991,-3.0718,-3.125,-3.2104,-3.381,-3.5117,-3.6258,-3.7446,-3.8691,-3.9527,-3.9609,-4.0401,-4.1181,-4.1759,-4.2367,-4.3207,-4.4317,-4.4254,-4.4064,-4.3889,-4.3948,-4.4169,-4.4577,-4.4374,-4.49,-4.6242,-4.6219,-4.6914,-4.8313,-4.9134,-4.9743,-5.0131,-5.0765,-5.0898,-5.0666,-5.0518,-5.0214,-4.9892,-4.9693,-4.9533,-4.9403,-4.9291,-4.9128,-4.8893,-4.8893,-4.8852,-4.8852,-4.9169,-4.9241,-4.921,-4.9533,-4.9299,-4.8608,-4.7051,-4.6472,-4.6136,-4.5235,-4.4761,-4.4534,-4.4761,-4.4158,-4.3556,-4.3707,-4.3037,-4.2203,-4.1489,-4.1069,-4.0733,-4.0472,-3.9617,-3.9283,-4.0248,-3.9808,-3.9571,-4.0233,-4.0257,-4.0643,-4.1784,-4.2199,-4.2602,-4.3107,-4.3618,-4.4081,-4.4481,-4.4705,-4.5326,-4.6387,-4.6898,-4.7372,-4.7877,-4.8541,-4.8667,-4.8225,-4.9311,-5.0071,-5.0512,-5.0705,-5.0781,-5.0781,-5.1006,-5.1533,-5.2359,-5.314,-5.3671,-5.4017,-5.4356,-5.4623,-5.4857,-5.4953,-5.5431,-5.6046,-5.6244,-5.6251,-5.6132,-2.94,-2.996,-3.0294,-3.0925,-3.2221,-3.3581,-3.4719,-3.6364,-3.779,-3.8597,-3.9517,-4.0122,-4.0122,-4.144,-4.2331,-4.2331,-4.4097,-4.5198,-4.5198,-4.564,-4.5507,-4.4553,-4.4378,-4.4749,-4.5703,-4.5383,-4.5848,-4.7195,-4.7539,-4.7966,-4.8518,-4.9064,-4.9599,-5.0131,-5.0098,-5.0408,-5.0896,-5.0896,-5.0781,-5.0589,-5.0395,-5.0317,-5.0246,-5.001,-4.9773,-4.9613,-4.9613,-4.9461,-4.9372,-4.9773,-4.9773,-4.9693,-5.0129,-4.9971,-4.9213,-4.7328,-4.6708,-4.6374,-4.5466,-4.4754,-4.4374,-4.4534,-4.4297,-4.4026,-4.4026,-4.3317,-4.2595,-4.2177,-4.1594,-4.1109,-4.1109,-4.0926,-4.1003,-4.1611,-4.1535,-4.1611,-4.2206,-4.2065,-4.2234,-4.3196,-4.3325,-4.357,-4.4243,-4.4488,-4.4792,-4.5198,-4.5828,-4.6705,-4.7839,-4.7909,-4.7909,-4.7909,-4.8541,-4.8889,-4.892,-5.0044,-5.0705,-5.0928,-5.1124,-5.1199,-5.1232,-5.1912,-5.2624,-5.333,-5.4082,-5.4794,-5.5336,-5.4381,-5.4429,-5.5049,-5.4616,-5.4665,-5.5196,-5.5846,-5.5934,-5.5733,-3.0184,-3.0477,-3.0657,-3.1394,-3.2,-3.3222,-3.5518,-3.6548,-3.7885,-4.0153,-4.1084,-4.1692,-4.2228,-4.3051,-4.356,-4.356,-4.4574,-4.5462,-4.6085,-4.6743,-4.6857,-4.6253,-4.5716,-4.549,-4.5607,-4.5972,-4.6438,-4.7128,-4.7603,-4.8329,-4.927,-4.9954,-5.0493,-5.0876,-5.1025,-5.1005,-5.0896,-5.0896,-5.0781,-5.0589,-5.055,-5.0434,-5.0285,-5.0207,-4.9931,-4.9613,-4.9613,-4.9461,-4.9372,-4.9773,-4.9892,-4.9892,-5.0207,-5.005,-4.9458,-4.769,-4.7146,-4.6757,-4.5201,-4.4534,-4.4374,-4.4534,-4.4496,-4.4419,-4.4419,-4.4113,-4.3678,-4.3077,-4.2568,-4.2218,-4.2188,-4.1645,-4.1496,-4.2281,-4.1836,-4.1573,-4.2021,-4.1879,-4.2196,-4.3383,-4.3482,-4.3833,-4.4662,-4.5194,-4.5625,-4.5852,-4.6812,-4.7763,-4.8541,-4.8604,-4.8825,-4.9299,-4.9521,-4.9837,-5.0382,-5.0405,-5.0735,-5.141,-5.1604,-5.2049,-5.2689,-5.2883,-5.3251,-5.3809,-5.4228,-5.4713,-5.5164,-5.4888,-5.492,-5.5113,-5.4929,-5.4961,-5.5155,-5.545,-5.5572,-5.5491,-3.063,-3.0807,-3.1014,-3.1768,-3.2595,-3.3833,-3.5979,-3.7166,-3.8648,-4.1061,-4.1847,-4.2483,-4.3335,-4.3884,-4.4212,-4.4236,-4.524,-4.6207,-4.7098,-4.7541,-4.756,-4.7077,-4.7185,-4.7029,-4.6607,-4.6806,-4.7304,-4.809,-4.8564,-4.9221,-5.0023,-5.0779,-5.1186,-5.1237,-5.135,-5.1237,-5.101,-5.101,-5.0934,-5.082,-5.0743,-5.0666,-5.0512,-5.0356,-5.0129,-4.9852,-4.9773,-4.9653,-4.9582,-4.9931,-5.005,-5.005,-5.0129,-5.005,-4.9631,-4.8333,-4.7598,-4.6897,-4.5587,-4.4787,-4.4374,-4.4534,-4.4534,-4.4458,-4.4458,-4.4381,-4.4136,-4.3586,-4.3265,-4.3033,-4.2887,-4.2479,-4.2359,-4.3089,-4.2702,-4.2469,-4.2962,-4.2811,-4.2933,-4.3888,-4.3949,-4.4141,-4.473,-4.5379,-4.6114,-4.6982,-4.7806,-4.8573,-4.9268,-4.9299,-4.9489,-4.986,-5.0184,-5.0532,-5.1015,-5.1009,-5.1296,-5.1909,-5.2076,-5.2531,-5.3219,-5.3358,-5.3632,-5.401,-5.4414,-5.4768,-5.5072,-5.4989,-5.4948,-5.4948,-5.4948,-5.4864,-5.4739,-5.5072,-5.5155,-5.5122,-3.0837,-3.1073,-3.1335,-3.2163,-3.3648,-3.5142,-3.6254,-3.8012,-3.9842,-4.1526,-4.2116,-4.2758,-4.3807,-4.4196,-4.444,-4.4615,-4.6036,-4.728,-4.8146,-4.8184,-4.7937,-4.7397,-4.8579,-4.8965,-4.8286,-4.8017,-4.8476,-4.9656,-5.0058,-5.0443,-5.0749,-5.147,-5.1577,-5.1242,-5.1242,-5.1242,-5.1242,-5.1242,-5.1237,-5.1237,-5.101,-5.0934,-5.0858,-5.0512,-5.0356,-5.0246,-5.001,-4.9931,-4.9931,-5.0207,-5.0317,-5.0246,-5.001,-4.9931,-4.9734,-4.9039,-4.7958,-4.6882,-4.6313,-4.5248,-4.4343,-4.4534,-4.4458,-4.4305,-4.4305,-4.4305,-4.422,-4.3832,-4.3714,-4.3636,-4.3369,-4.3329,-4.3488,-4.391,-4.3832,-4.391,-4.4496,-4.4258,-4.4181,-4.4572,-4.4519,-4.4511,-4.4702,-4.5418,-4.6562,-4.8253,-4.8749,-4.9268,-4.99,-4.9892,-4.9892,-4.9892,-5.0627,-5.1046,-5.111,-5.1764,-5.2194,-5.24,-5.2571,-5.2845,-5.3174,-5.3582,-5.3871,-5.4058,-5.4566,-5.4896,-5.5031,-5.4896,-5.4813,-5.4813,-5.4771,-5.4486,-5.4189,-5.4603,-5.4739,-5.4739,-3.1247,-3.168,-3.2132,-3.2707,-3.4194,-3.5827,-3.7248,-3.8683,-4.041,-4.2645,-4.2943,-4.3409,-4.4612,-4.4777,-4.509,-4.5697,-4.7014,-4.8146,-4.8893,-4.8839,-4.8741,-4.8602,-4.9419,-4.9825,-4.969,-4.9915,-5.0091,-5.0259,-5.0649,-5.0834,-5.0928,-5.1507,-5.1758,-5.1684,-5.1684,-5.1684,-5.1684,-5.1684,-5.1573,-5.1424,-5.1387,-5.1162,-5.0896,-5.0781,-5.0589,-5.0285,-5.0207,-5.0089,-4.9931,-5.0207,-5.0317,-5.0285,-5.0207,-5.005,-4.9726,-4.8718,-4.7832,-4.699,-4.6005,-4.5133,-4.4534,-4.4572,-4.4572,-4.4534,-4.4534,-4.4381,-4.4297,-4.4181,-4.4065,-4.3871,-4.3636,-4.3754,-4.3832,-4.3754,-4.3871,-4.4026,-4.4305,-4.4266,-4.4381,-4.4799,-4.5263,-4.5565,-4.5603,-4.6874,-4.8119,-4.901,-4.9473,-4.9773,-4.986,-4.9892,-4.9892,-4.9892,-5.0627,-5.1227,-5.1764,-5.2523,-5.2954,-5.3172,-5.3213,-5.3624,-5.4406,-5.4493,-5.4473,-5.4316,-5.4633,-5.4697,-5.4581,-5.4697,-5.4813,-5.4771,-5.4571,-5.4412,-5.4327,-5.4274,-5.4231,-5.4274,-3.1936,-3.2407,-3.2949,-3.3469,-3.4955,-3.6487,-3.7712,-3.9032,-4.0747,-4.3169,-4.3311,-4.3749,-4.5216,-4.5466,-4.5924,-4.6959,-4.7783,-4.8567,-4.9316,-4.9411,-4.9487,-4.965,-5.07,-5.1247,-5.115,-5.1827,-5.1866,-5.1061,-5.1153,-5.134,-5.1526,-5.1813,-5.1904,-5.1794,-5.1794,-5.1794,-5.1794,-5.1721,-5.161,-5.1499,-5.1499,-5.1312,-5.1048,-5.1048,-5.0858,-5.055,-5.0395,-5.0129,-4.9931,-5.005,-5.0168,-5.0317,-5.0317,-5.0129,-4.9789,-4.9213,-4.8372,-4.741,-4.65,-4.5634,-4.5103,-4.5103,-4.4856,-4.461,-4.461,-4.4496,-4.4511,-4.4733,-4.4433,-4.4195,-4.4295,-4.4043,-4.3871,-4.3988,-4.3988,-4.4104,-4.4381,-4.4695,-4.4987,-4.5217,-4.5804,-4.636,-4.6669,-4.7579,-4.8413,-4.9138,-4.9533,-4.9773,-4.9773,-4.9852,-5.0089,-5.0405,-5.1101,-5.1796,-5.2523,-5.3218,-5.3608,-5.3735,-5.3735,-5.4052,-5.4613,-5.4486,-5.4444,-5.4412,-5.4444,-5.4444,-5.4412,-5.4539,-5.4655,-5.4771,-5.4497,-5.4412,-5.437,-5.4157,-5.4103,-5.4146,-3.2707,-3.3261,-3.3827,-3.4358,-3.5807,-3.7172,-3.8117,-3.951,-4.1283,-4.3536,-4.3707,-4.4262,-4.5805,-4.6386,-4.7162,-4.8432,-4.8707,-4.9021,-4.958,-4.9732,-4.9958,-5.0382,-5.1679,-5.2372,-5.2365,-5.3308,-5.3245,-5.2034,-5.1829,-5.1885,-5.223,-5.223,-5.2122,-5.1941,-5.1941,-5.1908,-5.1904,-5.1721,-5.161,-5.1536,-5.1536,-5.1424,-5.1199,-5.1199,-5.1086,-5.0858,-5.0473,-5.0129,-4.9892,-4.9931,-5.0089,-5.0207,-5.0207,-5.0089,-4.9892,-4.9892,-4.8983,-4.7889,-4.73,-4.6461,-4.5772,-4.5772,-4.5341,-4.4949,-4.4949,-4.4856,-4.4872,-4.527,-4.5017,-4.4755,-4.5017,-4.4455,-4.4031,-4.422,-4.4234,-4.4334,-4.4718,-4.5341,-4.5811,-4.585,-4.6397,-4.7034,-4.7711,-4.8007,-4.8376,-4.8965,-4.9372,-4.9613,-4.9613,-4.9907,-5.0374,-5.0983,-5.1764,-5.2491,-5.3092,-5.3755,-5.4103,-5.4103,-5.4103,-5.4157,-5.437,-5.4189,-5.4157,-5.4327,-5.4157,-5.42,-5.437,-5.4412,-5.4539,-5.4697,-5.4497,-5.4412,-5.437,-5.4157,-5.4103,-5.4103,-3.3572,-3.4145,-3.4783,-3.5305,-3.6632,-3.7972,-3.9111,-4.0834,-4.2562,-4.4108,-4.4774,-4.547,-4.646,-4.8069,-4.9377,-5.0207,-5.0321,-5.032,-5.0209,-4.9644,-4.963,-5.0351,-5.1034,-5.1749,-5.253,-5.3211,-5.3382,-5.301,-5.2838,-5.2733,-5.2799,-5.2799,-5.2694,-5.2483,-5.2483,-5.2445,-5.2302,-5.2302,-5.2086,-5.1758,-5.1758,-5.1503,-5.1199,-5.1199,-5.1086,-5.0858,-5.0628,-5.0168,-4.9693,-5.0089,-5.0129,-4.9971,-4.9971,-4.9931,-4.9892,-4.9693,-4.8863,-4.8053,-4.8097,-4.7291,-4.6449,-4.6449,-4.6388,-4.6326,-4.6326,-4.5865,-4.5464,-4.5518,-4.5948,-4.6094,-4.5367,-4.5175,-4.4852,-4.4156,-4.4669,-4.5192,-4.5434,-4.6018,-4.6528,-4.6686,-4.7185,-4.7742,-4.8419,-4.8718,-4.8903,-4.8996,-4.9372,-4.9613,-4.9613,-5.038,-5.092,-5.1015,-5.227,-5.2997,-5.3123,-5.3755,-5.4103,-5.4103,-5.4103,-5.4103,-5.4146,-5.4103,-5.4103,-5.4146,-5.4103,-5.4146,-5.4114,-5.4327,-5.4412,-5.4454,-5.4412,-5.4412,-5.437,-5.4157,-5.4103,-5.4103,-3.5385,-3.5879,-3.649,-3.717,-3.7756,-3.8622,-4.0162,-4.1558,-4.3104,-4.4818,-4.5551,-4.6398,-4.7781,-4.9307,-5.0496,-5.1143,-5.1315,-5.1292,-5.1086,-5.0589,-5.0702,-5.1687,-5.2011,-5.2554,-5.3371,-5.3907,-5.3948,-5.3484,-5.3213,-5.3007,-5.2903,-5.2903,-5.2834,-5.2764,-5.2659,-5.2624,-5.2692,-5.2338,-5.2194,-5.2089,-5.2013,-5.1721,-5.1387,-5.1499,-5.135,-5.1048,-5.0705,-5.0246,-4.9812,-5.001,-5.001,-4.9931,-5.0089,-5.001,-4.9892,-4.9812,-4.9193,-4.8509,-4.8226,-4.7645,-4.7157,-4.7157,-4.688,-4.6696,-4.7065,-4.6942,-4.6726,-4.6726,-4.6585,-4.6475,-4.6576,-4.61,-4.5645,-4.5498,-4.5681,-4.5905,-4.6142,-4.6726,-4.7352,-4.7802,-4.8029,-4.8296,-4.8573,-4.8718,-4.8759,-4.8759,-4.921,-4.9609,-4.9984,-5.0623,-5.1394,-5.2144,-5.2776,-5.3281,-5.366,-5.3945,-5.4103,-5.4103,-5.4103,-5.4103,-5.4103,-5.4103,-5.4103,-5.4103,-5.4103,-5.4103,-5.4103,-5.42,-5.4285,-5.4412,-5.4285,-5.4242,-5.42,-5.4146,-5.4103,-5.4166]},{"header":{"parameterUnit":"m.s-1","parameterCategory":1,"la1":30.6,"la2":28.766,"lo1":-90.7593,"lo2":-88.6598,"dy":0.0162,"dx":0.0183,"nx":116,"ny":114,"refTime":"2023-11-10T06:00:00:Z","depth":0,"parameterNumber":3,"parameterNumberName":"V-component_of_WINDS"},"data":[0.0,0.0,0.0,0.0,0.0,0.0,0.0,0.0,0.0,0.0,0.0,0.0,0.0,0.0,0.0,0.0,0.0,0.0,0.0,0.0,0.0,0.0,0.0,0.0,0.0,0.0,0.0,0.0,0.0,0.0,0.0,0.0,0.0,0.0,0.0,0.0,0.0,0.0,0.0,0.0,0.0,0.0,0.0,0.0,0.0,0.0,0.0,0.0,0.0,0.0,0.0,0.0,0.0,0.0,0.0,0.0,0.0,0.0,0.0,0.0,0.0,0.0,0.0,0.0,0.0,0.0,0.0,0.0,0.0,0.0,0.0,0.0,0.0,0.0,0.0,0.0,0.0,0.0,0.0,0.0,0.0,0.0,0.0,0.0,0.0,0.0,0.0,0.0,0.0,0.0,0.0,0.0,0.0,0.0,0.0,0.0,0.0,0.0,0.0,0.0,0.0,0.0,0.0,0.0,0.0,0.0,0.0,0.0,0.0,0.0,0.0,0.0,0.0,0.0,0.0,0.0,0.0,0.0,0.0,0.0,0.0,0.0,0.0,0.0,0.0,0.0,0.0,0.0,0.0,0.0,0.0,0.0,0.0,0.0,0.0,0.0,0.0,0.0,0.0,0.0,0.0,0.0,0.0,0.0,0.0,0.0,0.0,0.0,0.0,0.0,0.0,0.0,0.0,0.0,0.0,0.0,0.0,0.0,0.0,0.0,0.0,0.0,0.0,0.0,0.0,0.0,0.0,0.0,0.0,0.0,0.0,0.0,0.0,0.0,0.0,0.0,0.0,0.0,0.0,0.0,0.0,0.0,0.0,0.0,0.0,0.0,0.0,0.0,0.0,0.0,0.0,0.0,0.0,0.0,0.0,0.0,0.0,0.0,0.0,0.0,0.0,0.0,0.0,0.0,0.0,0.0,0.0,0.0,0.0,0.0,0.0,0.0,0.0,0.0,0.0,0.0,0.0,0.0,0.0,0.0,0.0,0.0,0.0,0.0,0.0,0.0,0.0,0.0,0.0,0.0,0.0,0.0,0.0,0.0,0.0,0.0,0.0,0.0,0.0,0.0,0.0,0.0,0.0,0.0,0.0,0.0,0.0,0.0,0.0,0.0,0.0,0.0,0.0,0.0,0.0,0.0,0.0,0.0,0.0,0.0,0.0,0.0,0.0,0.0,0.0,0.0,0.0,0.0,0.0,0.0,0.0,0.0,0.0,0.0,0.0,0.0,0.0,0.0,0.0,0.0,0.0,0.0,0.0,0.0,0.0,0.0,0.0,0.0,0.0,0.0,0.0,0.0,0.0,0.0,0.0,0.0,0.0,0.0,0.0,0.0,0.0,0.0,0.0,0.0,0.0,0.0,0.0,0.0,0.0,0.0,0.0,0.0,0.0,0.0,0.0,0.0,0.0,0.0,0.0,0.0,0.0,0.0,0.0,0.0,0.0,0.0,0.0,0.0,0.0,0.0,0.0,0.0,0.0,0.0,0.0,0.0,0.0,0.0,0.0,0.0,0.0,0.0,0.0,0.0,0.0,0.0,0.0,0.0,0.0,0.0,0.0,0.0,0.0,0.0,0.0,0.0,0.0,0.0,0.0,0.0,0.0,0.0,0.0,0.0,0.0,0.0,0.0,0.0,0.0,0.0,0.0,0.0,0.0,0.0,0.0,0.0,0.0,0.0,0.0,0.0,0.0,0.0,0.0,0.0,0.0,0.0,0.0,0.0,0.0,0.0,0.0,0.0,0.0,0.0,0.0,0.0,0.0,0.0,0.0,0.0,0.0,0.0,0.0,0.0,0.0,0.0,0.0,0.0,0.0,0.0,0.0,0.0,0.0,0.0,0.0,0.0,0.0,0.0,0.0,0.0,0.0,0.0,0.0,0.0,0.0,0.0,0.0,0.0,0.0,0.0,0.0,0.0,0.0,0.0,0.0,0.0,0.0,0.0,0.0,0.0,0.0,0.0,0.0,0.0,0.0,0.0,0.0,0.0,0.0,0.0,0.0,0.0,0.0,0.0,0.0,0.0,0.0,0.0,0.0,0.0,0.0,0.0,0.0,0.0,0.0,0.0,0.0,0.0,0.0,0.0,0.0,0.0,0.0,0.0,0.0,0.0,0.0,0.0,0.0,0.0,0.0,0.0,0.0,0.0,0.0,0.0,0.0,0.0,0.0,0.0,0.0,0.0,0.0,0.0,0.0,0.0,0.0,0.0,0.0,0.0,0.0,0.0,0.0,0.0,0.0,0.0,0.0,0.0,0.0,0.0,0.0,0.0,0.0,0.0,0.0,0.0,0.0,0.0,0.0,0.0,0.0,0.0,0.0,0.0,0.0,0.0,0.0,0.0,0.0,0.0,0.0,0.0,0.0,0.0,0.0,0.0,0.0,0.0,0.0,0.0,0.0,0.0,0.0,0.0,0.0,0.0,0.0,0.0,0.0,0.0,0.0,0.0,0.0,0.0,0.0,0.0,0.0,0.0,0.0,0.0,0.0,0.0,0.0,0.0,0.0,0.0,0.0,0.0,0.0,0.0,0.0,0.0,0.0,0.0,0.0,0.0,0.0,0.0,0.0,0.0,0.0,0.0,0.0,0.0,0.0,0.0,0.0,0.0,0.0,0.0,0.0,0.0,0.0,0.0,0.0,0.0,0.0,0.0,0.0,0.0,0.0,0.0,0.0,0.0,0.0,0.0,0.0,0.0,0.0,0.0,0.0,0.0,0.0,0.0,0.0,0.0,0.0,0.0,0.0,0.0,0.0,0.0,0.0,0.0,0.0,0.0,0.0,0.0,0.0,0.0,0.0,0.0,0.0,0.0,0.0,0.0,0.0,0.0,0.0,0.0,0.0,0.0,0.0,0.0,0.0,0.0,0.0,0.0,0.0,0.0,0.0,0.0,0.0,0.0,0.0,0.0,0.0,0.0,0.0,0.0,0.0,0.0,0.0,0.0,0.0,0.0,0.0,0.0,0.0,0.0,0.0,0.0,0.0,0.0,0.0,0.0,0.0,0.0,0.0,0.0,0.0,0.0,0.0,0.0,0.0,0.0,0.0,0.0,0.0,0.0,0.0,0.0,0.0,0.0,0.0,0.0,0.0,0.0,0.0,0.0,0.0,0.0,0.0,0.0,0.0,0.0,0.0,0.0,0.0,0.0,0.0,0.0,0.0,0.0,0.0,0.0,0.0,0.0,0.0,0.0,0.0,0.0,0.0,0.0,0.0,0.0,0.0,0.0,0.0,0.0,0.0,0.0,0.0,0.0,0.0,0.0,0.0,0.0,0.0,0.0,0.0,0.0,0.0,0.0,0.0,0.0,0.0,0.0,0.0,0.0,0.0,0.0,0.0,0.0,0.0,0.0,0.0,0.0,0.0,0.0,0.0,0.0,0.0,0.0,0.0,0.0,0.0,0.0,0.0,0.0,0.0,0.0,0.0,0.0,0.0,0.0,0.0,0.0,0.0,0.0,0.0,0.0,0.0,0.0,0.0,0.0,0.0,0.0,0.0,0.0,0.0,0.0,0.0,0.0,0.0,0.0,0.0,0.0,0.0,0.0,0.0,0.0,0.0,0.0,0.0,0.0,0.0,0.0,0.0,0.0,0.0,0.0,0.0,0.0,0.0,0.0,0.0,0.0,0.0,0.0,0.0,0.0,0.0,0.0,0.0,0.0,0.0,0.0,0.0,0.0,0.0,0.0,0.0,0.0,0.0,0.0,0.0,0.0,0.0,0.0,0.0,0.0,0.0,0.0,0.0,0.0,0.0,0.0,0.0,0.0,0.0,0.0,0.0,0.0,0.0,0.0,0.0,0.0,0.0,0.0,0.0,0.0,0.0,0.0,0.0,0.0,0.0,0.0,0.0,0.0,0.0,0.0,0.0,0.0,0.0,0.0,0.0,0.0,0.0,0.0,0.0,0.0,0.0,0.0,0.0,0.0,0.0,0.0,0.0,0.0,0.0,0.0,0.0,0.0,0.0,0.0,0.0,0.0,0.0,0.0,0.0,0.0,0.0,0.0,0.0,0.0,0.0,0.0,0.0,0.0,0.0,0.0,0.0,0.0,0.0,0.0,0.0,0.0,0.0,0.0,0.0,0.0,0.0,0.0,0.0,0.0,0.0,0.0,0.0,0.0,0.0,0.0,0.0,0.0,0.0,0.0,0.0,0.0,0.0,0.0,0.0,0.0,0.0,0.0,0.0,0.0,0.0,0.0,0.0,0.0,0.0,0.0,0.0,0.0,0.0,0.0,0.0,0.0,0.0,0.0,0.0,0.0,0.0,0.0,0.0,0.0,0.0,0.0,0.0,0.0,0.0,0.0,0.0,0.0,0.0,0.0,0.0,0.0,0.0,0.0,0.0,0.0,0.0,0.0,0.0,0.0,0.0,0.0,0.0,0.0,0.0,0.0,0.0,0.0,0.0,0.0,0.0,0.0,0.0,0.0,0.0,0.0,0.0,0.0,0.0,0.0,0.0,0.0,0.0,0.0,0.0,0.0,0.0,0.0,0.0,0.0,0.0,0.0,0.0,0.0,0.0,0.0,0.0,0.0,0.0,0.0,0.0,0.0,0.0,0.0,0.0,0.0,0.0,0.0,0.0,0.0,0.0,0.0,0.0,0.0,0.0,0.0,0.0,0.0,0.0,0.0,0.0,0.0,0.0,0.0,0.0,0.0,0.0,0.0,0.0,0.0,0.0,0.0,0.0,0.0,0.0,0.0,0.0,0.0,0.0,0.0,0.0,0.0,0.0,0.0,0.0,0.0,0.0,0.0,0.0,0.0,0.0,0.0,0.0,0.0,0.0,0.0,0.0,0.0,0.0,0.0,0.0,0.0,0.0,0.0,0.0,0.0,0.0,0.0,0.0,0.0,0.0,0.0,0.0,0.0,0.0,0.0,0.0,0.0,0.0,0.0,0.0,0.0,0.0,0.0,0.0,0.0,0.0,0.0,0.0,0.0,0.0,0.0,0.0,0.0,0.0,0.0,0.0,0.0,0.0,0.0,0.0,0.0,0.0,0.0,0.0,0.0,0.0,0.0,0.0,0.0,0.0,0.0,0.0,0.0,0.0,0.0,0.0,0.0,0.0,0.0,0.0,0.0,0.0,0.0,0.0,0.0,0.0,0.0,0.0,0.0,0.0,0.0,0.0,0.0,0.0,0.0,0.0,0.0,0.0,0.0,0.0,0.0,0.0,0.0,0.0,0.0,0.0,0.0,0.0,0.0,0.0,0.0,0.0,0.0,0.0,0.0,0.0,0.0,0.0,0.0,0.0,0.0,0.0,0.0,0.0,0.0,0.0,0.0,0.0,0.0,0.0,0.0,0.0,0.0,0.0,0.0,0.0,0.0,0.0,0.0,0.0,0.0,0.0,0.0,0.0,0.0,0.0,0.0,0.0,0.0,0.0,0.0,0.0,0.0,0.0,0.0,0.0,0.0,0.0,0.0,0.0,0.0,0.0,0.0,0.0,0.0,0.0,0.0,0.0,0.0,0.0,0.0,0.0,0.0,0.0,0.0,0.0,0.0,0.0,0.0,0.0,0.0,0.0,0.0,0.0,0.0,0.0,0.0,0.0,0.0,0.0,0.0,0.0,0.0,0.0,0.0,0.0,0.0,0.0,0.0,0.0,0.0,0.0,0.0,0.0,0.0,0.0,0.0,0.0,0.0,0.0,0.0,0.0,0.0,0.0,0.0,0.0,0.0,0.0,0.0,0.0,0.0,0.0,0.0,0.0,0.0,0.0,0.0,0.0,0.0,0.0,0.0,0.0,0.0,0.0,0.0,0.0,0.0,0.0,0.0,0.0,0.0,0.0,0.0,0.0,0.0,0.0,0.0,0.0,0.0,0.0,0.0,0.0,0.0,0.0,0.0,0.0,0.0,0.0,0.0,0.0,0.0,0.0,0.0,0.0,0.0,0.0,0.0,0.0,0.0,0.0,0.0,0.0,0.0,0.0,0.0,0.0,0.0,0.0,0.0,0.0,0.0,0.0,0.0,0.0,0.0,0.0,0.0,0.0,0.0,0.0,0.0,0.0,0.0,0.0,0.0,0.0,0.0,0.0,0.0,0.0,0.0,0.0,0.0,0.0,0.0,0.0,0.0,0.0,0.0,0.0,0.0,0.0,0.0,1.2198,0.0,0.0,0.0,0.0,0.0,0.0,0.0,0.0,0.0,0.0,0.0,0.0,0.0,0.0,0.0,0.0,0.0,0.0,0.0,0.0,0.0,0.0,0.0,0.0,0.0,0.0,0.0,0.0,0.0,0.0,0.0,0.0,0.0,0.0,0.0,0.0,0.0,0.0,0.0,2.0558,2.1429,2.1953,2.0533,1.961,1.9126,0.0,0.0,0.0,0.0,0.0,0.0,0.0,0.0,0.0,0.0,0.0,0.0,0.0,0.0,0.0,0.0,0.0,0.0,0.0,0.0,0.0,0.0,0.0,0.0,0.0,0.0,0.0,0.0,0.0,0.0,0.0,0.0,0.0,0.0,0.0,0.0,0.0,0.0,0.0,0.0,0.0,0.0,0.0,0.0,0.0,0.0,0.0,0.0,0.0,0.0,0.0,0.0,0.0,0.0,0.0,0.0,0.0,0.0,0.0,0.0,0.0,0.0,0.0,0.0,0.0,0.0,0.0,0.0,0.0,0.0,0.0,1.295,0.0,0.0,0.0,0.0,0.0,0.0,0.0,0.0,0.0,0.0,0.0,0.0,0.0,0.0,0.0,0.0,0.0,0.0,0.0,0.0,0.0,0.0,0.0,0.0,0.0,0.0,0.0,0.0,0.0,0.0,0.0,0.0,0.0,0.0,0.0,0.0,0.0,0.0,2.1977,2.2891,2.2937,2.3167,2.2813,2.1879,1.991,0.0,0.0,0.0,0.0,0.0,0.0,0.0,0.0,0.0,0.0,0.0,0.0,0.0,0.0,0.0,0.0,0.0,0.0,0.0,0.0,0.0,0.0,0.0,0.0,0.0,0.0,0.0,0.0,0.0,0.0,0.0,0.0,0.0,0.0,0.0,0.0,0.0,0.0,0.0,0.0,0.0,0.0,0.0,0.0,0.0,0.0,0.0,0.0,0.0,0.0,0.0,0.0,0.0,0.0,0.0,0.0,0.0,0.0,0.0,0.0,0.0,0.0,0.0,1.7644,1.7988,1.8064,1.7835,1.7737,1.7613,1.5261,1.4296,1.4307,0.0,0.0,0.0,0.0,0.0,0.0,0.0,0.0,0.0,0.0,0.0,0.0,0.0,0.0,0.0,0.0,0.0,0.0,0.0,0.0,0.0,0.0,0.0,1.7587,1.8327,1.7658,0.0,0.0,0.0,0.0,0.0,0.0,0.0,0.0,2.055,2.1562,2.2891,2.5479,2.6456,2.5884,2.687,2.6656,2.531,2.2411,2.0765,2.0128,0.0,0.0,0.0,0.0,0.0,0.0,0.0,0.0,0.0,0.0,0.0,0.0,0.0,0.0,0.0,0.0,0.0,0.0,0.0,0.0,0.0,0.0,0.0,0.0,0.0,0.0,0.0,0.0,0.0,0.0,0.0,0.0,0.0,0.0,0.0,0.0,0.0,0.0,0.0,0.0,0.0,1.541,1.619,0.0,0.0,0.0,0.0,0.0,0.0,0.0,0.0,0.0,0.0,0.0,0.0,0.0,1.7735,1.8481,1.859,1.8983,1.9695,1.9772,1.9849,1.9845,1.9054,1.8671,1.8572,1.7416,0.0,1.6786,1.5273,0.0,0.0,0.0,0.0,0.0,0.0,0.0,0.0,0.0,0.0,0.0,0.0,0.0,0.0,0.0,0.0,0.0,0.0,0.0,0.0,0.0,0.0,1.9305,2.0508,2.0619,2.0749,0.0,0.0,0.0,0.0,0.0,0.0,2.0725,2.1437,2.2887,2.5021,2.677,2.7541,2.7429,2.7947,2.768,2.6706,2.5438,2.3896,2.2137,2.0468,0.0,0.0,0.0,0.0,0.0,0.0,0.0,0.0,0.0,0.0,0.0,0.0,0.0,0.0,0.0,0.0,0.0,0.0,0.0,0.0,0.0,0.0,0.0,0.0,0.0,0.0,0.0,0.0,0.0,0.0,0.0,0.0,0.0,0.0,0.0,0.0,0.0,0.0,0.0,1.5885,1.6258,1.7183,1.6617,1.6349,0.0,0.0,0.0,0.0,0.0,0.0,0.0,0.0,0.0,1.8054,1.8428,1.9255,2.049,2.0505,2.0662,2.0993,2.0966,2.068,2.0207,1.9807,1.9572,1.9511,1.9064,1.8837,1.8688,1.6939,1.6404,1.6565,0.0,0.0,0.0,0.0,1.4074,1.4396,0.0,0.0,0.0,0.0,0.0,0.0,0.0,0.0,0.0,0.0,0.0,0.0,1.9033,2.0069,2.1321,2.2899,2.3351,2.3607,2.3814,0.0,0.0,0.0,0.0,2.167,2.162,2.2824,2.4537,2.6742,2.7716,2.8312,2.8596,2.8643,2.8339,2.7689,2.7547,2.6325,2.4269,2.2184,2.0938,2.0156,0.0,0.0,0.0,0.0,0.0,0.0,0.0,0.0,0.0,0.0,0.0,0.0,0.0,0.0,0.0,0.0,0.0,0.0,0.0,0.0,0.0,0.0,0.0,0.0,0.0,0.0,0.0,0.0,0.0,0.0,0.0,0.0,0.0,0.0,0.0,0.0,0.0,1.6614,1.7082,1.8006,1.7952,1.7956,0.0,0.0,0.0,0.0,0.0,0.0,1.86,1.8589,1.8859,1.9491,1.9545,2.0217,2.1698,2.1706,2.1781,2.1926,2.1841,2.1504,2.0864,2.086,2.0814,2.0738,2.0683,2.0614,2.0384,1.8434,1.7638,1.7546,1.679,1.6446,1.6327,1.5701,1.5806,1.6249,0.0,0.0,0.0,0.0,0.0,0.0,0.0,0.0,0.0,0.0,0.0,1.998,2.0694,2.2174,2.3788,2.5476,2.4895,2.4749,0.0,2.4709,2.3787,2.2776,2.2737,2.2646,2.2427,2.496,2.6853,2.8021,2.9006,2.9598,2.9715,2.9715,2.9355,2.8669,2.7782,2.6958,2.6223,2.5443,2.3717,2.1446,2.0638,0.0,0.0,0.0,0.0,0.0,0.0,0.0,0.0,0.0,0.0,0.0,0.0,0.0,0.0,0.0,0.0,0.0,0.0,0.0,0.0,0.0,0.0,0.0,0.0,0.0,0.0,0.0,0.0,0.0,0.0,0.0,0.0,0.0,0.0,0.0,0.0,0.0,0.0,1.8841,1.8393,0.0,0.0,0.0,0.0,1.9061,1.9099,1.9442,2.0347,2.0386,2.0386,2.0422,2.0411,2.0856,2.1675,2.1685,2.2072,2.2832,2.2751,2.2714,2.2679,2.2604,2.2551,2.2484,2.2407,2.2354,2.2085,1.9584,1.8493,1.8338,1.7546,1.7202,1.7155,1.7103,1.7051,1.7194,0.0,0.0,0.0,0.0,0.0,0.0,0.0,0.0,0.0,1.8994,2.0739,2.2331,2.3058,2.4628,2.606,2.7196,2.7456,2.7474,2.7251,0.0,2.5615,2.525,2.4142,2.4059,2.5193,2.7315,2.8676,2.912,3.003,3.0272,2.9885,2.9918,2.9815,2.9574,2.9322,2.8816,2.7983,2.552,2.4049,2.3184,2.1257,1.9614,0.0,0.0,0.0,0.0,0.0,0.0,0.0,0.0,0.0,0.0,0.0,0.0,0.0,0.0,0.0,0.0,0.0,0.0,0.0,0.0,0.0,0.0,0.0,0.0,0.0,0.0,0.0,0.0,0.0,0.0,0.0,0.0,0.0,0.0,0.0,0.0,0.0,1.9791,1.9674,0.0,1.9999,1.9798,1.9717,2.0038,2.0039,2.0194,2.0538,2.1077,2.1343,2.1337,2.1792,2.2462,2.3371,2.3252,2.3354,2.374,2.3621,2.3299,2.2785,2.2681,2.262,2.2593,2.2494,2.2382,2.2255,2.1299,2.0934,2.0897,2.0571,2.0082,1.9594,1.9574,1.9173,1.8754,0.0,0.0,0.0,0.0,0.0,0.0,0.0,0.0,0.0,2.0145,2.2181,2.3971,2.479,2.6619,2.7996,2.8556,2.9299,2.9438,2.8629,0.0,2.7206,2.6644,2.545,2.5715,2.761,2.9145,3.0001,3.0158,3.0796,3.0713,2.9961,3.0046,3.0083,3.0075,2.9886,2.9378,2.8522,2.5981,2.4853,2.4584,2.2603,2.1156,2.0,0.0,0.0,0.0,0.0,0.0,0.0,0.0,0.0,0.0,0.0,0.0,0.0,0.0,0.0,0.0,0.0,0.0,0.0,0.0,0.0,0.0,0.0,0.0,0.0,0.0,0.0,0.0,0.0,0.0,0.0,0.0,0.0,0.0,0.0,0.0,1.974,2.0303,2.0374,2.0435,2.0491,2.052,2.0516,2.0494,2.0776,2.0976,2.1015,2.1789,2.2246,2.224,2.2691,2.3395,2.4302,2.4134,2.4268,2.4617,2.4489,2.4169,2.3607,2.3498,2.3433,2.344,2.3278,2.3191,2.3143,2.3064,2.3004,2.2914,2.1826,2.1039,2.0439,1.9894,1.9295,1.8949,0.0,0.0,0.0,0.0,0.0,0.0,0.0,0.0,0.0,2.0819,2.3,2.4873,2.578,2.8081,2.9576,2.9654,3.0248,3.0329,2.9548,2.918,2.8327,2.6753,2.6716,2.7645,2.9541,3.0433,3.096,3.1142,3.1265,3.089,3.009,3.0171,3.0233,3.0254,2.9423,2.8643,2.7938,2.7099,2.634,2.5583,2.4724,2.3356,2.1741,0.0,0.0,0.0,0.0,0.0,0.0,0.0,0.0,0.0,0.0,0.0,0.0,0.0,0.0,0.0,0.0,0.0,0.0,0.0,0.0,0.0,0.0,0.0,0.0,0.0,0.0,0.0,0.0,0.0,0.0,0.0,0.0,0.0,1.8909,1.9673,2.0319,2.0296,2.0379,2.0407,2.0495,2.0509,2.0506,2.0537,2.1301,2.1827,2.1836,2.2686,2.314,2.3134,2.3147,2.3541,2.4316,2.4258,2.4625,2.5391,2.5337,2.5283,2.5192,2.5138,2.5112,2.5108,2.4877,2.4791,2.4791,2.4637,2.4564,2.4195,2.1117,1.9945,1.9712,1.8068,1.7492,1.7842,0.0,0.0,0.0,0.0,0.0,0.0,0.0,0.0,2.1525,2.1589,2.4827,2.727,2.7568,2.9326,3.0497,3.0631,3.017,2.9782,2.9451,0.0,2.7261,2.6839,2.8639,3.0225,3.1487,3.1807,3.2039,3.2172,3.1653,3.0966,3.0181,3.0241,3.0324,3.0361,3.0183,2.9974,2.9697,2.8243,2.7535,2.7226,2.5153,2.3671,2.2581,0.0,0.0,0.0,0.0,0.0,0.0,0.0,0.0,0.0,0.0,0.0,0.0,0.0,0.0,0.0,0.0,0.0,0.0,0.0,0.0,0.0,0.0,0.0,0.0,0.0,0.0,0.0,0.0,0.0,0.0,0.0,0.0,2.0227,1.9045,2.0241,2.1011,2.0392,2.0335,2.0349,2.0347,2.0437,2.0756,2.134,2.163,2.207,2.2726,2.3572,2.4033,2.4036,2.4504,2.4932,2.5245,2.5089,2.5129,2.5412,2.5382,2.5322,2.5192,2.5116,2.5068,2.5004,2.4805,2.473,2.4715,2.4621,2.4547,2.4397,2.3454,2.2696,2.2139,2.1549,2.1295,2.1232,0.0,0.0,0.0,0.0,0.0,0.0,0.0,0.0,2.1984,2.2415,2.5512,2.7858,2.8278,2.9861,3.0772,3.049,3.0265,2.9794,2.8986,0.0,2.7643,2.796,3.0237,3.1892,3.2684,3.3285,3.343,3.313,3.2745,3.1945,3.0772,3.0879,3.0755,3.0477,3.0525,3.0334,2.9989,2.8988,2.8201,2.7472,2.6347,2.5162,2.3994,2.3071,2.184,2.0648,2.0577,1.9522,1.8174,1.8561,0.0,0.0,0.0,0.0,0.0,0.0,0.0,0.0,0.0,0.0,0.0,0.0,0.0,0.0,0.0,0.0,0.0,0.0,0.0,0.0,0.0,0.0,0.0,0.0,2.0497,2.1522,2.0446,2.1268,2.1786,2.1308,2.1301,2.1336,2.1378,2.1504,2.1767,2.2241,2.2614,2.3084,2.3616,2.4446,2.4898,2.4904,2.5254,2.5493,2.5574,2.5437,2.5407,2.5395,2.5369,2.5308,2.5215,2.5115,2.5037,0.0,2.4843,2.473,2.4723,2.4682,2.4601,0.0,0.0,0.0,0.0,0.0,2.1838,2.2197,0.0,0.0,0.0,0.0,0.0,0.0,0.0,0.0,2.2362,2.3188,2.5563,2.7446,2.8283,2.9954,3.0772,3.0083,3.0453,3.0114,2.8587,2.8501,2.8875,2.9711,3.1567,3.2893,3.3533,3.4547,3.4691,3.3944,3.3868,3.3076,3.1607,3.1593,3.1226,3.0595,3.0616,3.0234,2.9524,2.9451,2.8506,2.7133,2.7804,2.7059,2.5507,2.4684,2.3813,2.2999,2.2887,2.1351,1.9515,2.0249,0.0,0.0,0.0,0.0,0.0,0.0,0.0,0.0,0.0,0.0,0.0,0.0,0.0,0.0,0.0,0.0,0.0,0.0,0.0,0.0,0.0,0.0,0.0,0.0,2.1651,2.3034,2.2397,2.2563,2.2714,2.2598,2.2642,2.2735,2.2889,2.2943,2.3052,2.3219,2.3906,2.4367,2.4546,0.0,0.0,0.0,0.0,2.569,2.5796,2.5782,2.5726,2.5673,2.552,2.5421,2.5335,2.5138,2.5051,2.5063,2.4901,2.4821,2.4813,2.4745,2.4621,2.4373,2.2851,2.23,2.2159,2.0787,2.096,2.1835,0.0,0.0,0.0,0.0,0.0,0.0,0.0,0.0,2.3182,2.3348,2.6168,2.8133,2.8077,3.0034,3.1485,3.1864,3.0704,2.9823,2.9626,2.941,2.9848,3.113,3.2534,3.3843,3.4971,3.4542,3.4242,3.4152,3.28,3.2028,3.1758,3.1112,3.0781,3.0688,3.0756,3.0639,3.0382,2.9715,2.9152,2.8783,2.8161,2.6919,2.5499,2.6,2.5206,2.378,2.375,2.2944,2.1937,2.2067,2.1001,1.9666,1.9688,1.8726,0.0,0.0,0.0,0.0,0.0,0.0,0.0,0.0,0.0,0.0,0.0,0.0,0.0,0.0,0.0,0.0,0.0,0.0,0.0,2.1343,2.2354,2.3145,2.3084,2.3723,2.379,2.2635,2.2627,2.274,2.2805,2.2989,2.3376,2.4022,2.4254,2.4663,2.5329,2.5509,2.5933,2.6643,2.6581,2.6903,2.7586,2.7477,2.7441,2.7427,0.0,0.0,2.6147,2.5465,2.5094,2.5004,2.4926,2.4891,2.487,2.4884,2.4731,2.4518,2.4059,2.3787,2.3667,2.3382,2.3315,2.3387,0.0,0.0,0.0,0.0,0.0,0.0,0.0,0.0,2.3153,2.3979,2.6024,2.7775,2.8812,2.9423,2.9923,3.0254,2.9123,2.8854,2.9885,3.0225,3.0932,3.2103,3.3647,3.4411,3.4203,3.4176,3.3975,3.3613,3.28,3.2217,3.1856,3.1485,3.1106,3.0763,3.0786,3.078,3.0711,3.0254,2.9754,2.9274,2.9187,2.7904,2.6086,2.6521,2.5553,2.4106,2.4484,2.3764,2.2752,2.315,2.2475,2.1371,2.0962,2.0242,1.9237,0.0,0.0,0.0,0.0,0.0,0.0,0.0,0.0,0.0,0.0,0.0,0.0,0.0,0.0,2.175,0.0,0.0,2.2786,2.2392,2.3051,2.3675,2.3839,2.4297,2.4429,2.3834,2.387,2.3993,2.4128,2.4269,2.4512,2.4919,2.4994,2.5205,2.5585,2.5974,2.6409,2.6829,2.7256,2.7666,2.811,2.7562,2.7305,2.7282,2.6386,2.6128,2.6418,2.5576,2.5606,2.6314,2.5355,2.5201,2.5553,2.505,2.4753,2.4666,2.4908,2.4653,2.4161,2.4143,2.4026,2.3914,0.0,0.0,0.0,0.0,0.0,0.0,0.0,0.0,0.0,2.466,2.574,2.6987,2.8662,2.8252,2.7773,0.0,2.7387,2.8177,3.0274,3.1249,3.221,3.3185,3.4692,3.4898,3.3557,3.3936,3.3898,3.3311,3.3218,3.2738,3.1939,3.1831,3.1404,3.0807,3.0818,3.0776,3.0773,3.0561,3.0114,2.9586,2.983,2.8854,2.7163,2.6795,2.5693,2.4444,2.5034,2.4293,2.3163,2.3812,2.3355,2.2402,2.1692,2.1444,2.1063,1.9326,1.8977,0.0,0.0,0.0,0.0,0.0,0.0,0.0,0.0,0.0,2.098,2.1752,2.2621,2.3015,2.2309,2.3217,2.3904,2.3253,2.384,2.4376,2.4428,2.4733,2.5009,2.5228,2.5231,2.5309,2.5484,2.5735,2.5878,2.5853,2.6087,2.6183,2.6115,2.6719,2.7158,2.732,2.8008,2.8431,2.8586,2.7833,2.7443,2.745,2.6492,2.6397,2.6973,2.6096,2.6412,2.7606,2.6162,2.5933,2.6515,2.5648,2.5273,2.5233,2.5741,2.5393,2.4677,2.4669,2.4441,2.42,0.0,0.0,0.0,0.0,0.0,0.0,0.0,0.0,0.0,2.4859,2.5705,2.6032,2.5494,0.0,2.6282,2.5265,2.696,2.914,3.168,3.2866,3.3956,3.5127,3.5462,3.5564,3.5482,3.4531,3.4162,3.4411,3.3654,3.2873,3.2056,3.1303,3.0889,3.0818,3.0781,3.0767,3.0646,2.9927,3.0005,3.0411,2.8939,2.866,2.8946,2.7354,2.6161,2.5282,2.5352,2.4752,2.3989,2.4045,2.2988,2.1611,2.1464,2.1421,2.1076,1.9321,1.9758,2.0488,1.8812,1.9264,2.0194,2.0131,2.0622,2.1134,0.0,0.0,2.2499,2.2722,2.3399,2.3968,2.3934,2.4033,2.4078,2.4044,2.4772,2.5133,2.4585,2.5244,2.5846,2.6104,2.5649,2.5363,2.5587,2.6341,2.6829,2.6836,2.7569,2.8021,2.7984,2.8024,2.8415,2.9174,2.9246,2.9644,3.0385,3.0206,3.009,3.0163,2.9149,2.8735,2.8779,2.7894,2.759,2.7675,2.7491,2.7453,2.7529,2.7243,2.7024,2.6897,2.6803,2.6568,2.6319,2.6319,2.5663,2.489,0.0,0.0,0.0,0.0,0.0,0.0,0.0,0.0,0.0,0.0,0.0,2.5012,2.3651,2.4186,2.4684,2.4851,2.6178,2.7954,3.017,3.1188,3.2881,3.551,3.5204,3.4757,3.4291,3.3824,3.3481,3.3336,3.2345,3.1663,3.1324,3.0976,3.0817,3.0809,3.0794,3.0771,3.074,3.0358,3.038,3.0639,2.9846,2.9504,2.9269,2.7972,2.6942,2.6086,2.5068,2.4476,0.0,0.0,2.2875,2.2171,2.2163,2.1794,2.1214,2.0474,2.0663,2.1085,2.0758,2.0683,2.0811,2.1205,2.1458,2.168,2.2088,2.2461,2.2844,2.3327,2.3741,2.4026,2.3969,2.3996,2.4026,0.0,2.489,2.5244,2.4642,2.5389,2.6027,2.6263,2.6069,2.6219,2.7035,2.7351,2.7564,2.7685,2.8086,2.8275,2.8238,2.8718,2.9106,2.9497,2.993,3.0348,3.0711,3.0125,2.9855,2.9833,2.8888,2.8702,2.9132,2.8252,2.7846,2.7835,2.8268,2.8167,2.7669,2.7462,2.7304,2.7228,2.7485,2.7177,2.6602,2.657,2.614,2.572,0.0,0.0,0.0,0.0,0.0,0.0,0.0,0.0,0.0,0.0,0.0,0.0,0.0,0.0,2.3765,2.4543,2.5397,2.6715,2.861,2.9736,3.1695,3.4703,3.4538,3.3975,3.302,3.3059,3.2854,3.2447,3.1639,3.1093,3.0816,3.0801,3.0785,3.0808,3.0789,3.0813,3.0764,3.0499,3.0502,3.0678,2.9878,2.9538,2.9269,2.789,2.7139,2.6611,2.4851,2.4057,0.0,2.2856,2.2355,2.2065,2.2026,2.1728,2.1369,2.1349,2.1418,2.1632,2.2051,2.1816,2.1561,2.207,2.2209,2.2354,2.2897,2.3032,2.3168,2.3718,2.3878,2.3971,2.4148,2.4024,2.4105,2.4713,2.536,2.5587,2.5053,2.5909,2.6608,2.6573,2.6705,2.7334,2.8665,2.8453,2.8365,2.8574,2.8866,2.8984,2.8945,2.9514,2.9868,2.9866,3.0428,3.0691,3.0694,3.0051,2.9711,2.9676,2.8991,2.9009,2.9548,2.8887,2.8592,2.8615,2.9142,2.8983,2.8377,2.8131,2.7997,2.789,2.8237,2.7959,2.7251,2.7185,2.6845,2.6585,0.0,0.0,0.0,0.0,0.0,0.0,0.0,0.0,0.0,0.0,0.0,0.0,0.0,0.0,2.3806,2.3902,2.4677,2.597,2.7893,2.958,3.1123,3.2522,3.3579,3.3609,3.2537,3.2515,3.253,3.25,3.2459,3.1865,3.0801,3.0817,3.0795,3.0782,3.0782,3.0813,3.0728,2.9917,3.0007,3.0564,2.8048,2.8006,2.9225,2.6651,2.6176,2.6658,2.4939,0.0,2.2833,2.2027,2.1152,2.0475,2.0385,2.087,2.147,2.1407,2.1853,2.2332,2.2165,2.2566,2.3019,2.2914,2.3339,2.3852,2.3842,2.3801,2.378,2.3868,2.3837,2.4091,2.4985,2.4533,2.4578,2.6331,2.6716,2.6563,2.5959,2.7176,2.7912,2.7335,2.7795,2.872,0.0,2.9606,2.9282,2.9528,3.0351,3.0818,3.0817,3.0765,3.0744,3.0761,3.0738,3.0709,3.0714,3.0618,3.0599,3.0661,3.0513,3.0477,3.0554,3.0397,3.0304,3.0302,3.0279,3.0215,3.0095,2.9842,2.9644,2.9485,2.927,2.9075,2.8902,2.8773,2.8131,2.7453,0.0,0.0,0.0,0.0,0.0,0.0,0.0,0.0,0.0,0.0,0.0,0.0,0.0,0.0,0.0,0.0,2.3909,2.4923,2.6235,2.7426,2.8764,3.0453,3.0893,3.1538,3.248,3.1755,3.1367,3.1366,3.1378,3.1194,3.0795,3.0756,3.0733,3.0727,3.0736,3.0736,3.0736,3.0458,3.0083,2.962,2.9509,2.9164,2.8505,2.7275,2.6794,2.6556,0.0,0.0,2.2818,2.1379,2.0694,2.0492,2.1004,2.0931,2.0847,2.1894,2.2281,2.2602,2.3506,2.3793,2.3953,2.4388,2.5006,2.5492,2.5422,2.5001,2.4737,2.5258,2.4545,2.407,2.49,2.4553,2.4356,2.5069,2.6191,2.6755,2.6137,2.7453,2.8416,2.8298,2.8465,0.0,0.0,0.0,0.0,3.0293,3.0555,3.0727,3.0776,3.0776,3.1061,3.166,3.1066,3.1055,3.1624,3.0999,3.0665,3.0694,3.0625,3.0591,3.06,3.0525,3.0495,3.0539,3.0385,3.0254,3.0174,2.9897,2.9719,2.956,2.9296,2.9112,2.8964,2.8798,2.8179,2.7405,0.0,0.0,0.0,0.0,0.0,0.0,0.0,0.0,0.0,0.0,0.0,0.0,0.0,0.0,0.0,0.0,0.0,2.357,2.4523,2.5707,2.6916,2.8074,2.8463,2.9254,3.0505,2.9491,2.9172,2.96,2.9996,2.9778,2.8957,2.9305,2.991,3.0694,3.0416,3.0419,3.0664,3.0426,2.9833,2.9035,2.9336,2.8759,2.7678,2.7028,2.6621,0.0,0.0,2.3049,2.2812,2.1089,2.048,2.0553,2.132,2.1508,2.1636,2.2675,2.3082,2.339,2.43,2.4596,2.4677,2.5043,2.5721,2.6245,2.6164,2.5536,2.5124,2.5622,2.4759,2.4153,2.4996,2.4654,2.458,2.5613,2.6514,2.7097,2.7016,2.8139,2.8944,2.8776,2.9022,2.9524,0.0,0.0,0.0,3.0726,3.0654,3.0789,3.1169,3.1245,3.1651,3.2524,3.2017,3.2008,3.2533,3.1657,3.1011,3.0714,3.0668,3.0637,3.0582,3.0577,3.055,3.0579,3.0392,3.0279,3.0147,2.9905,2.9672,2.9501,2.9286,2.9123,2.8962,2.8469,2.7888,2.7369,0.0,0.0,0.0,0.0,0.0,0.0,0.0,0.0,0.0,0.0,0.0,0.0,0.0,0.0,0.0,0.0,0.0,0.0,2.2892,2.4526,2.5482,2.5571,2.6367,2.6834,2.6872,2.6043,2.6192,2.7319,2.8331,2.7746,2.5641,2.6661,2.8327,3.0403,2.9671,2.9785,3.0392,2.9704,2.9123,2.8554,2.7405,2.6864,2.668,2.5914,0.0,0.0,0.0,2.3089,2.2773,2.1053,2.0519,2.066,2.1326,2.2551,2.3683,2.3708,2.4117,2.4583,2.4493,2.4875,2.5226,2.4982,2.5549,2.6187,2.6033,2.5502,2.5049,2.5074,2.4569,2.44,0.0,0.0,2.5171,2.7755,2.7586,2.746,2.8453,2.925,2.9473,0.0,0.0,0.0,0.0,0.0,0.0,3.0934,0.0,3.108,3.2024,3.2133,3.2553,3.3434,3.3434,3.3379,3.3379,3.2519,3.1646,3.0756,3.0714,3.0687,3.0629,3.0629,3.0552,3.0515,3.0425,3.0292,3.0075,2.9875,2.9635,2.9411,2.9254,2.9145,2.8971,2.7861,2.7404,2.7272,0.0,0.0,0.0,0.0,0.0,0.0,0.0,0.0,0.0,0.0,0.0,0.0,0.0,0.0,0.0,0.0,0.0,0.0,2.2109,2.3069,2.3705,2.3747,2.3982,2.4403,2.5068,2.4855,2.5205,2.6122,2.5588,2.5431,2.5648,2.5052,2.5551,2.6991,2.7376,2.7333,2.7018,2.7642,2.6404,2.4118,0.0,2.5528,2.5072,0.0,0.0,0.0,2.3471,2.2728,2.2023,2.0904,2.0823,2.1378,2.2044,2.2903,2.3708,2.3625,2.4061,2.4485,2.4393,2.475,2.5099,2.499,2.5549,2.6162,2.6308,2.5811,2.55,2.6253,2.5356,2.4662,0.0,0.0,0.0,2.636,2.6951,0.0,2.8539,2.9436,0.0,2.9921,0.0,3.0415,3.0628,3.0564,0.0,0.0,3.1631,3.169,3.1926,3.2655,3.3452,3.4341,3.3721,3.3715,3.4356,3.2857,3.194,3.1649,3.1014,3.0682,3.0651,3.0683,3.0649,3.0557,3.051,3.0328,3.008,2.9891,2.9635,2.9411,2.9254,2.9067,2.8748,2.7719,2.6898,2.6161,0.0,0.0,0.0,0.0,0.0,0.0,0.0,0.0,0.0,0.0,0.0,0.0,0.0,0.0,0.0,0.0,0.0,0.0,0.0,2.1952,2.2457,2.2492,2.2476,2.2699,2.3209,2.2835,2.2884,2.3423,2.3178,2.3188,2.3437,2.351,2.3503,2.3497,2.5083,2.5736,2.5653,2.5962,0.0,0.0,0.0,0.0,0.0,0.0,0.0,2.4804,2.3553,2.2808,2.2409,2.2156,2.2307,2.2589,2.2869,2.3485,2.4075,2.4016,2.4182,2.4348,2.4284,2.4661,2.506,2.4957,2.5549,2.6162,2.6266,2.5831,2.5551,2.6135,2.5415,2.4843,2.5363,2.5341,2.5559,0.0,0.0,0.0,2.9125,2.9741,3.0154,0.0,3.0443,0.0,3.1263,3.1268,3.1604,0.0,3.2176,3.2249,3.3079,3.3668,3.4389,3.524,3.4817,3.4426,3.414,3.3145,3.227,3.1473,3.0998,3.0745,3.0714,3.0714,3.0644,3.0582,0.0,3.0319,3.0066,2.9907,2.9644,2.9343,2.9211,2.9033,2.8664,2.726,2.6367,2.5666,0.0,0.0,0.0,0.0,0.0,0.0,0.0,0.0,0.0,0.0,0.0,0.0,0.0,0.0,0.0,0.0,0.0,0.0,0.0,0.0,0.0,2.1531,2.1517,2.1511,2.1515,2.0798,2.043,2.0477,2.1238,2.125,2.0534,2.2031,2.1991,2.0776,2.2936,0.0,0.0,0.0,0.0,0.0,0.0,0.0,0.0,0.0,0.0,0.0,2.3748,2.3155,2.3209,2.3864,2.4007,2.3899,2.3752,2.4114,2.458,2.4522,2.4422,2.4346,2.4218,2.4553,2.4979,2.4793,2.5333,2.5873,2.578,2.5523,2.5319,2.5328,2.5122,2.4981,2.5031,2.5583,2.6391,2.7352,0.0,2.8813,2.9863,3.0083,3.0195,3.0392,3.0466,3.0937,3.1987,3.206,3.2459,3.3504,3.2762,3.2967,3.4596,3.4786,3.521,3.5981,3.5872,3.5093,3.3605,3.3353,3.2478,3.0981,3.0862,3.0762,3.0717,3.0694,3.0665,3.0582,3.0534,0.0,2.9865,2.9893,2.9595,2.9177,2.9093,2.8975,2.8579,2.6645,2.5849,2.5564,0.0,0.0,0.0,0.0,0.0,0.0,0.0,0.0,0.0,0.0,2.0521,0.0,0.0,0.0,0.0,0.0,0.0,0.0,0.0,0.0,0.0,0.0,2.063,2.0624,2.0615,2.0487,2.0425,2.0435,2.061,2.0662,2.0505,2.0813,2.117,2.1557,2.1313,2.1651,0.0,0.0,0.0,0.0,0.0,0.0,0.0,0.0,0.0,0.0,2.3788,2.351,2.3223,2.3935,2.4057,2.3995,2.4542,2.4728,2.4642,2.4482,2.4774,2.5007,2.4162,2.4449,2.4846,2.4147,2.4111,2.4236,2.4391,2.4674,0.0,2.4998,2.5147,2.5313,2.5247,2.5256,2.5793,2.7331,2.7684,2.8318,2.987,3.015,3.0241,0.0,3.0496,3.0918,3.2004,3.2088,0.0,0.0,0.0,3.4336,3.4609,3.5341,3.5836,3.5991,3.529,3.4783,3.447,3.3056,3.2186,3.1865,3.1153,3.0779,3.0697,3.07,3.0665,3.0582,3.0458,0.0,2.9268,2.9589,2.9254,2.8515,2.8798,2.8761,2.8278,2.6371,2.5557,2.5197,0.0,0.0,0.0,0.0,0.0,0.0,0.0,0.0,0.0,0.0,2.09,2.0315,0.0,0.0,0.0,0.0,0.0,0.0,0.0,0.0,0.0,0.0,0.0,0.0,0.0,1.9467,1.9007,1.8983,0.0,2.0495,2.0544,2.0508,2.0701,2.1121,2.0676,2.0735,2.1184,2.1837,2.1492,2.0572,2.1415,2.1263,0.0,0.0,0.0,0.0,0.0,2.3118,2.3155,2.3492,2.3824,2.4156,2.4777,2.4892,2.4818,2.4621,2.4723,2.482,2.4247,2.4245,2.4309,2.3956,2.3847,2.3903,2.4191,2.4911,0.0,2.5094,2.563,2.5964,2.5477,2.5682,2.6282,2.7459,2.7987,2.8717,2.9915,3.0206,3.0433,3.097,3.1149,3.1785,0.0,3.3329,3.391,0.0,0.0,3.5311,3.5349,3.5768,3.5998,3.6007,3.5141,3.4475,3.4013,3.2751,3.1879,3.1402,3.0995,3.0774,3.07,3.0685,3.0644,3.0608,3.0487,0.0,2.9545,2.9669,2.927,2.8656,2.8767,2.831,2.7446,2.5932,2.4982,2.4295,0.0,0.0,0.0,0.0,0.0,0.0,0.0,2.1462,2.1593,2.2154,2.1014,2.0169,2.0076,2.0249,2.0296,0.0,0.0,0.0,0.0,0.0,0.0,0.0,0.0,0.0,0.0,0.0,0.0,1.7712,1.9538,0.0,0.0,0.0,0.0,0.0,2.0489,2.0504,2.0485,2.0487,2.05,0.0,0.0,2.0501,0.0,0.0,0.0,0.0,0.0,2.2843,2.316,2.3544,2.4031,2.4596,2.4915,2.5034,2.4991,2.4766,2.4727,2.4671,2.4373,2.4236,2.4107,2.3982,2.3966,2.4031,2.4369,2.5315,2.595,2.5313,2.62,2.6731,2.5669,2.6099,2.6862,0.0,2.823,2.8994,3.0004,3.0381,3.0828,0.0,3.1913,0.0,3.4314,3.4484,0.0,0.0,0.0,0.0,3.6008,3.5804,3.5729,3.574,3.4676,3.3813,3.3119,3.2247,3.1492,3.0817,3.0798,3.0769,3.0694,3.0701,3.0649,3.0577,3.049,0.0,0.0,2.9636,2.9267,2.871,2.8446,2.7697,2.665,2.5317,2.4301,2.3459,0.0,0.0,0.0,0.0,0.0,0.0,0.0,2.2724,2.3625,2.0977,2.0325,2.0086,2.0021,2.0067,2.0058,0.0,0.0,0.0,0.0,0.0,0.0,0.0,0.0,0.0,0.0,0.0,0.0,1.7776,1.9584,0.0,0.0,0.0,0.0,0.0,0.0,2.0434,2.051,2.0485,0.0,0.0,0.0,0.0,0.0,0.0,0.0,0.0,0.0,2.3508,2.3356,2.4918,2.5496,2.5552,2.5464,2.5332,2.5142,2.4885,2.5145,2.5319,2.4502,2.463,2.4844,2.4218,2.4141,2.4229,2.4452,2.5359,2.5994,2.5254,2.6652,2.7457,2.5712,2.612,2.6925,0.0,0.0,2.8383,3.0053,3.0919,3.1509,3.1841,0.0,0.0,3.4546,3.4629,0.0,0.0,0.0,0.0,3.5972,3.5264,3.4832,3.4834,3.3227,3.2286,3.2209,3.1348,3.0872,3.0817,3.0806,3.0774,3.0714,3.0641,3.0578,3.0515,3.0296,0.0,0.0,2.925,2.8768,2.7853,2.7284,2.684,2.6296,2.4382,2.3483,2.3182,0.0,0.0,0.0,0.0,0.0,0.0,0.0,2.1672,2.2357,2.3088,2.1428,2.0137,1.9996,2.0007,1.9958,0.0,0.0,0.0,0.0,0.0,0.0,0.0,0.0,0.0,0.0,0.0,2.0115,1.9443,2.0153,0.0,0.0,0.0,0.0,0.0,0.0,2.0464,2.0507,2.0514,0.0,0.0,0.0,0.0,0.0,0.0,0.0,0.0,0.0,0.0,2.2495,2.3123,2.4056,2.49,2.485,2.5152,2.5434,2.5173,2.512,2.5039,2.4662,2.455,2.4471,2.4226,2.4201,2.4355,2.474,2.5964,2.6748,2.5638,2.7304,2.8408,2.6597,2.6529,2.7142,0.0,0.0,0.0,2.9973,3.0522,3.1184,3.2259,3.2817,0.0,0.0,0.0,0.0,0.0,0.0,0.0,3.6016,3.5151,3.4717,3.4683,3.2995,3.2091,3.2091,3.1227,3.0785,3.0798,3.0777,3.07,3.0641,3.0629,3.0545,3.0431,3.0279,0.0,0.0,2.9139,2.8349,2.6979,2.731,2.6325,2.4652,2.4143,2.3158,2.1998,0.0,0.0,0.0,0.0,0.0,0.0,2.1036,2.0514,2.0846,2.31,2.1425,2.0,1.9916,1.9861,1.9806,1.9837,0.0,0.0,0.0,0.0,0.0,0.0,0.0,0.0,0.0,0.0,2.0415,2.0469,2.0502,2.0483,0.0,0.0,2.0454,2.0388,0.0,0.0,0.0,0.0,0.0,0.0,0.0,0.0,0.0,0.0,0.0,0.0,0.0,0.0,0.0,0.0,0.0,2.4786,2.4791,2.5203,2.5615,2.5426,2.5168,2.4947,2.5164,2.4979,2.4833,2.512,2.504,2.5062,2.5696,2.68,2.7343,2.6204,2.8057,2.9246,2.7175,2.6981,2.7597,0.0,0.0,2.8429,2.996,3.0506,3.1158,3.2274,0.0,3.363,0.0,0.0,0.0,0.0,0.0,0.0,3.5929,3.4882,3.4328,3.4334,3.2606,3.1738,3.1737,3.1105,3.0773,3.0769,3.0703,3.0651,3.0531,3.0492,3.0304,3.0006,3.0039,0.0,0.0,2.8574,2.7731,2.6355,2.6721,2.5552,2.3699,2.3757,2.28,2.1375,0.0,0.0,0.0,0.0,0.0,0.0,0.0,1.9729,1.9604,1.9649,1.9634,1.9633,1.9713,1.9645,1.9619,1.9699,0.0,0.0,0.0,0.0,0.0,0.0,0.0,0.0,0.0,0.0,2.041,2.0411,2.0483,2.0498,2.0498,2.0517,2.0443,2.0396,0.0,0.0,0.0,0.0,0.0,0.0,0.0,0.0,0.0,0.0,0.0,0.0,0.0,0.0,0.0,0.0,0.0,0.0,0.0,2.5638,2.5574,2.5502,2.5341,2.5369,2.6187,2.6233,2.6303,2.7219,2.6875,2.6579,2.7636,2.7877,2.7686,2.7034,2.8902,2.9885,2.7267,2.7439,2.8212,2.8988,2.8427,0.0,3.005,3.1158,3.1771,0.0,0.0,3.3219,3.305,0.0,0.0,0.0,0.0,0.0,3.5693,3.4257,3.3391,3.3394,3.1706,3.0798,3.0792,3.0783,3.0759,3.0703,3.0711,3.0591,3.0402,3.0278,2.9811,0.0,0.0,0.0,0.0,2.7389,2.6847,2.602,2.5087,2.4474,2.398,2.2916,2.2228,2.1642,0.0,0.0,0.0,0.0,0.0,0.0,0.0,1.9634,1.9708,1.9612,1.959,1.9653,1.975,1.9657,1.9638,1.977,0.0,0.0,0.0,0.0,0.0,0.0,0.0,0.0,0.0,0.0,2.0418,2.0489,2.0489,2.0495,2.0517,2.0509,2.045,2.041,2.0415,2.0459,0.0,0.0,0.0,0.0,0.0,0.0,0.0,0.0,0.0,0.0,0.0,0.0,0.0,0.0,0.0,0.0,0.0,0.0,0.0,2.5622,2.5457,2.5314,2.5529,2.5488,2.5547,2.6456,2.6523,2.6495,2.6924,2.7919,2.824,2.6412,2.804,2.9182,2.7168,2.7474,2.8285,2.91,2.8985,0.0,0.0,0.0,0.0,3.2382,3.3997,3.4783,0.0,0.0,0.0,0.0,0.0,0.0,3.5894,3.4295,3.3388,3.3386,3.1694,3.0819,3.08,3.0795,3.0759,3.0626,3.0535,3.0428,3.0247,3.0035,2.9756,0.0,0.0,0.0,0.0,2.7115,2.5996,2.4418,2.4936,2.4197,2.2883,2.2891,2.255,2.1929,0.0,0.0,0.0,0.0,0.0,0.0,0.0,1.941,1.9479,1.9588,1.956,1.9567,1.9599,1.921,1.8814,1.8528,0.0,0.0,0.0,0.0,0.0,0.0,0.0,0.0,0.0,2.0118,2.0427,2.0509,2.0485,2.0487,2.0513,2.0513,2.0454,2.041,2.0417,2.0461,0.0,0.0,0.0,0.0,0.0,0.0,2.05,0.0,0.0,0.0,0.0,0.0,0.0,0.0,0.0,0.0,0.0,0.0,0.0,0.0,2.5585,2.5493,2.5778,2.5785,2.5966,2.6816,2.6829,2.6719,2.7167,2.7834,2.7948,2.6368,2.7553,2.8456,2.702,2.7424,2.829,2.9096,2.9202,2.9443,0.0,0.0,0.0,3.2431,0.0,0.0,0.0,0.0,0.0,0.0,0.0,0.0,3.6012,3.4365,3.3417,3.3402,3.1711,3.0793,3.0767,3.0745,3.0648,3.0534,3.0374,3.0227,3.009,2.9813,2.948,0.0,0.0,0.0,0.0,2.6622,2.531,2.3361,2.463,2.4063,2.2556,2.3097,2.2873,2.2182,0.0,0.0,0.0,0.0,0.0,0.0,0.0,0.0,0.0,0.0,1.9538,1.9444,1.9317,1.8344,1.7266,0.0,0.0,0.0,0.0,0.0,0.0,0.0,0.0,0.0,0.0,1.9664,2.0283,2.0419,2.0478,2.0511,2.0482,2.0482,2.0456,2.0396,2.0459,2.0505,0.0,0.0,0.0,0.0,0.0,0.0,0.0,0.0,0.0,0.0,0.0,0.0,0.0,0.0,0.0,0.0,0.0,0.0,0.0,0.0,0.0,0.0,0.0,2.6866,2.7108,2.7918,2.7532,2.7188,2.8007,2.7608,0.0,2.6787,2.7369,2.7675,2.6859,2.7404,2.8255,2.8977,2.9144,2.9458,0.0,3.0516,0.0,0.0,3.1987,0.0,0.0,0.0,0.0,0.0,0.0,0.0,3.5916,3.4311,3.3358,3.3281,3.1673,3.0762,3.0697,3.0622,3.0505,3.0297,3.0233,3.0049,2.9783,2.957,2.9055,0.0,0.0,0.0,0.0,2.5997,2.4787,2.2853,2.431,2.4026,2.2896,2.3373,2.3151,2.2468,0.0,0.0,0.0,0.0,0.0,0.0,0.0,0.0,0.0,0.0,1.9502,1.9505,1.9537,1.7001,1.5185,0.0,0.0,0.0,0.0,0.0,0.0,0.0,0.0,0.0,0.0,1.8924,1.9406,1.9496,2.0157,2.0504,2.0497,2.0497,2.0482,2.0454,2.043,2.0432,2.0427,0.0,0.0,0.0,0.0,0.0,0.0,0.0,0.0,0.0,2.1721,2.2782,0.0,0.0,0.0,0.0,0.0,0.0,0.0,0.0,2.5695,2.5729,2.5926,0.0,2.6119,2.6913,2.7033,2.6965,0.0,2.7601,2.7543,2.615,2.6482,2.6947,2.6684,2.7374,2.8191,2.8829,2.9572,3.0178,3.0351,0.0,0.0,3.2749,0.0,0.0,0.0,0.0,0.0,0.0,0.0,3.5691,3.5057,3.3986,3.3065,3.2335,3.1258,3.0633,3.0602,3.0574,3.0156,2.9481,2.9813,2.9619,2.8912,2.8964,2.8823,0.0,0.0,0.0,2.6453,2.576,2.4893,2.392,2.4294,2.3965,2.3251,2.305,2.29,2.2673,0.0,0.0,0.0,0.0,0.0,0.0,0.0,0.0,0.0,0.0,0.0,0.0,0.0,0.0,0.0,0.0,0.0,0.0,0.0,0.0,0.0,0.0,0.0,0.0,1.7795,1.8656,1.9321,1.9793,2.0221,2.0454,2.0489,2.0489,2.0519,2.0502,2.0471,2.0437,2.0439,2.0471,2.0491,0.0,2.049,0.0,0.0,0.0,0.0,0.0,2.1645,2.2392,0.0,2.4138,2.4725,2.5153,0.0,0.0,0.0,0.0,2.5702,2.57,2.5702,2.5648,2.5806,2.6647,2.6588,2.6425,2.6803,2.6946,2.6801,2.6232,2.6385,2.6703,2.7028,2.7885,2.8608,2.8927,2.9785,0.0,0.0,0.0,3.3646,3.3179,0.0,0.0,0.0,0.0,0.0,0.0,0.0,3.5603,3.469,3.3847,3.2959,3.2026,3.1068,3.0539,3.0509,3.0407,3.0111,2.9583,2.9703,2.9439,2.8862,2.8754,2.8615,0.0,0.0,0.0,2.6161,2.5706,2.4887,2.395,2.4547,2.4137,2.3242,2.3119,2.2892,2.2552,0.0,0.0,0.0,0.0,0.0,0.0,0.0,0.0,0.0,0.0,0.0,0.0,0.0,0.0,0.0,0.0,0.0,0.0,0.0,0.0,0.0,0.0,0.0,1.6756,1.7569,1.8603,1.9499,2.029,2.0359,2.0437,2.0485,2.0487,2.0482,2.051,2.0505,2.0473,2.0487,2.0514,2.05,2.0498,2.049,0.0,0.0,0.0,0.0,0.0,0.0,0.0,0.0,2.3709,2.4297,2.4531,2.5425,0.0,0.0,0.0,0.0,0.0,2.5703,2.5765,2.5923,2.6552,2.6164,2.5774,2.6539,2.6085,2.5729,2.6509,2.6601,2.6792,2.7717,2.8549,0.0,0.0,0.0,0.0,3.2119,3.3597,3.432,3.3509,0.0,0.0,0.0,0.0,0.0,0.0,0.0,3.555,3.4467,3.3701,3.2846,3.1813,3.0921,3.0441,3.0353,3.0222,3.0056,2.981,2.9651,2.9287,2.8794,2.8615,2.8252,2.7788,0.0,0.0,2.5594,2.5716,2.4828,2.36,2.4785,2.4347,2.3082,2.3233,2.2875,2.2217,0.0,0.0,0.0,0.0,0.0,0.0,0.0,0.0,0.0,0.0,0.0,0.0,0.0,0.0,0.0,0.0,0.0,0.0,0.0,0.0,0.0,0.0,1.5823,1.6429,1.6681,1.8288,1.9212,1.941,2.0058,2.0448,2.0502,2.048,2.0487,2.0485,2.0454,2.0459,2.0487,2.0514,2.05,2.05,2.0501,0.0,0.0,0.0,0.0,0.0,0.0,0.0,0.0,2.3199,2.3788,2.4561,2.5427,0.0,0.0,0.0,0.0,0.0,2.5694,2.6175,2.6574,2.5942,2.5689,2.561,2.5696,2.5651,2.5783,2.6489,2.6612,2.7028,2.846,2.9008,2.9437,0.0,0.0,3.205,0.0,0.0,0.0,0.0,0.0,0.0,0.0,0.0,0.0,0.0,0.0,3.5307,3.3675,3.3403,3.2531,3.0854,3.0549,3.0284,3.0073,3.0104,2.9699,2.8893,2.9194,2.8537,2.7028,2.7755,2.755,2.6648,0.0,2.6127,2.5995,2.5628,2.4862,2.396,2.4696,2.4098,2.2836,2.282,2.242,2.1769,0.0,0.0,0.0,0.0,0.0,0.0,0.0,0.0,0.0,0.0,0.0,0.0,0.0,0.0,0.0,0.0,0.0,0.0,0.0,0.0,0.0,1.5582,1.6234,1.6907,1.7611,1.9078,1.9881,1.9918,2.0738,2.0937,2.0514,2.0517,2.0475,2.0432,1.9791,1.9876,2.0448,2.0482,2.0509,2.0509,0.0,0.0,0.0,0.0,0.0,0.0,0.0,0.0,0.0,0.0,2.3359,2.3941,2.5272,0.0,0.0,0.0,0.0,0.0,2.5647,2.5882,2.6145,2.6217,2.662,2.6928,2.6919,2.6928,2.7158,2.7954,0.0,0.0,0.0,0.0,3.0217,3.096,0.0,3.3572,3.438,0.0,0.0,0.0,0.0,0.0,0.0,0.0,0.0,0.0,0.0,0.0,3.3391,3.3635,3.2773,3.05,3.0745,3.056,2.9859,2.9822,2.9506,2.9028,2.8984,2.8459,2.7458,2.761,2.7263,2.6533,0.0,2.5798,2.5709,2.5209,2.4809,2.4433,2.453,2.3968,2.3063,2.2449,2.1789,2.1188,0.0,0.0,0.0,0.0,0.0,0.0,0.0,0.0,0.0,0.0,0.0,0.0,0.0,0.0,0.0,0.0,0.0,0.0,0.0,0.0,1.5236,1.6299,1.6808,1.7551,1.8672,2.0119,2.0841,2.0774,2.1442,2.133,2.0517,2.0464,2.0456,2.0381,1.9551,1.9646,2.0413,2.0446,2.0472,2.0509,0.0,0.0,0.0,0.0,0.0,0.0,0.0,0.0,0.0,0.0,0.0,0.0,0.0,0.0,0.0,2.5703,2.5699,2.5687,2.5595,2.5857,2.6178,2.6417,2.7122,2.7826,2.8011,2.8071,2.8307,2.9179,0.0,0.0,0.0,3.0638,0.0,3.2342,3.3708,3.4723,0.0,0.0,0.0,0.0,0.0,0.0,0.0,0.0,0.0,0.0,0.0,0.0,3.3278,3.3495,3.2613,3.0316,3.0713,3.0544,2.9662,2.9503,2.9231,2.891,2.8734,2.8247,2.7504,2.7357,2.6916,2.6219,2.5782,2.5484,2.5253,2.4885,2.4607,2.4396,2.4225,2.3717,2.292,2.2006,2.1345,2.0907,0.0,0.0,0.0,0.0,0.0,0.0,0.0,0.0,0.0,0.0,0.0,0.0,0.0,0.0,0.0,0.0,0.0,0.0,0.0,0.0,1.5311,1.6713,1.7365,1.8145,1.9026,2.0992,2.1856,2.1615,2.1664,2.1274,2.0515,2.0421,2.0432,2.0505,2.0352,2.0373,2.0504,2.0434,2.0448,2.0485,2.0502,0.0,0.0,0.0,0.0,0.0,0.0,0.0,0.0,0.0,0.0,0.0,0.0,0.0,2.5698,2.5703,2.5652,2.5629,2.56,2.6715,2.7507,2.5902,2.6172,2.7005,2.7808,2.8027,2.8221,2.9048,0.0,0.0,0.0,3.1119,3.2255,3.4177,3.4451,0.0,0.0,0.0,0.0,0.0,0.0,0.0,0.0,0.0,0.0,0.0,0.0,0.0,3.3176,3.2282,3.1275,3.0129,2.9977,2.979,2.9503,2.9254,2.8669,2.7746,2.8215,2.7361,2.5443,2.6477,2.6218,2.4972,2.5397,2.5335,2.4922,2.4831,2.4157,2.3254,2.3667,2.3031,2.1864,2.141,2.1267,2.1198,0.0,0.0,0.0,0.0,0.0,0.0,0.0,0.0,0.0,0.0,0.0,0.0,0.0,0.0,0.0,0.0,0.0,0.0,0.0,0.0,1.5442,1.7157,1.7979,1.8835,1.9903,2.1726,2.263,2.2498,2.1413,2.0743,2.0448,2.0402,2.041,2.043,2.0464,2.0471,2.0485,2.048,2.0487,2.054,2.1058,2.1255,0.0,0.0,0.0,0.0,0.0,0.0,0.0,0.0,2.4128,2.4566,2.5424,2.5698,2.5699,2.5692,2.5669,2.5589,2.5559,2.6378,2.7065,2.6347,2.7219,2.8203,2.8032,2.8846,2.9702,3.0064,3.016,0.0,0.0,0.0,3.3982,3.5227,3.5378,0.0,0.0,0.0,0.0,0.0,0.0,0.0,0.0,0.0,0.0,0.0,0.0,0.0,3.2254,3.2193,3.1522,2.9967,3.016,2.9949,2.9222,2.8402,2.7659,2.7056,2.77,2.7451,2.6301,2.6453,2.6095,2.531,2.5379,2.4927,2.4159,2.4306,2.3743,2.2786,2.2798,2.256,2.2205,2.178,2.1642,2.1604,0.0,0.0,0.0,0.0,0.0,0.0,0.0,0.0,0.0,0.0,0.0,0.0,0.0,0.0,0.0,0.0,0.0,0.0,0.0,1.4579,1.5522,1.7378,1.8083,1.9173,2.0743,2.1952,2.2586,2.2574,2.1374,2.0662,2.0402,2.0402,2.0609,2.0978,2.0905,2.0905,2.0903,2.0908,2.0713,2.0558,2.1077,2.1468,0.0,0.0,0.0,0.0,0.0,0.0,0.0,0.0,2.458,2.4893,2.5491,2.5685,2.5719,2.5719,2.5857,2.594,2.5571,2.647,2.7366,2.6786,2.8124,2.935,2.8577,2.9543,3.0613,3.0672,3.0947,3.1503,3.2606,0.0,0.0,0.0,0.0,0.0,0.0,0.0,0.0,0.0,0.0,0.0,0.0,0.0,0.0,0.0,0.0,0.0,0.0,3.163,3.1097,2.981,3.0007,2.9646,2.8617,2.8034,2.7346,2.662,2.7126,2.6969,2.6189,2.6017,2.5568,2.4867,2.4881,2.422,2.3212,2.3733,2.3353,2.2469,2.239,2.2324,2.2233,2.2008,2.2004,2.1944,0.0,0.0,0.0,0.0,0.0,0.0,0.0,0.0,0.0,0.0,0.0,0.0,0.0,0.0,0.0,0.0,0.0,0.0,1.4514,1.4579,1.5508,1.7334,1.7664,1.899,2.1536,2.1649,2.1706,2.1706,2.1691,2.1259,2.041,2.041,2.1061,2.2195,2.1867,2.1755,2.1811,2.1714,2.124,2.0505,2.0443,2.0945,2.1693,0.0,0.0,0.0,0.0,0.0,0.0,0.0,2.4925,2.5621,2.5687,2.5687,2.5718,2.5718,2.6265,2.6684,2.5771,2.7365,2.8857,2.7134,2.8565,3.0191,2.948,2.9988,3.0637,3.0707,3.1419,3.2533,3.4173,3.5227,0.0,3.6988,0.0,0.0,0.0,0.0,0.0,0.0,0.0,0.0,0.0,0.0,0.0,0.0,0.0,0.0,0.0,3.0263,2.9681,2.9701,2.937,2.8739,2.782,2.83,2.7857,2.6414,2.6414,2.574,2.4529,2.4962,2.4494,2.3322,2.3719,2.3172,2.2081,2.3155,2.3031,2.2231,2.256,2.2282,2.1746,2.2003,2.2184,2.2235,0.0,0.0,0.0,0.0,0.0,0.0,0.0,0.0,0.0,0.0,0.0,0.0,0.0,0.0,0.0,0.0,0.0,0.0,1.4514,1.4606,1.5541,1.7403,1.7633,1.8673,2.0655,2.0707,2.1037,2.1682,2.2317,2.2177,2.1299,2.1313,2.1527,2.1941,2.2451,2.2369,2.1813,2.1724,2.1553,2.1416,2.1977,2.2365,2.2729,0.0,0.0,0.0,0.0,0.0,0.0,0.0,0.0,0.0,2.5665,2.5655,2.5636,2.5642,2.5773,2.6007,2.6339,2.7376,2.8255,2.7721,2.9076,3.0475,3.0264,3.0447,3.0831,0.0,3.2797,3.3983,3.4482,3.5768,0.0,0.0,0.0,0.0,0.0,0.0,0.0,0.0,0.0,0.0,0.0,0.0,0.0,0.0,0.0,0.0,0.0,2.9839,2.9523,2.9353,2.9222,2.8877,2.8312,2.7648,2.7246,2.7102,2.6304,2.5825,2.5663,2.4663,2.43,2.4366,2.3748,2.3079,2.2394,2.2149,2.2099,2.221,2.215,2.2247,2.2382,2.228,2.2305,2.2378,0.0,0.0,0.0,0.0,0.0,0.0,0.0,0.0,0.0,0.0,1.8676,1.8695,0.0,0.0,0.0,0.0,0.0,0.0,0.0,0.0,1.6364,1.7904,1.8118,1.8822,2.0255,2.0669,2.1117,2.1717,2.1897,2.1876,2.1696,2.1719,2.2138,2.2867,2.3379,2.3293,2.2808,2.2756,2.2532,2.2261,2.2791,2.3224,2.3627,0.0,0.0,0.0,0.0,0.0,0.0,0.0,0.0,0.0,2.5644,2.5634,2.5615,2.561,2.6091,2.6643,2.6765,2.7893,2.8957,2.8628,2.9839,3.1187,3.1571,0.0,0.0,0.0,3.3867,3.4682,3.503,3.6198,0.0,0.0,0.0,0.0,0.0,0.0,0.0,0.0,0.0,0.0,0.0,0.0,0.0,0.0,0.0,0.0,0.0,2.9589,2.9394,2.9228,2.9055,2.8615,2.798,2.7188,2.6613,2.6316,2.5316,2.4942,2.5102,2.413,2.3576,2.3222,2.2386,2.2181,2.2382,2.1535,2.1505,2.2002,2.2035,2.2264,2.2524,2.2485,2.2425,2.2339,0.0,0.0,0.0,0.0,0.0,0.0,0.0,0.0,0.0,0.0,1.8606,1.8664,0.0,0.0,0.0,0.0,0.0,0.0,0.0,0.0,1.7643,1.8681,1.8909,1.9408,2.0294,2.1124,2.1578,2.1578,2.0856,2.1022,2.192,2.1923,2.2861,2.4534,2.4535,2.4489,2.4395,2.4335,2.3827,2.3111,2.3111,2.3588,2.4308,2.4394,0.0,0.0,0.0,0.0,0.0,0.0,0.0,0.0,2.5591,2.5593,2.5619,2.5595,2.6759,2.7884,2.7127,2.8673,3.036,2.9771,3.0867,3.2301,3.3203,3.3434,3.3659,3.4363,0.0,3.4915,3.568,3.6586,3.7183,0.0,0.0,0.0,0.0,0.0,0.0,0.0,0.0,0.0,0.0,0.0,0.0,0.0,0.0,0.0,0.0,2.9427,2.9302,2.9259,2.8832,2.8154,2.7184,2.6788,2.5925,2.4701,2.393,2.3492,2.3381,2.3354,2.2438,2.0814,2.0474,2.1026,2.2095,2.1259,2.1232,2.1747,2.2111,2.2319,2.2405,2.2628,2.2542,2.2288,0.0,0.0,0.0,0.0,0.0,0.0,0.0,0.0,0.0,0.0,0.0,0.0,0.0,0.0,0.0,0.0,0.0,0.0,0.0,0.0,1.7711,1.8731,1.9492,2.005,2.0294,2.0566,2.0666,2.0681,2.1186,2.2219,2.3713,2.3106,2.3762,2.5416,2.542,2.5373,2.5269,2.4574,2.4175,2.4038,2.4038,2.4135,2.4361,2.5046,2.5445,0.0,0.0,0.0,0.0,0.0,0.0,0.0,2.56,2.5589,2.5615,2.5587,2.5896,2.6442,2.7601,2.8776,2.9952,3.122,3.272,3.3975,3.4186,3.4763,3.5106,3.4651,3.5092,3.5597,3.5836,3.6577,0.0,0.0,0.0,0.0,0.0,0.0,0.0,0.0,0.0,0.0,0.0,0.0,0.0,0.0,0.0,0.0,2.9373,2.9353,2.9243,2.8917,2.8225,2.761,2.7143,2.6047,2.5261,0.0,2.4119,2.3309,2.2372,2.1826,2.1374,2.106,2.1672,2.1851,2.1698,2.1178,2.1324,2.1865,2.1856,2.2314,2.2976,2.2909,2.2813,2.2778,0.0,0.0,0.0,0.0,0.0,0.0,0.0,0.0,0.0,0.0,0.0,0.0,0.0,0.0,0.0,0.0,0.0,0.0,0.0,0.0,0.0,1.9454,2.034,2.0647,2.0311,2.1172,2.1631,2.1646,2.2102,2.2984,2.4293,2.4297,2.5023,2.6322,2.6326,2.6088,2.5637,2.5147,2.4919,2.491,2.4926,2.4902,2.4975,2.5411,2.5615,2.5665,2.563,0.0,0.0,0.0,0.0,0.0,0.0,0.0,2.5583,2.5603,2.5887,2.6494,2.7792,2.9056,3.0562,3.2734,3.3906,3.4609,3.5075,3.5504,3.5666,3.527,3.5541,3.588,3.5908,0.0,0.0,0.0,0.0,0.0,0.0,0.0,0.0,0.0,0.0,0.0,0.0,0.0,0.0,0.0,0.0,2.9431,2.9318,2.9195,2.8823,2.8155,2.7574,2.6918,2.6238,2.5352,2.4584,2.3947,2.3357,2.2484,2.141,2.0945,2.0911,2.1312,2.153,2.147,2.1242,2.1239,2.1407,2.1711,2.1782,2.2195,2.2774,2.2653,2.2476,2.2365,0.0,0.0,0.0,0.0,0.0,0.0,0.0,0.0,0.0,0.0,0.0,0.0,0.0,0.0,0.0,0.0,0.0,0.0,0.0,0.0,0.0,0.0,2.0915,2.1054,2.0534,2.2028,2.2876,2.3003,2.3133,2.3748,2.4765,2.5331,2.6165,2.7226,2.7342,2.6875,2.5928,2.5997,2.5897,2.5589,2.559,2.5598,2.563,2.5622,2.5669,2.5685,2.5683,2.5683,2.5683,2.5638,0.0,0.0,0.0,0.0,2.5593,2.5582,2.6096,2.6879,2.7864,2.9611,3.1713,3.4054,3.4677,0.0,3.573,3.5864,3.5804,3.5781,3.5824,3.5892,3.5878,0.0,0.0,0.0,0.0,0.0,0.0,0.0,0.0,0.0,0.0,0.0,0.0,0.0,0.0,0.0,0.0,2.928,2.9269,2.8874,2.8324,2.7562,2.6959,2.6264,2.545,2.4844,2.401,2.2933,2.228,2.1619,2.0938,2.0666,2.0868,2.1399,2.1015,2.0884,2.0957,2.1225,2.1422,2.1549,2.1675,2.1973,2.2329,2.2241,2.21,2.1985,0.0,0.0,0.0,0.0,0.0,0.0,0.0,0.0,0.0,0.0,1.8545,1.8688,0.0,0.0,0.0,0.0,0.0,0.0,0.0,0.0,0.0,2.0195,2.0377,2.0788,2.1515,2.1828,2.2314,2.3018,2.376,2.4948,2.6521,2.5898,2.648,2.8064,2.8819,2.8253,2.6797,2.7538,2.6979,2.5609,2.5587,2.5632,2.5689,2.5687,2.5696,2.5704,2.5694,2.5697,2.5707,2.5672,2.5697,0.0,0.0,0.0,2.5679,2.5601,2.5677,2.6143,2.7751,3.0528,3.3242,3.4406,3.5188,3.5756,0.0,0.0,3.5878,0.0,3.5805,3.5815,0.0,0.0,0.0,0.0,0.0,0.0,0.0,0.0,0.0,0.0,0.0,0.0,0.0,0.0,0.0,0.0,2.939,2.9228,2.9067,2.8233,2.7876,2.8107,2.6513,2.577,2.5987,2.4825,2.3746,2.2748,2.1618,2.1381,2.1896,2.1341,2.108,2.1074,2.1131,2.1259,2.1355,2.0907,2.1129,2.1726,2.114,2.1594,2.2513,2.2057,2.2262,2.2768,0.0,0.0,0.0,0.0,0.0,0.0,0.0,0.0,0.0,0.0,0.0,1.8752,0.0,0.0,0.0,0.0,0.0,0.0,0.0,0.0,0.0,2.0837,2.0949,2.142,2.2359,2.2929,2.3384,2.3721,2.4598,2.5939,2.7617,2.7688,2.841,2.9682,3.0546,2.9675,2.7729,2.9005,2.8044,2.5765,2.7181,2.7216,2.6497,2.697,2.7166,2.721,2.7539,2.7147,2.6467,2.6835,2.6397,2.5687,2.5648,0.0,0.0,0.0,2.5612,2.6091,2.8262,3.0668,3.272,3.3672,3.4525,3.5146,3.5155,3.5537,3.5882,3.582,3.5824,0.0,0.0,0.0,0.0,0.0,0.0,0.0,0.0,0.0,0.0,0.0,0.0,0.0,0.0,0.0,0.0,0.0,2.9174,2.9086,2.8892,2.79,2.7148,2.6739,2.5707,2.4953,2.455,2.4143,2.3405,2.2343,2.1531,2.1313,2.1642,2.1131,2.1029,2.1223,2.1209,2.1147,2.1116,2.1206,2.1267,2.1278,2.1602,2.1776,2.1834,2.1955,2.2041,2.218,0.0,0.0,0.0,0.0,0.0,0.0,0.0,0.0,0.0,0.0,0.0,0.0,0.0,0.0,0.0,0.0,0.0,0.0,0.0,0.0,0.0,2.1354,2.1687,2.2254,2.3202,2.3731,2.42,2.4635,2.5089,2.6187,2.7891,2.8694,2.972,3.0825,3.2059,3.107,2.8598,3.0463,2.9331,2.6562,2.9238,2.9212,2.7808,2.9213,2.9256,2.8748,2.9702,0.0,0.0,0.0,2.7769,2.6747,2.6165,2.5993,0.0,0.0,0.0,2.6658,2.8532,3.0488,3.2099,3.2801,3.359,3.4255,0.0,0.0,3.5638,0.0,3.588,0.0,0.0,0.0,0.0,0.0,0.0,0.0,0.0,0.0,0.0,0.0,0.0,0.0,0.0,0.0,0.0,0.0,2.9033,2.883,2.8373,2.7494,2.6623,2.5749,2.5098,2.4392,2.3688,2.3456,2.3061,2.2484,2.1762,2.1462,2.1468,2.118,2.1124,2.1284,2.1173,2.1085,2.1087,2.1541,2.1499,2.1183,2.1967,2.1847,2.1361,2.1697,2.1714,2.1573,0.0,0.0,0.0,0.0,0.0,0.0,0.0,0.0,0.0,0.0,0.0,0.0,0.0,0.0,1.9134,1.9202,0.0,0.0,0.0,0.0,0.0,2.128,2.2222,0.0,2.4099,2.3417,2.3898,2.5533,2.4799,2.5303,2.6982,2.7877,2.9133,3.0795,3.3193,3.2408,2.9401,3.1994,3.1117,2.8327,3.1466,3.1412,2.9763,0.0,0.0,0.0,0.0,0.0,0.0,0.0,0.0,0.0,0.0,2.6877,2.6667,0.0,0.0,0.0,2.8126,3.005,3.201,3.2079,3.2725,3.3591,0.0,0.0,0.0,0.0,0.0,0.0,0.0,0.0,0.0,0.0,0.0,0.0,0.0,0.0,0.0,0.0,0.0,0.0,0.0,0.0,0.0,0.0,2.8952,2.8373,2.7154,2.6868,2.6514,2.6085,2.4936,2.4444,2.4723,2.3224,2.2823,2.3511,2.2395,2.1906,2.1955,2.2004,2.1666,2.0988,2.088,2.1159,2.1746,2.1585,2.1728,2.2012,2.1685,2.1574,2.1527,2.1261,2.1275,2.1573,0.0,0.0,0.0,0.0,0.0,0.0,0.0,0.0,0.0,0.0,0.0,0.0,0.0,1.8941,1.8976,1.8949,1.9117,0.0,0.0,0.0,0.0,2.2064,2.1504,2.2354,2.4965,2.314,2.3275,2.5587,2.4782,2.527,2.6908,2.7774,2.8776,2.9917,3.2456,3.2611,3.1184,3.4221,3.299,0.0,0.0,0.0,0.0,0.0,0.0,0.0,0.0,0.0,0.0,0.0,0.0,0.0,0.0,0.0,0.0,0.0,0.0,2.8148,0.0,0.0,0.0,3.1167,3.1802,3.25,3.2845,3.3785,3.4681,3.4988,0.0,0.0,0.0,0.0,0.0,0.0,0.0,0.0,0.0,0.0,0.0,0.0,0.0,0.0,0.0,0.0,0.0,0.0,0.0,2.8036,2.6978,2.6563,2.6239,2.5922,2.5077,2.4387,2.3916,2.3515,2.3005,2.2374,2.2112,2.2006,2.2056,2.1614,2.1503,2.1609,2.1063,2.1182,2.1793,2.1455,2.1466,2.1731,2.1702,2.1524,2.1282,2.1483,2.1706,2.2002,0.0,0.0,0.0,0.0,0.0,0.0,0.0,0.0,0.0,0.0,0.0,0.0,0.0,0.0,1.8923,1.8967,1.9117,1.9338,1.9613,2.0045,2.0835,2.2133,2.1765,2.2654,2.5066,2.3159,2.3304,2.5617,2.4491,2.4801,2.6451,2.7014,2.7696,2.8547,3.0789,3.1654,3.1666,0.0,0.0,3.0653,0.0,0.0,3.3085,0.0,0.0,0.0,0.0,0.0,0.0,0.0,0.0,0.0,0.0,0.0,0.0,0.0,0.0,0.0,2.8207,0.0,0.0,0.0,3.0439,3.1145,3.149,0.0,3.3826,3.4099,0.0,0.0,0.0,0.0,0.0,0.0,0.0,0.0,0.0,0.0,0.0,0.0,0.0,0.0,0.0,0.0,0.0,0.0,0.0,0.0,2.6641,2.6527,2.6131,2.5379,2.4771,2.4066,2.3171,2.326,2.2818,2.1867,2.2128,2.2122,2.1976,2.1638,2.1594,2.1741,2.1216,2.1222,2.158,2.1257,2.1208,2.1441,2.1593,2.1473,2.1292,2.1821,2.2037,2.2148,0.0,0.0,0.0,0.0,0.0,0.0,0.0,0.0,0.0,0.0,0.0,0.0,0.0,0.0,0.0,1.9274,1.9398,1.9513,1.9707,2.0611,2.1254,2.1407,0.0,0.0,0.0,2.3513,2.3929,2.5615,2.3889,2.3881,2.5473,2.5455,2.589,2.6777,2.8435,2.9699,3.0737,0.0,3.3486,3.2534,0.0,3.8086,3.6066,0.0,0.0,0.0,4.0263,3.9586,0.0,3.7762,0.0,0.0,0.0,0.0,0.0,0.0,0.0,0.0,0.0,0.0,0.0,0.0,2.877,2.9602,3.047,0.0,3.2223,3.3086,0.0,0.0,0.0,0.0,0.0,0.0,0.0,0.0,0.0,0.0,0.0,0.0,0.0,0.0,0.0,0.0,0.0,0.0,2.7932,2.7335,2.6067,2.6628,2.6219,2.4565,2.4055,2.346,2.2714,2.2473,2.2301,2.2226,2.2529,2.2359,2.1772,2.2244,2.2035,2.1338,2.1377,2.1328,2.1152,2.0964,2.1007,2.126,2.1349,2.1441,2.1612,2.2257,2.2225,2.197,0.0,0.0,0.0,0.0,0.0,0.0,0.0,0.0,0.0,0.0,0.0,0.0,1.9686,1.9758,1.9701,1.9321,1.9982,2.0247,1.9879,2.0164,2.068,2.1419,0.0,0.0,0.0,0.0,0.0,0.0,0.0,0.0,0.0,0.0,0.0,2.6469,2.8153,2.9108,2.9669,3.291,0.0,3.4494,3.7164,3.8213,0.0,0.0,0.0,0.0,0.0,3.8939,3.9246,0.0,3.7766,3.8613,0.0,0.0,0.0,0.0,0.0,0.0,2.9157,0.0,0.0,0.0,0.0,0.0,2.9569,3.0455,3.1359,3.2186,0.0,0.0,0.0,0.0,0.0,0.0,0.0,0.0,0.0,0.0,0.0,0.0,0.0,0.0,0.0,0.0,0.0,0.0,2.7306,2.6976,2.6033,2.6185,2.5822,2.4812,2.4441,2.3897,2.3125,2.2709,2.2488,2.241,2.2226,2.2351,2.274,2.2088,2.1818,2.1872,2.1555,2.1206,2.0908,2.0672,2.1188,2.1998,2.1418,2.1611,2.2198,2.2203,2.2554,2.3102,0.0,0.0,0.0,0.0,0.0,0.0,0.0,0.0,0.0,0.0,0.0,0.0,2.0639,2.0762,2.0779,2.0485,2.0742,2.0816,2.0516,2.0222,2.0538,2.1539,0.0,0.0,0.0,0.0,0.0,0.0,0.0,0.0,0.0,0.0,0.0,0.0,0.0,0.0,0.0,0.0,0.0,0.0,3.7504,0.0,0.0,4.0365,4.0615,0.0,0.0,0.0,4.0547,3.9089,3.8798,0.0,0.0,0.0,0.0,0.0,0.0,0.0,0.0,0.0,0.0,0.0,0.0,0.0,2.8698,2.9331,2.9946,0.0,3.1094,0.0,0.0,0.0,0.0,0.0,0.0,0.0,0.0,0.0,0.0,0.0,0.0,0.0,0.0,2.7928,2.7366,2.6984,2.6999,2.6719,2.6032,2.5781,2.5381,2.4784,2.4379,2.3794,2.3061,2.2586,2.2365,2.2332,2.2139,2.2429,2.301,2.214,2.1926,2.2202,2.156,2.1283,2.129,2.0976,2.1252,2.1844,2.1499,2.1745,2.2266,2.2554,2.3021,2.3519,0.0,0.0,0.0,0.0,0.0,0.0,0.0,0.0,0.0,0.0,2.1185,2.1375,2.1717,2.1892,0.0,0.0,2.1701,2.1379,2.1345,2.0835,0.0,0.0,0.0,0.0,0.0,0.0,0.0,0.0,0.0,0.0,0.0,0.0,0.0,0.0,0.0,0.0,0.0,0.0,0.0,3.5482,3.8264,3.958,0.0,0.0,4.2469,4.1169,4.2943,4.263,4.1429,4.2004,4.0188,0.0,0.0,0.0,0.0,0.0,3.0667,0.0,0.0,0.0,0.0,0.0,2.6935,0.0,2.7855,2.8076,2.8306,2.9161,2.8669,0.0,0.0,0.0,0.0,0.0,0.0,0.0,0.0,0.0,0.0,0.0,0.0,0.0,2.8272,2.7244,2.6708,2.7096,2.6874,2.647,2.5972,2.5381,2.4914,2.4542,2.4006,2.3363,2.2649,2.225,2.2086,2.2108,2.2272,2.2543,2.2872,2.2372,2.2258,2.239,2.1576,2.1507,2.1955,2.166,2.1444,2.13,2.1676,2.188,2.211,2.3122,2.3539,2.3632,0.0,0.0,0.0,0.0,0.0,0.0,0.0,0.0,0.0,0.0,2.2149,2.2395,2.2703,2.2943,0.0,0.0,2.2968,2.2853,2.1617,2.2111,0.0,0.0,0.0,0.0,0.0,0.0,0.0,0.0,0.0,0.0,0.0,0.0,0.0,0.0,0.0,0.0,0.0,0.0,0.0,3.6797,3.7763,0.0,4.1946,4.2932,4.345,4.363,4.3534,4.3191,4.2703,4.214,3.9978,3.7286,0.0,0.0,0.0,3.1115,0.0,0.0,0.0,0.0,0.0,0.0,0.0,0.0,2.7023,2.7216,2.7454,0.0,2.7768,0.0,0.0,0.0,0.0,0.0,0.0,0.0,0.0,0.0,0.0,0.0,0.0,0.0,2.7748,2.6839,2.6354,2.6757,2.6331,2.5899,2.5451,2.513,2.4695,2.412,2.3601,2.2987,2.2287,2.2391,2.2339,2.2245,2.2517,2.2912,2.3412,2.2663,2.2414,2.2524,2.2195,2.1948,2.1801,2.2303,2.2503,2.2425,2.1963,2.2372,2.3204,2.3433,2.3696,2.4083,0.0,0.0,0.0,0.0,0.0,0.0,0.0,0.0,0.0,2.2874,2.3277,2.3603,2.3818,2.4009,0.0,0.0,0.0,0.0,0.0,0.0,0.0,0.0,0.0,0.0,0.0,0.0,0.0,0.0,0.0,0.0,0.0,0.0,0.0,0.0,0.0,0.0,0.0,0.0,3.5042,3.7539,3.8039,0.0,4.1693,4.2282,4.2991,4.3586,4.3085,4.2957,4.2866,4.1865,4.0212,0.0,0.0,3.5,3.3535,0.0,3.1334,3.1427,0.0,0.0,0.0,2.8712,0.0,0.0,0.0,2.695,2.6599,2.7407,2.6543,2.5637,2.5616,0.0,0.0,0.0,0.0,0.0,0.0,0.0,0.0,0.0,0.0,0.0,2.6906,2.612,2.5776,2.6317,2.5899,2.5451,2.5111,2.4695,2.4204,2.3631,2.3054,2.2609,2.2335,2.2169,2.2299,2.2654,2.2824,2.306,2.3333,2.2849,2.2648,2.2612,2.2279,2.2124,2.2084,2.2449,2.2749,2.2981,2.2717,2.3018,2.3516,2.3759,2.4137,2.4677,2.0622,0.0,0.0,0.0,0.0,0.0,0.0,0.0,0.0,2.3696,2.432,2.4816,2.5184,0.0,0.0,0.0,0.0,0.0,0.0,0.0,0.0,0.0,0.0,2.4652,0.0,0.0,0.0,0.0,0.0,0.0,0.0,0.0,0.0,0.0,0.0,0.0,0.0,0.0,0.0,3.8548,0.0,3.9863,4.1404,4.2017,4.2749,4.3315,4.2763,4.2723,4.2776,4.1674,4.0527,3.9244,3.7133,3.5665,0.0,0.0,0.0,0.0,0.0,0.0,0.0,0.0,0.0,2.6375,0.0,0.0,0.0,2.6518,2.5304,0.0,0.0,0.0,0.0,0.0,0.0,0.0,0.0,0.0,0.0,0.0,0.0,0.0,2.552,2.4882,2.4692,2.5413,2.507,2.4773,2.4634,2.4184,2.3653,2.3098,2.258,2.2301,2.2256,2.1956,2.2133,2.2783,2.3004,2.3114,2.3087,2.3008,2.2912,2.2869,2.236,2.2332,2.2604,2.2628,2.29,2.3317,2.3444,2.3536,2.3692,2.4117,2.4657,2.5125,1.9607,1.9878,0.0,0.0,0.0,0.0,0.0,0.0,0.0,2.3989,2.5046,2.6079,0.0,0.0,0.0,0.0,0.0,0.0,2.773,0.0,0.0,0.0,0.0,0.0,2.5967,0.0,0.0,0.0,0.0,0.0,0.0,0.0,0.0,0.0,3.0741,0.0,0.0,0.0,3.7397,0.0,3.9874,4.0876,0.0,4.3679,4.4442,4.505,4.3873,4.3463,4.3304,0.0,4.0594,3.8988,0.0,3.6122,3.4769,3.2142,0.0,0.0,0.0,0.0,0.0,0.0,2.8434,0.0,0.0,0.0,2.6471,2.581,0.0,0.0,0.0,0.0,0.0,0.0,0.0,0.0,0.0,0.0,0.0,0.0,0.0,0.0,0.0,2.2587,2.2564,2.3541,2.3283,2.3224,2.353,2.3618,2.3319,2.2603,2.246,2.2047,2.1355,2.1873,2.206,2.1942,2.2794,2.3168,2.3109,2.3063,2.3243,2.3569,2.2956,2.294,2.3384,2.3371,2.3529,2.3717,2.3564,2.3736,2.4123,2.4768,2.5028,2.5165,1.9146,1.961,0.0,0.0,0.0,0.0,0.0,0.0,0.0,2.4348,2.5745,0.0,0.0,0.0,0.0,0.0,0.0,3.1473,0.0,0.0,0.0,0.0,0.0,0.0,0.0,0.0,0.0,0.0,2.5771,0.0,0.0,0.0,0.0,0.0,3.1849,0.0,3.668,0.0,3.933,0.0,0.0,0.0,0.0,4.3114,4.3284,4.3986,4.4456,4.3997,4.297,0.0,4.0736,0.0,0.0,0.0,0.0,0.0,0.0,0.0,0.0,0.0,0.0,0.0,0.0,0.0,2.7337,0.0,2.5777,0.0,0.0,0.0,0.0,0.0,0.0,0.0,2.1041,0.0,0.0,0.0,0.0,0.0,0.0,0.0,0.0,0.0,0.0,0.0,2.2258,2.212,2.301,2.2651,2.2409,2.2328,2.2078,2.1799,2.1553,2.1724,2.2089,2.2604,2.3031,2.329,2.3456,2.3695,2.3689,2.3513,2.3284,2.3325,2.3515,2.3632,2.3777,2.3998,2.4289,2.4513,2.4709,2.4988,2.5234,2.5488,1.8433,1.8874,1.9053,0.0,0.0,0.0,0.0,0.0,0.0,0.0,0.0,0.0,2.9566,3.0375,0.0,0.0,3.3538,3.3865,0.0,0.0,3.2148,0.0,0.0,0.0,0.0,0.0,0.0,0.0,0.0,0.0,0.0,0.0,0.0,0.0,0.0,3.5327,3.7749,0.0,4.0907,4.4,4.3965,4.4073,4.4177,4.3223,4.3084,4.353,4.4703,4.4191,4.2789,4.2092,4.0712,0.0,3.8711,0.0,0.0,0.0,0.0,0.0,3.3008,0.0,0.0,0.0,0.0,0.0,0.0,0.0,0.0,0.0,0.0,0.0,0.0,0.0,0.0,0.0,0.0,1.9707,0.0,0.0,0.0,0.0,0.0,0.0,0.0,0.0,0.0,2.1799,2.0931,2.0847,2.1963,2.1758,2.1693,2.1789,2.1903,2.1833,2.1556,2.1722,2.213,2.2774,2.325,2.3526,2.3672,2.4161,2.4161,2.3727,2.3629,2.3701,2.3878,2.3944,2.4167,2.4519,2.4918,2.5262,2.541,2.5245,2.5401,2.5693,1.7137,1.7195,1.7427,1.7878,0.0,0.0,0.0,0.0,0.0,0.0,0.0,0.0,0.0,0.0,0.0,0.0,0.0,3.6897,3.5751,0.0,3.3552,0.0,0.0,2.9796,0.0,0.0,0.0,0.0,0.0,0.0,0.0,0.0,0.0,0.0,3.4123,3.627,3.8683,3.9391,4.1726,4.4966,4.3992,4.3905,4.4362,0.0,4.5142,4.4881,4.457,0.0,0.0,4.1528,4.0343,0.0,0.0,0.0,0.0,0.0,0.0,0.0,0.0,0.0,0.0,3.1009,0.0,0.0,0.0,0.0,2.5672,0.0,0.0,0.0,0.0,0.0,0.0,0.0,0.0,0.0,0.0,0.0,0.0,0.0,0.0,0.0,0.0,0.0,1.756,1.9029,1.8848,1.9063,1.9951,2.1086,2.1403,2.0771,2.2122,2.2267,2.1033,2.2064,2.224,2.1663,2.3349,2.3913,2.3534,2.4326,2.4621,2.4446,2.4054,2.4236,2.473,2.4573,2.4806,2.535,2.5153,2.5634,2.6239,2.5566,2.5479,2.5645,1.8658,1.8097,1.7786,1.8156,1.9954,0.0,0.0,2.6638,0.0,0.0,3.0437,0.0,0.0,3.5221,3.6252,0.0,0.0,3.6979,3.6628,3.5307,0.0,0.0,0.0,3.2395,0.0,0.0,0.0,0.0,0.0,0.0,0.0,0.0,0.0,0.0,0.0,3.6023,0.0,0.0,0.0,0.0,0.0,4.4307,4.4812,0.0,4.4164,4.3972,4.3993,4.3628,0.0,4.1549,4.054,3.9594,3.8407,3.7833,3.7443,3.6563,3.6332,0.0,0.0,0.0,3.4272,3.276,0.0,0.0,0.0,0.0,0.0,0.0,0.0,0.0,0.0,0.0,0.0,0.0,0.0,0.0,0.0,0.0,0.0,0.0,0.0,0.0,0.0,0.0,0.0,1.8421,1.7649,1.789,1.9782,1.989,2.026,2.1146,2.1769,2.1934,2.1523,2.2164,2.2673,2.3137,2.3441,2.4003,2.4693,2.4873,2.4786,2.4448,2.4346,2.4611,2.508,2.5121,2.5544,2.618,2.5849,2.5954,2.6202,2.6064,2.6248,2.652,1.9664,1.8542,0.0,0.0,0.0,0.0,0.0,0.0,0.0,0.0,3.2266,0.0,3.5222,0.0,3.7275,0.0,3.8193,3.7926,3.787,3.6717,0.0,3.7358,3.5325,0.0,0.0,0.0,0.0,0.0,0.0,3.1473,0.0,0.0,0.0,0.0,0.0,3.5846,3.722,4.0143,4.2001,0.0,0.0,4.4973,0.0,0.0,4.3471,4.2988,0.0,4.3417,4.2484,4.1563,4.0812,4.0053,3.8734,3.8238,3.8115,3.752,3.7176,3.68,3.6302,3.5843,0.0,3.3637,3.2384,0.0,2.9976,0.0,0.0,0.0,0.0,0.0,0.0,0.0,0.0,0.0,0.0,0.0,0.0,1.7412,0.0,0.0,0.0,0.0,0.0,0.0,1.6108,1.7387,1.6757,1.7126,0.0,0.0,1.9787,2.0829,2.1604,2.1934,2.1742,2.2399,2.3,2.3505,2.3829,2.4365,2.512,2.5308,2.5116,2.4702,2.4828,2.5114,2.5461,2.578,2.629,2.6886,2.6693,2.6772,2.6904,2.6337,2.6287,2.6576,2.0065,1.8546,0.0,0.0,2.2069,0.0,0.0,0.0,3.1592,0.0,3.4372,3.5827,3.7412,3.7801,3.856,4.0128,4.0,3.9715,3.9405,3.8091,0.0,0.0,3.6837,3.6397,3.7554,0.0,0.0,0.0,0.0,0.0,0.0,0.0,0.0,0.0,3.4694,0.0,3.7204,4.0038,4.2121,4.363,4.5369,4.5734,4.5176,4.4331,4.3221,4.2261,4.377,4.3363,4.1999,4.1457,4.1116,4.0672,3.9149,3.8522,3.8369,3.8369,3.7805,3.7151,3.6938,3.6289,3.5295,3.3671,0.0,0.0,0.0,0.0,2.7147,0.0,0.0,0.0,0.0,0.0,0.0,0.0,0.0,0.0,0.0,0.0,0.0,0.0,0.0,0.0,0.0,1.53,1.533,1.5928,1.6228,1.6705,0.0,0.0,1.9919,1.9875,2.1548,2.2172,2.1563,2.2776,2.3139,2.2746,2.4407,2.5063,2.4859,2.5585,2.5676,2.5211,2.5483,2.5725,2.5982,2.6438,2.6954,2.7562,2.7582,2.7954,2.8284,2.6454,2.5856,2.596,2.1054,2.024,2.005,0.0,2.4461,2.7115,0.0,0.0,0.0,0.0,3.5027,3.5893,3.7503,3.8213,3.8933,3.9799,3.9422,0.0,0.0,0.0,0.0,3.869,3.7597,3.7496,3.8601,3.6519,0.0,3.6979,0.0,0.0,3.4544,0.0,0.0,0.0,0.0,3.4987,3.5876,3.9047,4.1988,4.4552,4.5105,4.5068,4.4755,0.0,4.3776,4.278,4.3064,4.2618,4.1789,4.0896,4.0417,4.0033,3.8736,3.8296,3.8231,3.8069,3.7447,3.6799,3.6797,3.6122,3.5301,3.4516,3.3848,3.3094,0.0,0.0,0.0,0.0,0.0,0.0,0.0,0.0,0.0,0.0,0.0,0.0,0.0,0.0,0.0,1.5054,0.0,0.0,1.4899,1.4953,1.5067,1.5302,1.5625,1.6282,1.7385,0.0,0.0,1.9639,2.0258,2.0715,2.0985,2.2244,2.2929,2.3011,2.428,2.5092,2.5418,2.5915,2.5851,2.5418,2.5725,2.6048,2.6438,2.6563,2.7212,2.807,2.766,2.7784,2.8177,2.8224,2.7957,2.767,2.2193,2.1581,0.0,2.2639,0.0,0.0,2.9427,3.1684,0.0,3.5537,3.5627,0.0,3.7458,3.8294,3.8875,3.9214,3.9364,0.0,3.9124,0.0,0.0,3.8928,3.7706,3.7592,3.8887,3.7061,0.0,3.7015,0.0,0.0,3.3964,0.0,0.0,0.0,0.0,3.5139,3.6156,3.9453,4.2305,4.4655,4.5066,4.508,0.0,4.4926,4.4319,4.3453,4.3347,4.2671,4.1734,4.0812,4.0329,3.9902,3.8953,3.8537,3.8402,3.8266,3.7609,3.6896,3.6929,3.6287,3.5502,3.4912,3.4458,3.3888,3.2941,3.2168,3.1338,0.0,0.0,0.0,0.0,0.0,0.0,0.0,0.0,0.0,0.0,0.0,0.0,0.0,1.4318,0.0,1.4219,1.4434,1.4603,1.4731,1.5307,1.608,0.0,0.0,0.0,1.9326,1.9833,2.0456,2.1276,2.2355,2.3175,2.3703,2.4782,2.5507,2.5936,2.6368,2.6343,2.6011,2.625,2.6514,2.6785,2.7202,2.7833,2.8572,2.8469,2.8615,2.8946,2.9189,2.8867,2.8301,2.3106,2.2647,0.0,0.0,0.0,0.0,0.0,3.2687,0.0,3.6331,0.0,3.6302,3.7302,3.8036,3.8494,3.8553,0.0,3.9561,3.887,3.8588,3.8596,3.8955,3.7445,3.7255,3.8701,3.7839,3.6977,0.0,0.0,0.0,0.0,0.0,0.0,0.0,0.0,0.0,0.0,4.0405,4.2653,4.4186,4.5016,4.5247,4.5092,4.5055,4.4682,4.4122,4.3992,4.3019,4.1643,4.1055,4.0597,4.0126,3.9512,3.9178,3.8993,3.8868,3.8107,3.7257,3.7203,3.6537,3.5658,3.5066,3.4449,3.3803,3.3189,3.2041,3.113,3.1101,2.9871,2.8826,0.0,0.0,0.0,0.0,0.0,0.0,0.0,0.0,0.0,0.0,0.0,0.0,0.0,1.4062,1.4243,1.4244,1.5135,0.0,0.0,0.0,0.0,1.9074,1.9781,2.07,2.181,0.0,2.3595,2.4363,2.5338,2.5936,2.626,2.6733,2.6836,2.6653,2.6869,2.7028,2.7201,2.795,2.8551,2.9065,2.9487,2.9764,2.9994,2.9711,2.9172,2.852,2.2876,0.0,0.0,0.0,0.0,3.1284,3.062,3.3194,3.555,3.6397,3.6525,3.6665,3.6959,3.711,3.7523,3.8371,3.8151,0.0,0.0,0.0,0.0,3.7873,3.7357,3.7446,3.8294,3.7292,3.6782,0.0,0.0,0.0,0.0,0.0,0.0,0.0,0.0,0.0,3.8357,4.0415,0.0,4.3392,4.4205,4.4572,4.4678,4.4335,4.4243,4.4174,4.3434,4.2475,4.1524,4.1295,4.0944,4.0516,4.0098,4.0278,4.0561,3.9809,3.8966,3.8099,3.7456,3.6293,3.5224,3.5039,3.4445,3.3777,3.3277,3.2461,3.1642,3.1154,3.0375,2.9657,2.9143,0.0,0.0,0.0,0.0,0.0,0.0,0.0,0.0,0.0,0.0,1.5845,0.0,0.0,0.0,1.4101,0.0,0.0,0.0,0.0,0.0,0.0,1.9272,0.0,0.0,0.0,2.3347,2.3673,2.4787,2.553,2.5978,2.6447,2.6737,2.6844,2.7118,2.744,2.7745,2.7911,2.8471,2.93,2.9735,2.9942,2.9994,2.9942,2.9905,2.9776,2.4642,0.0,0.0,0.0,0.0,0.0,0.0,3.3791,3.5841,3.6207,3.6072,3.6057,3.6228,3.6475,3.66,3.6507,3.7034,3.7375,3.7367,3.7168,3.7216,3.76,3.6805,3.6681,3.7386,3.6548,3.606,3.6065,0.0,0.0,0.0,0.0,0.0,0.0,0.0,3.794,0.0,0.0,0.0,4.4029,4.4358,4.4513,4.456,4.4001,4.3801,4.3732,4.3313,4.253,4.17,4.1405,4.1129,4.083,4.0377,4.0468,4.0636,4.0003,3.9295,3.8504,3.7679,3.6474,3.5339,3.4988,3.4374,3.3745,3.3183,3.2425,3.1667,3.1041,3.0321,2.9605,2.8894,2.6944,0.0,0.0,0.0,0.0,0.0,0.0,0.0,0.0,0.0,0.0,0.0,0.0,0.0,0.0,0.0,0.0,0.0,0.0,0.0,0.0,0.0,0.0,0.0,0.0,0.0,2.4027,2.5445,2.628,2.6494,2.7065,2.7327,2.7259,2.73,2.751,2.7966,2.8442,2.9042,2.9684,2.9755,2.9928,3.0081,3.0113,3.0294,3.0493,0.0,2.6334,0.0,0.0,2.9659,0.0,3.1911,3.4037,3.5589,3.569,3.5486,3.5358,3.5358,3.5654,3.5596,3.4907,3.5983,3.6659,3.6486,3.6862,3.7186,3.7326,3.6344,3.6043,3.6626,3.6099,3.5665,0.0,0.0,0.0,0.0,0.0,0.0,0.0,0.0,0.0,0.0,0.0,4.386,4.4826,4.4548,4.4539,4.4599,4.3818,4.3549,4.3477,4.3358,4.2852,4.2129,4.1635,4.1338,4.1133,4.0676,4.0646,4.0615,4.0101,3.9492,3.8859,3.7957,3.6684,3.5487,3.4996,3.4313,3.3567,3.3056,3.2325,3.1603,3.095,3.0091,2.9264,2.8499,2.7058,0.0,0.0,0.0,0.0,0.0,0.0,0.0,0.0,0.0,0.0,1.5976,0.0,0.0,0.0,0.0,0.0,1.595,0.0,0.0,0.0,0.0,2.0359,2.1849,0.0,2.3907,2.4616,2.6151,2.6992,2.7166,2.7683,2.7873,2.7741,2.7654,2.78,2.8276,2.9104,2.9725,3.0139,2.9928,3.0089,3.0445,3.0478,3.0765,3.1093,0.0,0.0,0.0,0.0,0.0,0.0,3.2166,3.3396,3.451,3.4605,3.5107,3.5217,3.4758,3.4303,3.438,3.5252,3.4994,3.5308,3.6565,3.6547,3.647,3.6429,3.6342,3.6303,3.6354,3.6536,3.6314,0.0,0.0,3.6212,0.0,0.0,0.0,0.0,0.0,0.0,0.0,4.253,4.3754,4.4941,4.4311,4.4388,4.4864,4.3755,4.3675,4.4043,4.3487,4.3128,4.2785,4.2146,4.1807,4.1548,4.115,4.1395,4.1662,4.0633,3.9922,3.9253,3.8388,3.6759,3.5235,3.5207,3.4133,3.3094,3.301,3.2528,3.1845,3.1037,2.9951,2.8951,2.8343,2.8481,2.7989,0.0,0.0,0.0,0.0,0.0,1.8074,1.8554,0.0,0.0,0.0,1.8289,0.0,0.0,1.5626,0.0,0.0,0.0,0.0,2.1176,0.0,2.1143,2.3297,2.4262,2.4787,2.4893,2.6059,2.6984,2.7618,2.7645,2.7872,2.8244,2.8416,2.8752,2.9208,2.9725,3.0201,3.0615,3.0615,3.0905,3.1319,3.1319,3.1533,3.1905,0.0,0.0,0.0,0.0,0.0,0.0,0.0,3.3501,3.4207,3.4219,3.4538,3.4431,3.3539,3.3171,3.319,3.3709,3.3759,3.4251,3.533,3.5625,3.5745,3.5609,3.5611,3.5628,3.5556,3.5802,3.5842,0.0,0.0,0.0,0.0,0.0,0.0,0.0,0.0,4.1318,4.2792,4.3364,4.43,4.5322,4.4886,4.4817,4.4834,4.3976,4.3632,4.3545,4.3315,4.3185,4.3113,4.2812,4.2247,4.1657,4.1369,4.1446,4.1548,4.0927,4.0076,3.9171,3.8564,3.7001,3.5525,3.5374,3.4316,3.3356,3.3356,3.2538,3.1723,3.1378,3.0327,2.9278,2.8675,2.8459,2.7968,0.0,0.0,0.0,0.0,0.0,0.0,0.0,0.0,1.9198,0.0,0.0,0.0,0.0,0.0,0.0,0.0,0.0,0.0,2.0508,0.0,2.2109,2.3926,2.5019,2.5615,2.5765,2.723,2.7966,2.8136,2.8508,2.8614,2.8528,2.8885,2.9145,2.9352,2.9808,3.0263,3.0731,3.0891,3.1166,3.1532,3.1941,3.212,3.221,3.1393,0.0,3.0179,0.0,3.1331,3.1964,3.2639,3.3329,3.3706,3.3562,3.3758,3.3649,3.2939,3.2561,3.2533,3.2982,3.3246,3.3776,3.4718,3.514,3.5288,3.5077,3.509,0.0,3.5075,3.5467,3.5778,3.6098,3.7151,0.0,0.0,0.0,0.0,0.0,4.0851,4.1917,4.3232,4.3689,4.4371,4.5186,4.4996,4.4906,4.4889,4.3989,4.3653,4.3527,4.3328,4.3227,4.3154,4.3133,4.2495,4.1653,4.161,4.144,4.1284,4.0801,3.9971,3.9101,3.87,3.7244,3.582,3.5675,3.4551,3.3422,3.3348,3.2445,3.1512,3.1208,3.0138,2.92,2.8893,2.8356,2.7876,2.753,0.0,0.0,0.0,0.0,0.0,0.0,2.0494,1.9788,2.0437,1.9502,0.0,0.0,0.0,0.0,0.0,0.0,0.0,0.0,0.0,0.0,2.4832,2.5787,2.6388,2.6626,2.8147,2.8911,2.8942,2.9498,2.95,2.9143,2.9455,2.9683,2.9829,3.0109,3.0553,3.1091,3.1287,3.1602,3.2004,3.2419,3.2493,3.244,3.2087,3.2871,3.3617,3.2378,3.2511,3.2693,3.244,3.2571,3.2646,3.2463,3.2651,3.2942,3.3283,3.2624,3.2632,3.3711,3.3668,3.4139,3.5402,3.5366,3.5217,0.0,0.0,3.506,3.5004,3.5871,3.6525,3.6996,0.0,0.0,3.9396,0.0,4.047,4.0139,4.1015,4.1653,4.2108,4.3141,4.3861,4.424,4.4195,4.4567,4.4961,4.3602,4.3631,4.4312,4.362,4.3258,4.3064,4.2918,4.2342,4.1659,4.192,4.1659,4.1035,4.0249,3.9554,3.9041,3.8742,3.7427,3.6138,3.627,3.4624,3.2949,3.2761,3.2118,3.1309,3.0315,2.9161,2.8454,2.883,2.8452,2.8183,2.8541,0.0,0.0,0.0,0.0,0.0,2.2041,2.1384,2.172,2.366,2.2031,0.0,0.0,0.0,0.0,0.0,0.0,0.0,2.3645,2.4041,0.0,2.6368,2.6801,2.7097,2.7409,2.8559,2.9488,3.0209,3.0392,3.0461,3.037,3.0391,3.0643,3.1084,3.0784,3.1215,3.1967,3.1967,3.2256,3.2669,3.2669,3.2727,3.2669,3.2197,3.1776,3.1723,3.1295,3.1451,3.1733,3.2012,3.2676,3.3066,3.279,3.308,3.3218,3.2925,3.2092,3.1748,0.0,3.2407,3.2707,0.0,3.3538,3.3794,3.3606,3.3913,3.4175,3.4392,3.4977,3.5527,3.6045,0.0,0.0,0.0,4.0872,4.1156,4.0887,4.1559,4.2153,4.26,4.3043,4.3318,4.3441,4.4058,4.4107,4.3823,4.3751,4.376,4.3823,4.3845,4.351,4.3157,4.3519,4.2785,4.1824,4.2314,4.1636,4.0578,4.0284,3.9424,3.8526,3.8309,3.6983,3.5645,3.5394,3.4057,3.2697,3.2319,3.1435,3.0502,2.9774,2.9125,2.8585,2.8231,2.8017,2.7888,2.7855,2.7505,0.0,0.0,0.0,0.0,0.0,2.3527,2.2768,2.4119,2.366,0.0,0.0,0.0,0.0,0.0,0.0,0.0,0.0,2.49,0.0,2.8228,2.8756,2.8924,2.8842,2.9845,3.0513,3.0889,3.0734,3.0678,3.0693,3.0642,3.0798,3.1105,3.1192,3.1505,3.2043,3.2267,3.2502,3.2727,3.2955,3.2898,3.2669,3.2209,3.1345,3.0923,3.0475,3.0664,3.095,3.1144,3.2272,3.2941,3.2497,3.2959,3.3129,3.2588,3.1936,0.0,3.1633,3.1873,3.1978,3.1971,3.2463,3.2788,3.288,3.319,3.3513,3.3934,3.446,0.0,3.5812,3.7295,3.8575,3.9601,4.0267,4.0614,4.0683,4.0977,4.1343,4.1892,4.2222,4.2281,4.2187,4.3033,4.3184,4.2991,4.3184,4.3375,4.3519,4.3689,4.3488,4.3238,4.3626,4.3026,4.2086,4.1879,4.1096,4.0178,4.0062,3.9257,3.8372,3.7935,3.6788,3.566,3.5314,3.4001,3.2481,3.1443,3.0651,2.9957,2.9327,2.8899,2.8602,2.838,2.8195,2.8116,2.8211,2.8197,2.8106,2.8039,0.0,0.0,0.0,0.0,0.0,0.0,2.5599,2.5647,0.0,0.0,0.0,0.0,0.0,0.0,2.4859,2.6509,0.0,2.9661,2.9925,3.0116,3.018,3.0849,3.1193,3.1167,3.1137,3.0983,3.0797,3.1053,3.1242,3.1398,3.1696,3.201,3.2292,3.2461,3.2648,3.2727,3.2955,3.2898,3.2669,3.2038,3.1394,3.1022,0.0,3.0152,0.0,3.0011,3.1463,3.233,3.1617,3.2352,3.2712,3.2191,3.2,3.192,3.2081,0.0,0.0,0.0,3.2022,3.2189,3.2787,3.2838,3.3086,3.3642,3.4237,3.4994,3.5969,3.7846,3.8747,3.8693,3.88,3.9149,3.9692,3.9488,3.9741,4.0351,4.0803,4.0848,4.071,4.1334,4.1891,4.236,4.2164,4.2582,4.3259,4.3259,4.3232,4.3204,4.3259,4.2916,4.2211,4.0878,4.0074,3.9631,3.9447,3.9031,3.8434,3.7681,3.6767,3.5973,3.5727,3.4221,3.2269,3.0399,2.9886,2.9674,2.8922,2.8519,2.8434,2.9026,2.8842,2.8759,2.9319,2.9039,2.861,2.8333,0.0,0.0,0.0,0.0,0.0,0.0,2.7816,2.8741,0.0,0.0,0.0,0.0,0.0,2.6308,2.7369,2.856,2.9648,3.0646,3.0478,3.0756,3.1374,3.1541,3.1505,3.127,3.1476,3.1343,3.0964,3.1601,3.1859,3.1936,3.2343,3.258,3.2669,3.2669,3.2669,3.2669,3.2669,3.2669,3.2669,0.0,0.0,2.9924,3.0241,2.9998,2.9924,3.0478,3.0951,3.1201,3.1026,3.1509,3.1818,3.1763,3.168,3.1489,3.1072,3.1374,3.1383,3.0932,3.1298,3.1634,3.1811,3.2173,3.2626,3.3225,3.3547,3.4093,3.4977,3.667,3.7338,3.6942,3.7779,3.8506,3.9029,3.9469,4.0011,4.0653,4.0218,4.01,4.0159,4.0402,4.0807,4.1322,4.1868,4.2484,4.3018,4.3211,4.2719,4.2058,4.2999,4.1775,4.0034,4.0855,3.9854,3.8324,3.8254,3.7846,3.7428,3.7253,3.6412,3.5456,3.462,3.2876,3.1198,3.0455,2.9869,2.9309,2.8756,2.8354,2.8128,2.8281,2.8362,2.8486,2.8641,2.8789,2.8568,2.7456,2.6729,0.0,0.0,2.6974,2.7293,2.8511,2.9223,2.9502,0.0,0.0,0.0,0.0,2.9155,2.8662,2.7651,2.9144,3.0331,3.112,3.1505,3.1878,3.2213,3.1667,3.1532,3.1812,3.1476,3.159,3.2032,3.1902,3.2154,3.2619,3.2657,3.268,3.2669,3.2669,3.2669,3.2669,3.2669,3.2669,3.2669,3.0877,2.9729,2.9187,2.9679,2.9429,2.9338,2.981,3.0177,3.048,3.0589,3.1019,3.137,3.1589,3.1532,3.1235,3.0596,3.0625,3.0595,3.0398,3.0602,3.1001,3.1473,3.1836,3.2279,3.2766,3.2742,3.3202,3.4134,3.5286,3.5931,3.5974,3.6603,3.7308,3.8088,3.8291,3.8868,3.9674,3.9142,3.9114,3.9467,3.9474,4.0058,4.0946,4.1248,4.1845,4.2533,4.2582,4.2172,4.1666,4.223,4.1258,3.9886,3.9942,3.9068,3.7823,3.7198,3.6959,3.6922,3.6669,3.5734,3.452,3.3388,3.2325,3.1408,3.0505,3.0079,2.9618,2.8769,2.8488,2.8433,2.8504,2.871,2.8925,2.9149,2.8999,2.8569,2.7752,2.7376,0.0,2.7982,2.8211,2.8762,2.9905,3.0278,3.0389,3.0205,3.0238,0.0,3.0664,3.0696,3.0306,2.9257,3.0331,3.1248,3.1834,3.226,3.266,3.2983,3.2409,3.2339,3.2679,3.2389,3.2385,3.2509,3.2663,3.2733,3.2733,3.2993,3.2955,3.2669,3.2669,3.2669,3.2669,3.2669,3.2851,3.3037,3.0269,2.9312,2.8737,2.8858,2.8801,2.88,2.881,2.9295,2.981,3.0153,3.0484,3.0868,3.1341,3.1235,3.0887,3.0356,2.9932,2.9845,3.0193,3.0179,3.0572,3.1424,3.1644,3.1841,3.2157,3.203,3.2357,3.323,3.3881,3.4556,3.5209,3.5234,3.5844,3.6892,3.6691,3.7194,3.8133,3.7902,3.8137,3.8684,3.869,3.9545,4.0846,4.0643,4.1147,4.1918,4.1746,4.1547,4.1372,4.1143,4.0765,4.0106,3.8763,3.8037,3.7416,3.6376,3.6279,3.6478,3.6031,3.5024,3.3738,3.2556,3.2337,3.2046,3.0646,3.0406,3.0162,2.9022,2.9,2.9179,2.919,2.9415,2.9713,3.0049,2.9349,2.8696,2.8515,0.0,2.7974,2.8734,2.9287,2.9933,3.0817,3.1162,3.1258,3.1215,3.1348,3.1492,3.1643,3.1646,3.1507,3.1226,3.1662,3.217,3.2604,3.2932,3.326,3.3646,3.3479,3.3466,3.3529,3.3529,3.3253,3.2901,3.3508,3.3341,3.2804,3.336,3.3302,3.2804,3.2809,3.2789,3.2747,3.2867,3.3115,3.3447,2.9434,2.8848,2.8577,2.8775,2.8713,2.8659,2.8778,2.8541,2.8559,2.9302,2.9291,2.9507,3.0266,3.0292,3.0227,3.001,2.9754,2.9813,3.025,3.0712,3.11,3.1328,3.0998,3.0888,3.1137,3.1539,3.171,3.1646,3.2889,3.3408,3.3332,3.373,3.4504,3.5512,3.5695,3.6208,3.6935,3.7014,3.7431,3.8108,3.8218,3.9168,4.0593,4.0795,4.1071,4.1421,4.1372,4.0743,3.9956,3.9952,3.8993,3.7791,3.799,3.7119,3.6012,3.6259,3.5941,3.5478,3.5645,3.5011,3.4188,3.3509,3.2753,3.1936,3.1005,3.0623,3.0323,2.9664,3.0025,3.0327,2.971,3.0184,3.0556,3.0138,2.9542,2.9036,2.8837,0.0,2.9488,2.9915,3.0803,3.1501,3.1753,3.1855,3.1728,3.1332,3.172,3.1825,3.146,3.2228,3.2549,3.2259,3.2328,3.2627,3.3155,3.3586,3.3884,3.3953,3.4129,3.4065,3.3816,3.3604,3.3558,3.3628,3.3496,3.359,3.3853,3.3769,3.3518,3.311,3.3256,3.3058,3.2768,3.3429,3.3559,3.3489,2.9093,2.8677,2.8557,2.8771,2.8436,2.8212,2.8271,2.806,2.8049,2.8513,2.8788,2.9074,2.9524,2.956,2.951,2.9366,2.9556,2.9708,2.9805,3.0434,3.0858,3.0913,3.0713,3.0397,2.992,3.0308,3.0674,3.0914,3.1702,3.2277,3.2677,3.333,3.3897,3.4523,3.5037,3.5619,3.62,3.6456,3.7038,3.7814,3.7996,3.8827,4.0057,4.0032,4.0262,4.0618,4.0491,4.0006,3.9442,3.9448,3.8738,3.7876,3.7988,3.6995,3.5814,3.5939,3.56,3.5114,3.4703,3.4583,3.4414,3.3452,3.3068,3.2663,3.175,3.1318,3.1013,3.0615,3.0792,3.0967,3.0838,3.0781,3.082,3.1147,3.024,0.0,0.0,3.0281,3.0533,3.0335,3.1631,3.2356,3.1893,3.2071,3.2106,3.1767,3.1823,3.1971,3.2181,3.2478,3.2773,3.2902,3.2777,3.3005,3.366,3.3737,3.4125,3.4831,3.4955,3.4941,3.489,3.4782,3.4623,3.4428,3.458,3.4444,3.4129,3.4104,3.3822,3.3524,3.3422,3.341,3.353,3.4089,3.432,3.4432,2.8771,2.8528,2.8423,2.8519,2.8102,2.7771,2.7728,2.7627,2.7708,2.8014,2.835,2.8593,2.8782,2.8873,2.8883,2.8816,2.9141,2.9352,2.9239,2.9663,3.007,3.0329,3.017,2.9669,2.8699,2.8932,2.9462,3.0307,3.0577,3.1283,3.2291,3.2926,3.3443,3.3838,3.4463,3.5088,3.5753,3.6114,3.6766,3.7489,3.7785,3.8526,3.9387,3.9154,3.9362,3.9672,3.9465,3.9206,3.8973,3.8797,3.8383,3.7996,3.7712,3.6747,3.5738,3.5824,3.557,3.509,3.4102,3.4341,3.451,3.3363,3.3406,3.347,3.248,3.2136,3.1893,3.1663,3.1669,3.1727,3.1863,3.1523,3.1381,3.1862,0.0,0.0,0.0,3.1048,3.115,3.1083,3.223,3.282,3.2192,3.2464,3.2522,3.2223,3.2203,3.2348,3.2758,3.2799,3.2955,3.3269,3.3206,3.3384,3.3902,3.3925,3.4373,3.5306,3.542,3.5531,3.5643,3.5643,3.5435,3.5045,3.542,3.5194,3.4545,3.4547,3.4407,3.4138,3.3768,3.3879,3.425,3.4613,3.4924,3.5239,2.839,2.8216,2.803,2.7744,2.7728,2.7754,2.7538,2.7208,2.7211,2.7933,2.7657,2.7561,2.786,2.8111,2.8333,2.8416,2.841,2.8519,2.8729,2.8402,2.8609,2.9531,2.8954,2.8207,2.7452,2.7641,2.8322,2.9501,2.9747,3.0469,3.168,3.1958,3.2642,3.352,3.3883,3.4527,3.5478,3.6059,3.6603,3.7197,3.7489,3.7945,3.8473,3.8473,3.8473,3.8526,3.8526,3.8315,3.7954,3.7235,3.6987,3.6859,3.6625,3.5737,3.5152,3.6355,3.6183,3.5399,3.4577,3.4556,3.4582,3.3839,3.3863,3.3837,3.3028,3.2755,3.2763,3.2835,3.3079,3.3005,3.2209,3.2632,3.2746,3.1625,0.0,0.0,3.1672,3.1048,3.1107,3.2798,3.2734,3.2795,3.3414,3.3327,3.3026,3.2535,3.3149,3.3265,3.2586,3.3195,3.3545,3.3342,3.3706,3.3805,3.3646,3.4525,3.4916,3.4639,3.5186,3.5268,3.5035,3.5035,3.5111,3.5168,3.519,3.5452,3.5867,3.554,3.5365,3.5306,3.4661,3.4505,3.4589,3.5008,3.5197,3.5281,2.7919,2.8157,2.8189,2.7485,2.7373,2.7173,2.6491,2.6321,2.6311,2.6352,2.6753,2.7043,2.7015,2.7487,2.7917,2.8121,2.8118,2.8353,2.8925,2.8215,2.7857,2.807,2.7668,2.7241,2.6832,2.7051,2.7745,2.8977,2.9204,3.017,3.1806,3.2005,3.2661,3.3714,3.3912,3.4516,3.5423,3.5817,3.6309,3.6874,3.7197,3.7518,3.7892,3.7892,3.7998,3.8133,3.8133,3.8104,3.795,3.7464,3.731,3.7257,3.6914,3.6262,3.5474,3.5395,3.5223,3.4999,3.4526,3.458,3.4678,3.4244,3.4222,3.4171,3.3695,3.3401,3.3235,3.3168,3.3308,3.3445,3.3403,3.3113,3.2976,3.3335,0.0,3.1822,3.2557,3.2336,3.2302,3.291,3.3235,3.3436,3.3446,3.362,3.3529,3.303,3.329,3.3307,3.302,3.3554,3.3991,3.4211,3.4693,3.4756,3.4354,3.4645,3.5034,3.5328,3.5388,3.5368,3.5257,3.5257,3.5335,3.5518,3.5826,3.5953,3.5998,3.5929,3.5919,3.586,3.5206,3.5134,3.5428,3.5596,3.5659,3.5741,2.7849,2.8174,2.8151,2.7297,2.6986,2.6642,2.5944,2.5631,2.5447,2.5376,2.5975,2.6411,2.6217,2.6931,2.7451,2.764,2.7711,2.7925,2.8437,2.7586,2.7002,2.6764,2.6668,2.6605,2.6455,2.6794,2.7582,2.8755,2.9232,3.0248,3.1751,3.2137,3.2846,3.3814,3.392,3.4493,3.5312,3.5455,3.5817,3.6332,3.6603,3.682,3.7059,3.7143,3.7358,3.7601,3.7601,3.7655,3.7655,3.7304,3.7274,3.7251,3.682,3.6479,3.5968,3.4657,3.4782,3.5162,3.4475,3.458,3.4872,3.458,3.4655,3.4723,3.4533,3.431,3.4099,3.4049,3.4005,3.4104,3.4414,3.3911,3.37,3.4375,3.3626,3.3057,3.3239,3.3333,3.3355,3.3311,3.3793,3.4039,3.3906,3.4078,3.4054,3.3595,3.3687,3.377,3.3779,3.4073,3.4418,3.4785,3.5267,3.5359,3.5037,3.493,3.5141,3.5533,3.5257,3.5146,3.5146,3.5302,3.5501,3.5817,3.6266,3.6458,3.6435,3.6491,3.6584,3.6655,3.5943,3.5997,3.6484,3.6178,3.6095,3.6279,2.8206,2.8183,2.7881,2.7121,2.6561,2.6177,2.6103,2.5227,2.4718,2.5125,2.5357,2.5499,2.5499,2.6337,2.6903,2.6903,2.7023,2.7091,2.7091,2.6417,2.5944,2.5723,2.5945,2.6162,2.6387,2.6933,2.7753,2.8921,2.9922,3.0779,3.1508,3.2244,3.3063,3.3814,3.3792,3.4241,3.498,3.498,3.5146,3.5423,3.5698,3.5808,3.584,3.6168,3.6495,3.6712,3.6712,3.685,3.7036,3.6495,3.6495,3.6603,3.6004,3.6223,3.6333,3.4544,3.5118,3.6069,3.4495,3.4652,3.5138,3.4872,3.5235,3.5572,3.5572,3.5392,3.5347,3.5785,3.5446,3.5111,3.5111,3.5264,3.5175,3.4454,3.4545,3.4454,3.3722,3.3836,3.4124,3.436,3.4386,3.458,3.5114,3.4993,3.4604,3.4136,3.4534,3.4797,3.4837,3.4808,3.4808,3.4808,3.5267,3.552,3.5543,3.545,3.5257,3.5002,3.4646,3.4534,3.4556,3.5015,3.5496,3.6056,3.6479,3.6959,3.7413,3.7288,3.7495,3.7834,3.7013,3.722,3.7758,3.6789,3.6585,3.6889,2.7598,2.7623,2.7423,2.6577,2.6029,2.5492,2.487,2.419,2.3846,2.4186,2.4686,2.5113,2.5436,2.6188,2.6628,2.6628,2.6915,2.7182,2.7282,2.7396,2.7121,2.6369,2.6129,2.6131,2.6397,2.7012,2.7834,2.888,2.9746,3.0863,3.2073,3.2596,3.3341,3.4316,3.4094,3.4403,3.498,3.498,3.5146,3.5423,3.5478,3.5643,3.5785,3.5895,3.6277,3.6712,3.6712,3.685,3.7036,3.6495,3.6332,3.6332,3.5895,3.6114,3.6264,3.537,3.5446,3.5636,3.4841,3.4872,3.5138,3.4872,3.492,3.5017,3.5017,3.5089,3.5134,3.4883,3.5012,3.519,3.5165,3.5022,3.4896,3.4931,3.4794,3.4499,3.3952,3.4065,3.417,3.4124,3.4125,3.4246,3.4581,3.4914,3.493,3.4631,3.4718,3.4941,3.5267,3.5313,3.5474,3.5818,3.5979,3.6208,3.6521,3.5954,3.569,3.5748,3.5467,3.5439,3.5539,3.567,3.6172,3.681,3.675,3.7079,3.7736,3.7723,3.7746,3.7878,3.7664,3.7686,3.7818,3.7314,3.7132,3.7253,2.7219,2.7255,2.7019,2.6129,2.5409,2.4807,2.4268,2.345,2.305,2.3409,2.416,2.4775,2.5019,2.5785,2.6304,2.6187,2.6715,2.715,2.7329,2.7656,2.7389,2.65,2.6628,2.6743,2.6773,2.7365,2.8213,2.9254,3.0199,3.1282,3.2563,3.2976,3.3639,3.4479,3.4311,3.4479,3.4813,3.4813,3.4924,3.5091,3.5202,3.5312,3.5533,3.5753,3.6004,3.6386,3.6495,3.6657,3.6688,3.6277,3.6114,3.6114,3.6004,3.6114,3.6225,3.5683,3.5624,3.5581,3.498,3.4992,3.5138,3.4872,3.4872,3.4969,3.4969,3.5066,3.5186,3.506,3.5271,3.5553,3.5669,3.5487,3.5386,3.5362,3.5279,3.5009,3.4403,3.459,3.4689,3.4366,3.4414,3.4487,3.4556,3.5057,3.5384,3.5404,3.5213,3.529,3.5795,3.5818,3.5956,3.6309,3.6461,3.6714,3.6979,3.6721,3.6589,3.6601,3.6295,3.6188,3.615,3.6501,3.6861,3.7207,3.731,3.7553,3.7938,3.8058,3.8118,3.8118,3.8118,3.8238,3.8418,3.7938,3.7818,3.7796,2.6984,2.6892,2.6586,2.5641,2.4728,2.404,2.3996,2.2896,2.2312,2.29,2.3767,2.4376,2.4345,2.5324,2.5917,2.5693,2.6512,2.7091,2.7309,2.74,2.7122,2.6408,2.7415,2.7844,2.7458,2.8003,2.884,2.991,3.0977,3.1981,3.2878,3.3345,3.3896,3.4401,3.4401,3.4401,3.4401,3.4401,3.4479,3.4479,3.4813,3.4924,3.5035,3.5533,3.5753,3.584,3.6168,3.6277,3.6277,3.5895,3.5808,3.584,3.6168,3.6277,3.6217,3.5711,3.573,3.573,3.5058,3.5035,3.5114,3.4872,3.4969,3.5163,3.5163,3.5163,3.5332,3.5812,3.5955,3.6051,3.631,3.6358,3.6168,3.5716,3.5812,3.5716,3.492,3.5284,3.538,3.4823,3.5017,3.509,3.4847,3.5325,3.589,3.6444,3.5908,3.5795,3.6254,3.6332,3.6332,3.6332,3.6782,3.7002,3.7048,3.7609,3.7748,3.7463,3.7154,3.6831,3.6631,3.7345,3.7546,3.7414,3.8119,3.8261,3.7998,3.8261,3.838,3.838,3.844,3.8775,3.919,3.8679,3.8418,3.8418,2.6629,2.6173,2.5616,2.4814,2.3832,2.2934,2.2271,2.1663,2.1599,2.2555,2.3074,2.3692,2.4665,2.5012,2.5252,2.5526,2.6532,2.7309,2.7733,2.7985,2.7999,2.7849,2.8388,2.8622,2.8544,2.9476,3.0172,3.0648,3.1726,3.2385,3.2601,3.3289,3.3692,3.3805,3.3805,3.3805,3.3805,3.3805,3.3974,3.4199,3.4255,3.459,3.498,3.5146,3.5423,3.5785,3.5895,3.6059,3.6277,3.5895,3.5808,3.5785,3.5895,3.6114,3.6294,3.6214,3.5963,3.5652,3.5461,3.5183,3.4872,3.4823,3.4823,3.4872,3.4872,3.5066,3.5235,3.538,3.5524,3.5764,3.6051,3.5908,3.5812,3.5908,3.5764,3.5572,3.5163,3.5211,3.5066,3.4531,3.4889,3.5201,3.5151,3.5805,3.6425,3.6932,3.6441,3.6162,3.6309,3.6332,3.6332,3.6332,3.6782,3.7219,3.7609,3.816,3.8297,3.7927,3.7869,3.7898,3.8007,3.8156,3.832,3.8475,3.8432,3.8477,3.8574,3.8477,3.838,3.844,3.8656,3.8812,3.893,3.9072,3.9131,3.9072,2.5861,2.5205,2.4492,2.3708,2.27,2.1869,2.1554,2.1028,2.1042,2.2055,2.2546,2.314,2.4042,2.4815,2.5521,2.6231,2.676,2.7199,2.7618,2.753,2.7714,2.8377,2.8104,2.8407,2.9531,2.9998,3.0475,3.0984,3.1731,3.2315,3.2826,3.3247,3.3466,3.3636,3.3636,3.3636,3.3636,3.3749,3.3918,3.4086,3.4086,3.4367,3.4758,3.4758,3.5035,3.5478,3.5698,3.6004,3.6277,3.6114,3.595,3.5808,3.5808,3.6004,3.634,3.6333,3.6285,3.6133,3.5842,3.5493,3.5159,3.5159,3.4967,3.4775,3.4775,3.492,3.509,3.5503,3.5502,3.555,3.611,3.5985,3.5764,3.562,3.562,3.5476,3.5066,3.5235,3.5306,3.5011,3.5465,3.5896,3.6135,3.6426,3.6814,3.7281,3.682,3.6495,3.6495,3.6386,3.6392,3.6622,3.7127,3.7632,3.816,3.8665,3.8859,3.8684,3.8684,3.8644,3.8596,3.8775,3.8834,3.8812,3.8834,3.8834,3.8812,3.8633,3.8537,3.844,3.8693,3.8812,3.8871,3.9167,3.9308,3.9249,2.4814,2.4,2.3195,2.2472,2.1409,2.0764,2.0912,2.0458,2.0414,2.141,2.203,2.2492,2.29,2.4083,2.5209,2.6228,2.6377,2.6616,2.706,2.6862,2.7266,2.8432,2.7696,2.814,3.0081,3.0084,3.0432,3.1111,3.1451,3.2107,3.2955,3.2955,3.3126,3.3409,3.3409,3.3388,3.3466,3.3749,3.3918,3.403,3.403,3.4199,3.4534,3.4534,3.4702,3.5035,3.5588,3.6004,3.6332,3.6277,3.6059,3.5895,3.5895,3.6059,3.6332,3.6332,3.6577,3.6664,3.6212,3.5893,3.5761,3.5761,3.5425,3.5039,3.5039,3.4967,3.5137,3.5768,3.5648,3.56,3.6211,3.616,3.5815,3.5332,3.5502,3.5502,3.5016,3.5425,3.5711,3.5661,3.6168,3.6747,3.7276,3.7087,3.712,3.7572,3.7036,3.6712,3.6712,3.651,3.6599,3.6956,3.7609,3.8137,3.8573,3.9055,3.9308,3.9308,3.9308,3.9167,3.8871,3.919,3.9167,3.893,3.9167,3.9108,3.8871,3.8812,3.8633,3.8477,3.8693,3.8812,3.8871,3.9167,3.9308,3.9308,2.3562,2.2654,2.1735,2.0952,2.0045,1.9348,1.9076,1.9095,1.9453,2.0392,2.0997,2.1445,2.1541,2.159,2.1919,2.2551,2.4069,2.5226,2.579,2.7025,2.7937,2.8487,2.8947,2.9427,2.9872,3.0413,3.0898,3.1303,3.1592,3.1842,3.196,3.196,3.2133,3.2477,3.2477,3.2612,3.2841,3.2841,3.3182,3.3692,3.3692,3.4009,3.4534,3.4534,3.4702,3.5035,3.5368,3.595,3.6603,3.6059,3.6004,3.6223,3.6223,3.6277,3.6332,3.6603,3.6737,3.6706,3.6326,3.6288,3.629,3.629,3.6242,3.6194,3.6194,3.5833,3.5521,3.5643,3.598,3.6174,3.6086,3.6014,3.5917,3.5598,3.5771,3.5867,3.5497,3.5954,3.6189,3.5985,3.6617,3.73,3.7829,3.7636,3.7524,3.7596,3.7036,3.6712,3.6712,3.6856,3.6911,3.6979,3.7976,3.8504,3.8596,3.9055,3.9308,3.9308,3.9308,3.9308,3.9249,3.9308,3.9308,3.9249,3.9308,3.9249,3.9226,3.893,3.8812,3.8752,3.8812,3.8812,3.8871,3.9167,3.9308,3.9308,2.195,2.1134,2.0383,2.0445,1.9342,1.8473,1.8409,1.8448,1.8519,1.8679,1.9453,2.0054,2.0098,2.0803,2.1499,2.2171,2.2847,2.3375,2.3822,2.4948,2.6113,2.7266,2.7655,2.846,2.9813,2.9651,2.9981,3.0801,3.1267,3.1614,3.1787,3.1787,3.1903,3.2018,3.219,3.2248,3.2211,3.2784,3.3012,3.3105,3.3296,3.3749,3.4255,3.4086,3.4311,3.4758,3.5257,3.584,3.644,3.6168,3.6168,3.6277,3.6059,3.6168,3.6332,3.644,3.6818,3.7139,3.6672,3.6725,3.6843,3.6843,3.6627,3.6483,3.6771,3.6675,3.6507,3.6507,3.656,3.6638,3.6635,3.667,3.6552,3.611,3.6255,3.6351,3.605,3.6507,3.6912,3.7096,3.744,3.7733,3.795,3.7892,3.7838,3.7838,3.7251,3.7045,3.7325,3.7118,3.7254,3.7885,3.8344,3.8711,3.8987,3.9193,3.9308,3.9308,3.9308,3.9308,3.9308,3.9308,3.9308,3.9308,3.9308,3.9308,3.9308,3.9108,3.899,3.8812,3.899,3.9049,3.9108,3.9249,3.9308,3.9354]}]]